[[{"header":{"parameterUnit":"m.s-1","parameterCategory":1,"la1":31.0,"la2":29.5877,"lo1":-88.7671,"lo2":-86.6584,"dy":0.0162,"dx":0.0185,"nx":115,"ny":88,"refTime":"2023-11-06T06:00:00:Z","depth":0,"parameterNumber":2,"parameterNumberName":"U-component_of_WINDS"},"data":[0.0,0.0,0.0,0.0,0.0,0.0,0.0,0.0,0.0,0.0,0.0,0.0,0.0,0.0,0.0,0.0,0.0,0.0,0.0,0.0,0.0,0.0,0.0,0.0,0.0,0.0,0.0,0.0,0.0,0.0,0.0,0.0,0.0,0.0,0.0,0.0,0.0,0.0,0.0,0.0,0.0,0.0,0.0,0.0,0.0,0.0,0.0,0.0,0.0,0.0,0.0,0.0,0.0,0.0,0.0,0.0,0.0,0.0,0.0,0.0,0.0,0.0,0.0,0.0,0.0,0.0,0.0,0.0,0.0,0.0,0.0,0.0,0.0,0.0,0.0,0.0,0.0,0.0,0.0,0.0,0.0,0.0,0.0,0.0,0.0,0.0,0.0,0.0,0.0,0.0,0.0,0.0,0.0,0.0,0.0,0.0,0.0,0.0,0.0,0.0,0.0,0.0,0.0,0.0,0.0,0.0,0.0,0.0,0.0,0.0,0.0,0.0,0.0,0.0,0.0,0.0,0.0,0.0,0.0,0.0,0.0,0.0,0.0,0.0,0.0,0.0,0.0,0.0,0.0,0.0,0.0,0.0,0.0,0.0,0.0,0.0,0.0,0.0,0.0,0.0,0.0,0.0,0.0,0.0,0.0,0.0,0.0,0.0,0.0,0.0,0.0,0.0,0.0,0.0,0.0,0.0,0.0,0.0,0.0,0.0,0.0,0.0,0.0,0.0,0.0,0.0,0.0,0.0,0.0,0.0,0.0,0.0,0.0,0.0,0.0,0.0,0.0,0.0,0.0,0.0,0.0,0.0,0.0,0.0,0.0,0.0,0.0,0.0,0.0,0.0,0.0,0.0,0.0,0.0,0.0,0.0,0.0,0.0,0.0,0.0,0.0,0.0,0.0,0.0,0.0,0.0,0.0,0.0,0.0,0.0,0.0,0.0,0.0,0.0,0.0,0.0,0.0,0.0,0.0,0.0,0.0,0.0,0.0,0.0,0.0,0.0,0.0,0.0,0.0,0.0,0.0,0.0,0.0,0.0,0.0,0.0,0.0,0.0,0.0,0.0,0.0,0.0,0.0,0.0,0.0,0.0,0.0,0.0,0.0,0.0,0.0,0.0,0.0,0.0,0.0,0.0,0.0,0.0,0.0,0.0,0.0,0.0,0.0,0.0,0.0,0.0,0.0,0.0,0.0,0.0,0.0,0.0,0.0,0.0,0.0,0.0,0.0,0.0,0.0,0.0,0.0,0.0,0.0,0.0,0.0,0.0,0.0,0.0,0.0,0.0,0.0,0.0,0.0,0.0,0.0,0.0,0.0,0.0,0.0,0.0,0.0,0.0,0.0,0.0,0.0,0.0,0.0,0.0,0.0,0.0,0.0,0.0,0.0,0.0,0.0,0.0,0.0,0.0,0.0,0.0,0.0,0.0,0.0,0.0,0.0,0.0,0.0,0.0,0.0,0.0,0.0,0.0,0.0,0.0,0.0,0.0,0.0,0.0,0.0,0.0,0.0,0.0,0.0,0.0,0.0,0.0,0.0,0.0,0.0,0.0,0.0,0.0,0.0,0.0,0.0,0.0,0.0,0.0,0.0,0.0,0.0,0.0,0.0,0.0,0.0,0.0,0.0,0.0,0.0,0.0,0.0,0.0,0.0,0.0,0.0,0.0,0.0,0.0,0.0,0.0,0.0,0.0,0.0,0.0,0.0,0.0,0.0,0.0,0.0,0.0,0.0,0.0,0.0,0.0,0.0,0.0,0.0,0.0,0.0,0.0,0.0,0.0,0.0,0.0,0.0,0.0,0.0,0.0,0.0,0.0,0.0,0.0,0.0,0.0,0.0,0.0,0.0,0.0,0.0,0.0,0.0,0.0,0.0,0.0,0.0,0.0,0.0,0.0,0.0,0.0,0.0,0.0,0.0,0.0,0.0,0.0,0.0,0.0,0.0,0.0,0.0,0.0,0.0,0.0,0.0,0.0,0.0,0.0,0.0,0.0,0.0,0.0,0.0,0.0,0.0,0.0,0.0,0.0,0.0,0.0,0.0,0.0,0.0,0.0,0.0,0.0,0.0,0.0,0.0,0.0,0.0,0.0,0.0,0.0,0.0,0.0,0.0,0.0,0.0,0.0,0.0,0.0,0.0,0.0,0.0,0.0,0.0,0.0,0.0,0.0,0.0,0.0,0.0,0.0,0.0,0.0,0.0,0.0,0.0,0.0,0.0,0.0,0.0,0.0,0.0,0.0,0.0,0.0,0.0,0.0,0.0,0.0,0.0,0.0,0.0,0.0,0.0,0.0,0.0,0.0,0.0,0.0,0.0,0.0,0.0,0.0,0.0,0.0,0.0,0.0,0.0,0.0,0.0,0.0,0.0,0.0,0.0,0.0,0.0,0.0,0.0,0.0,0.0,0.0,0.0,0.0,0.0,0.0,0.0,0.0,0.0,0.0,0.0,0.0,0.0,0.0,0.0,0.0,0.0,0.0,0.0,0.0,0.0,0.0,0.0,0.0,0.0,0.0,0.0,0.0,0.0,0.0,0.0,0.0,0.0,0.0,0.0,0.0,0.0,0.0,0.0,0.0,0.0,0.0,0.0,0.0,0.0,0.0,0.0,0.0,0.0,0.0,0.0,0.0,0.0,0.0,0.0,0.0,0.0,0.0,0.0,0.0,0.0,0.0,0.0,0.0,0.0,0.0,0.0,0.0,0.0,0.0,0.0,0.0,0.0,0.0,0.0,0.0,0.0,0.0,0.0,0.0,0.0,0.0,0.0,0.0,0.0,0.0,0.0,0.0,0.0,0.0,0.0,0.0,0.0,0.0,0.0,0.0,0.0,0.0,0.0,0.0,0.0,0.0,0.0,0.0,0.0,0.0,0.0,0.0,0.0,0.0,0.0,0.0,0.0,0.0,0.0,0.0,0.0,0.0,0.0,0.0,0.0,0.0,0.0,0.0,0.0,0.0,0.0,0.0,0.0,0.0,0.0,0.0,0.0,0.0,0.0,0.0,0.0,0.0,0.0,0.0,0.0,0.0,0.0,0.0,0.0,0.0,0.0,0.0,0.0,0.0,0.0,0.0,0.0,0.0,0.0,0.0,0.0,0.0,0.0,0.0,0.0,0.0,0.0,0.0,0.0,0.0,0.0,0.0,0.0,0.0,0.0,0.0,0.0,0.0,0.0,0.0,0.0,0.0,0.0,0.0,0.0,0.0,0.0,0.0,0.0,0.0,0.0,0.0,0.0,0.0,0.0,0.0,0.0,0.0,0.0,0.0,0.0,0.0,0.0,0.0,0.0,0.0,0.0,0.0,0.0,0.0,0.0,0.0,0.0,0.0,0.0,0.0,0.0,0.0,0.0,0.0,0.0,0.0,0.0,0.0,0.0,0.0,0.0,0.0,0.0,0.0,0.0,0.0,0.0,0.0,0.0,0.0,0.0,0.0,0.0,0.0,0.0,0.0,0.0,0.0,0.0,0.0,0.0,0.0,0.0,0.0,0.0,0.0,0.0,0.0,0.0,0.0,0.0,0.0,0.0,0.0,0.0,0.0,0.0,0.0,0.0,0.0,0.0,0.0,0.0,0.0,0.0,0.0,0.0,0.0,0.0,0.0,0.0,0.0,0.0,0.0,0.0,0.0,0.0,0.0,0.0,0.0,0.0,0.0,0.0,0.0,0.0,0.0,0.0,0.0,0.0,0.0,0.0,0.0,0.0,0.0,0.0,0.0,0.0,0.0,0.0,0.0,0.0,0.0,0.0,0.0,0.0,0.0,0.0,0.0,0.0,0.0,0.0,0.0,0.0,0.0,0.0,0.0,0.0,0.0,0.0,0.0,0.0,0.0,0.0,0.0,0.0,0.0,0.0,0.0,0.0,0.0,0.0,0.0,0.0,0.0,0.0,0.0,0.0,0.0,0.0,0.0,0.0,0.0,0.0,0.0,0.0,0.0,0.0,0.0,0.0,0.0,0.0,0.0,0.0,0.0,0.0,0.0,0.0,0.0,0.0,0.0,0.0,0.0,0.0,0.0,0.0,0.0,0.0,0.0,0.0,0.0,0.0,0.0,0.0,0.0,0.0,0.0,0.0,0.0,0.0,0.0,0.0,0.0,0.0,0.0,0.0,0.0,0.0,0.0,0.0,0.0,0.0,0.0,0.0,0.0,0.0,0.0,0.0,0.0,0.0,0.0,0.0,0.0,0.0,0.0,0.0,0.0,0.0,0.0,0.0,0.0,0.0,0.0,0.0,0.0,0.0,0.0,0.0,0.0,0.0,0.0,0.0,0.0,-2.0594,0.0,0.0,0.0,0.0,0.0,0.0,0.0,0.0,0.0,0.0,0.0,0.0,0.0,0.0,0.0,0.0,0.0,0.0,0.0,0.0,0.0,0.0,0.0,0.0,0.0,0.0,0.0,0.0,0.0,0.0,0.0,0.0,0.0,0.0,0.0,0.0,0.0,0.0,0.0,0.0,0.0,0.0,0.0,0.0,0.0,0.0,0.0,0.0,0.0,0.0,0.0,0.0,0.0,0.0,0.0,0.0,0.0,0.0,0.0,0.0,0.0,0.0,0.0,0.0,0.0,0.0,0.0,0.0,0.0,0.0,0.0,0.0,0.0,0.0,0.0,0.0,0.0,0.0,0.0,0.0,0.0,0.0,0.0,0.0,0.0,0.0,0.0,0.0,0.0,0.0,0.0,0.0,0.0,0.0,0.0,0.0,0.0,0.0,0.0,0.0,0.0,0.0,0.0,0.0,0.0,0.0,0.0,0.0,0.0,0.0,-2.0589,-2.0538,-2.0538,-2.0531,-2.0495,0.0,0.0,0.0,0.0,0.0,0.0,0.0,0.0,0.0,0.0,0.0,0.0,0.0,0.0,0.0,0.0,0.0,0.0,0.0,0.0,0.0,0.0,0.0,0.0,0.0,0.0,0.0,0.0,0.0,0.0,0.0,0.0,0.0,0.0,0.0,0.0,0.0,0.0,0.0,0.0,0.0,0.0,0.0,0.0,0.0,0.0,0.0,0.0,0.0,0.0,0.0,0.0,0.0,0.0,0.0,0.0,0.0,0.0,0.0,0.0,0.0,0.0,0.0,0.0,0.0,0.0,0.0,0.0,0.0,0.0,0.0,0.0,0.0,0.0,0.0,0.0,0.0,0.0,0.0,0.0,0.0,0.0,0.0,0.0,0.0,0.0,0.0,0.0,0.0,0.0,0.0,0.0,0.0,0.0,0.0,0.0,0.0,0.0,0.0,0.0,0.0,0.0,0.0,0.0,0.0,0.0,0.0,0.0,0.0,0.0,0.0,0.0,-2.0503,-2.0483,-2.0405,0.0,0.0,0.0,0.0,0.0,0.0,0.0,0.0,0.0,0.0,0.0,0.0,0.0,0.0,0.0,0.0,0.0,0.0,0.0,0.0,0.0,0.0,0.0,0.0,0.0,0.0,0.0,0.0,0.0,0.0,0.0,0.0,0.0,0.0,0.0,0.0,0.0,0.0,0.0,0.0,0.0,0.0,0.0,0.0,0.0,0.0,0.0,0.0,0.0,0.0,0.0,0.0,0.0,0.0,0.0,0.0,0.0,0.0,0.0,0.0,0.0,0.0,0.0,0.0,0.0,0.0,0.0,0.0,0.0,0.0,0.0,0.0,0.0,0.0,0.0,0.0,0.0,0.0,0.0,0.0,0.0,0.0,0.0,0.0,0.0,0.0,0.0,0.0,0.0,0.0,0.0,0.0,0.0,0.0,0.0,0.0,0.0,0.0,0.0,0.0,0.0,0.0,0.0,0.0,0.0,0.0,0.0,0.0,0.0,0.0,-2.0593,-2.0591,-2.0532,0.0,-2.0424,0.0,0.0,0.0,0.0,0.0,0.0,0.0,0.0,0.0,0.0,0.0,0.0,0.0,0.0,0.0,0.0,0.0,0.0,0.0,0.0,0.0,0.0,0.0,0.0,0.0,0.0,0.0,0.0,0.0,0.0,0.0,0.0,0.0,0.0,0.0,0.0,0.0,0.0,0.0,0.0,0.0,0.0,0.0,0.0,0.0,0.0,0.0,0.0,0.0,0.0,0.0,0.0,0.0,0.0,0.0,0.0,0.0,0.0,0.0,0.0,0.0,0.0,0.0,0.0,0.0,0.0,0.0,0.0,0.0,0.0,0.0,0.0,0.0,0.0,0.0,0.0,0.0,0.0,0.0,0.0,0.0,0.0,0.0,0.0,0.0,0.0,0.0,0.0,0.0,0.0,0.0,0.0,0.0,0.0,0.0,0.0,0.0,0.0,0.0,0.0,0.0,0.0,0.0,0.0,0.0,0.0,0.0,0.0,0.0,0.0,-2.0589,-2.0537,-2.0487,-2.042,0.0,0.0,0.0,0.0,0.0,0.0,0.0,0.0,0.0,0.0,0.0,0.0,0.0,0.0,0.0,0.0,0.0,0.0,0.0,0.0,0.0,0.0,0.0,0.0,0.0,0.0,0.0,0.0,0.0,0.0,0.0,0.0,0.0,0.0,0.0,0.0,0.0,0.0,0.0,0.0,0.0,0.0,0.0,0.0,0.0,0.0,0.0,0.0,0.0,0.0,0.0,0.0,0.0,0.0,0.0,0.0,0.0,0.0,0.0,0.0,0.0,0.0,0.0,0.0,0.0,0.0,0.0,0.0,0.0,0.0,0.0,0.0,0.0,0.0,0.0,0.0,0.0,0.0,0.0,0.0,0.0,0.0,0.0,0.0,0.0,0.0,0.0,0.0,0.0,0.0,0.0,0.0,0.0,0.0,0.0,0.0,0.0,0.0,0.0,0.0,0.0,0.0,0.0,0.0,0.0,0.0,0.0,0.0,0.0,0.0,-2.073,-2.0565,-2.0501,-2.0455,-2.0413,-2.04,0.0,0.0,0.0,0.0,0.0,0.0,0.0,0.0,0.0,0.0,0.0,0.0,0.0,0.0,0.0,0.0,0.0,0.0,0.0,0.0,0.0,0.0,0.0,0.0,0.0,0.0,0.0,0.0,0.0,0.0,0.0,0.0,0.0,0.0,0.0,0.0,0.0,0.0,0.0,0.0,0.0,0.0,0.0,0.0,0.0,0.0,0.0,0.0,0.0,0.0,0.0,0.0,0.0,0.0,0.0,0.0,0.0,0.0,0.0,0.0,0.0,0.0,0.0,0.0,0.0,0.0,0.0,0.0,0.0,0.0,0.0,0.0,0.0,0.0,0.0,0.0,0.0,0.0,0.0,0.0,0.0,0.0,0.0,0.0,0.0,0.0,0.0,0.0,0.0,0.0,0.0,0.0,0.0,0.0,0.0,0.0,0.0,0.0,0.0,0.0,0.0,0.0,0.0,0.0,0.0,0.0,0.0,0.0,-2.1822,-2.1021,-2.0565,-2.05,-2.0516,-2.0462,0.0,0.0,0.0,0.0,0.0,0.0,0.0,0.0,0.0,0.0,0.0,0.0,0.0,0.0,0.0,0.0,0.0,0.0,0.0,0.0,0.0,0.0,0.0,0.0,0.0,0.0,0.0,0.0,0.0,0.0,0.0,0.0,0.0,0.0,0.0,0.0,0.0,0.0,0.0,0.0,0.0,0.0,0.0,0.0,0.0,0.0,0.0,0.0,0.0,0.0,0.0,0.0,0.0,0.0,0.0,0.0,0.0,0.0,0.0,0.0,0.0,0.0,0.0,0.0,0.0,0.0,0.0,0.0,0.0,0.0,0.0,0.0,0.0,0.0,0.0,0.0,0.0,0.0,0.0,0.0,0.0,0.0,0.0,0.0,0.0,0.0,0.0,0.0,0.0,0.0,0.0,0.0,0.0,0.0,0.0,0.0,0.0,0.0,0.0,0.0,0.0,0.0,0.0,0.0,0.0,0.0,0.0,0.0,0.0,-2.1139,-2.0718,-2.0527,-2.051,-2.0515,-2.048,0.0,0.0,0.0,0.0,0.0,0.0,0.0,0.0,0.0,0.0,0.0,0.0,0.0,0.0,0.0,0.0,0.0,0.0,0.0,0.0,0.0,0.0,0.0,0.0,0.0,0.0,0.0,0.0,0.0,0.0,0.0,0.0,0.0,0.0,0.0,0.0,0.0,0.0,0.0,0.0,0.0,0.0,0.0,0.0,0.0,0.0,0.0,0.0,0.0,0.0,0.0,0.0,0.0,0.0,0.0,0.0,0.0,0.0,0.0,0.0,0.0,0.0,0.0,0.0,0.0,0.0,0.0,0.0,0.0,0.0,0.0,0.0,0.0,0.0,0.0,0.0,0.0,0.0,0.0,0.0,0.0,0.0,0.0,0.0,0.0,0.0,0.0,0.0,0.0,0.0,0.0,0.0,0.0,0.0,0.0,0.0,0.0,0.0,0.0,0.0,0.0,0.0,0.0,0.0,0.0,0.0,0.0,0.0,0.0,-2.064,0.0,-2.0428,-2.0422,-2.0428,-2.0418,0.0,0.0,0.0,0.0,0.0,0.0,0.0,0.0,0.0,0.0,0.0,0.0,0.0,0.0,0.0,0.0,0.0,0.0,0.0,0.0,0.0,0.0,0.0,0.0,0.0,0.0,0.0,0.0,0.0,0.0,0.0,0.0,0.0,0.0,0.0,0.0,0.0,0.0,0.0,0.0,0.0,0.0,0.0,0.0,0.0,0.0,0.0,0.0,0.0,0.0,0.0,0.0,0.0,0.0,0.0,0.0,0.0,0.0,0.0,0.0,0.0,0.0,0.0,0.0,0.0,0.0,0.0,0.0,0.0,0.0,0.0,0.0,0.0,0.0,0.0,0.0,0.0,0.0,0.0,0.0,0.0,0.0,0.0,0.0,0.0,0.0,0.0,0.0,0.0,0.0,0.0,0.0,0.0,0.0,0.0,0.0,0.0,0.0,0.0,0.0,0.0,0.0,0.0,0.0,0.0,0.0,0.0,0.0,-2.2219,-2.0583,-2.0371,-2.0316,-2.0294,-2.0297,-2.0341,0.0,0.0,0.0,0.0,0.0,0.0,0.0,0.0,0.0,0.0,0.0,0.0,0.0,0.0,0.0,0.0,0.0,0.0,0.0,0.0,0.0,0.0,0.0,0.0,0.0,0.0,0.0,0.0,0.0,0.0,0.0,0.0,0.0,0.0,0.0,0.0,0.0,0.0,0.0,0.0,0.0,0.0,0.0,0.0,0.0,0.0,0.0,0.0,0.0,0.0,0.0,0.0,0.0,0.0,0.0,0.0,0.0,0.0,0.0,0.0,0.0,0.0,0.0,0.0,0.0,0.0,0.0,0.0,0.0,0.0,0.0,0.0,0.0,0.0,0.0,0.0,0.0,0.0,0.0,0.0,0.0,0.0,0.0,0.0,0.0,0.0,0.0,0.0,0.0,0.0,0.0,0.0,0.0,0.0,0.0,0.0,0.0,0.0,0.0,0.0,0.0,0.0,0.0,0.0,0.0,0.0,0.0,0.0,0.0,-2.0521,-2.0374,-2.0289,-2.0289,-2.0289,-2.0286,0.0,0.0,0.0,0.0,0.0,0.0,0.0,0.0,0.0,0.0,0.0,0.0,0.0,0.0,0.0,0.0,0.0,0.0,0.0,0.0,0.0,0.0,0.0,0.0,0.0,0.0,0.0,0.0,0.0,0.0,0.0,0.0,0.0,0.0,0.0,0.0,0.0,0.0,0.0,0.0,0.0,0.0,0.0,0.0,0.0,0.0,0.0,0.0,0.0,0.0,0.0,0.0,0.0,0.0,0.0,0.0,0.0,0.0,0.0,0.0,0.0,0.0,0.0,0.0,0.0,0.0,0.0,0.0,0.0,0.0,0.0,0.0,0.0,0.0,0.0,0.0,0.0,0.0,0.0,0.0,0.0,0.0,0.0,0.0,0.0,0.0,0.0,0.0,0.0,0.0,0.0,0.0,0.0,0.0,0.0,0.0,0.0,0.0,0.0,0.0,0.0,0.0,0.0,0.0,0.0,0.0,0.0,0.0,0.0,-2.1338,-2.1223,-2.1146,-2.1146,-2.1173,-2.0889,-2.0238,0.0,0.0,0.0,0.0,0.0,0.0,0.0,0.0,0.0,0.0,0.0,0.0,0.0,0.0,0.0,0.0,0.0,0.0,0.0,0.0,0.0,0.0,0.0,0.0,0.0,0.0,0.0,0.0,0.0,0.0,0.0,0.0,0.0,0.0,0.0,0.0,0.0,0.0,0.0,0.0,0.0,0.0,0.0,0.0,0.0,0.0,0.0,0.0,0.0,0.0,0.0,0.0,0.0,0.0,0.0,0.0,0.0,0.0,0.0,0.0,0.0,0.0,0.0,0.0,0.0,0.0,0.0,0.0,0.0,0.0,0.0,0.0,0.0,0.0,0.0,0.0,0.0,0.0,0.0,0.0,0.0,0.0,0.0,0.0,0.0,0.0,0.0,0.0,0.0,0.0,0.0,0.0,0.0,0.0,0.0,0.0,0.0,0.0,0.0,0.0,0.0,0.0,0.0,0.0,0.0,0.0,0.0,0.0,-2.2941,-2.291,-2.2854,-2.2739,-2.2689,-2.1953,0.0,0.0,0.0,0.0,0.0,0.0,0.0,0.0,0.0,0.0,0.0,0.0,0.0,0.0,0.0,0.0,0.0,0.0,0.0,0.0,0.0,0.0,0.0,0.0,0.0,0.0,0.0,0.0,0.0,0.0,0.0,0.0,0.0,0.0,0.0,0.0,0.0,0.0,0.0,0.0,0.0,0.0,0.0,0.0,0.0,0.0,0.0,0.0,0.0,0.0,0.0,0.0,0.0,0.0,0.0,0.0,0.0,0.0,0.0,0.0,0.0,0.0,0.0,0.0,0.0,0.0,0.0,0.0,0.0,0.0,0.0,0.0,0.0,0.0,0.0,0.0,0.0,0.0,0.0,0.0,0.0,0.0,0.0,0.0,0.0,0.0,0.0,0.0,0.0,0.0,0.0,0.0,0.0,0.0,0.0,0.0,0.0,0.0,0.0,0.0,0.0,0.0,0.0,0.0,0.0,0.0,0.0,0.0,0.0,-2.4544,-2.5738,-2.5778,-2.4553,-2.3345,-2.2488,0.0,0.0,0.0,0.0,0.0,0.0,0.0,0.0,0.0,0.0,0.0,0.0,0.0,0.0,0.0,0.0,0.0,0.0,0.0,0.0,0.0,0.0,0.0,0.0,0.0,0.0,0.0,0.0,0.0,0.0,0.0,0.0,0.0,0.0,0.0,0.0,0.0,0.0,0.0,0.0,0.0,0.0,0.0,0.0,0.0,0.0,0.0,0.0,0.0,0.0,0.0,0.0,0.0,0.0,0.0,0.0,0.0,0.0,0.0,0.0,0.0,0.0,0.0,0.0,0.0,0.0,0.0,0.0,0.0,0.0,0.0,0.0,0.0,0.0,0.0,0.0,0.0,0.0,0.0,0.0,0.0,0.0,0.0,0.0,0.0,0.0,0.0,0.0,0.0,0.0,0.0,0.0,0.0,0.0,0.0,0.0,0.0,0.0,0.0,0.0,0.0,0.0,0.0,0.0,0.0,0.0,0.0,0.0,-2.4244,-2.5203,-2.7542,-2.8281,-2.7319,-2.5004,-2.3426,0.0,0.0,0.0,0.0,0.0,0.0,0.0,0.0,0.0,0.0,0.0,0.0,0.0,0.0,0.0,0.0,0.0,0.0,0.0,0.0,0.0,0.0,0.0,0.0,0.0,0.0,0.0,0.0,0.0,0.0,0.0,0.0,0.0,0.0,0.0,0.0,0.0,0.0,0.0,0.0,0.0,0.0,0.0,0.0,0.0,0.0,0.0,0.0,0.0,0.0,0.0,0.0,0.0,0.0,0.0,0.0,0.0,0.0,0.0,0.0,0.0,0.0,0.0,0.0,0.0,0.0,0.0,0.0,0.0,0.0,0.0,0.0,0.0,0.0,0.0,0.0,0.0,0.0,0.0,0.0,0.0,0.0,0.0,0.0,0.0,0.0,0.0,0.0,0.0,0.0,0.0,0.0,0.0,0.0,0.0,0.0,0.0,0.0,0.0,0.0,0.0,0.0,0.0,0.0,0.0,0.0,0.0,0.0,-2.5365,-2.5516,-2.8549,-3.0204,-3.0109,-2.695,-2.4495,0.0,0.0,0.0,0.0,0.0,0.0,0.0,0.0,0.0,0.0,0.0,0.0,0.0,0.0,0.0,0.0,0.0,0.0,0.0,0.0,0.0,0.0,0.0,0.0,0.0,0.0,0.0,0.0,0.0,0.0,0.0,0.0,0.0,0.0,0.0,0.0,0.0,0.0,0.0,0.0,0.0,0.0,0.0,0.0,0.0,0.0,0.0,0.0,0.0,0.0,0.0,0.0,0.0,0.0,0.0,0.0,0.0,0.0,0.0,0.0,0.0,0.0,0.0,0.0,0.0,0.0,0.0,0.0,0.0,0.0,0.0,0.0,0.0,0.0,0.0,0.0,0.0,0.0,0.0,0.0,0.0,0.0,0.0,0.0,0.0,0.0,0.0,0.0,0.0,0.0,0.0,0.0,0.0,0.0,0.0,0.0,0.0,0.0,0.0,0.0,0.0,0.0,0.0,0.0,0.0,0.0,0.0,0.0,-2.6534,-2.7192,-2.9134,-3.0204,-3.0185,-2.6842,-2.4916,0.0,0.0,0.0,0.0,0.0,0.0,0.0,0.0,0.0,0.0,0.0,0.0,0.0,0.0,0.0,0.0,0.0,0.0,0.0,0.0,0.0,0.0,0.0,0.0,0.0,0.0,0.0,0.0,0.0,0.0,0.0,0.0,0.0,0.0,0.0,0.0,0.0,0.0,0.0,0.0,0.0,0.0,0.0,0.0,0.0,0.0,0.0,0.0,-2.4885,0.0,0.0,0.0,0.0,0.0,0.0,0.0,0.0,0.0,0.0,0.0,0.0,0.0,0.0,0.0,0.0,0.0,0.0,0.0,0.0,0.0,0.0,0.0,0.0,0.0,0.0,0.0,0.0,0.0,0.0,0.0,0.0,0.0,0.0,0.0,0.0,0.0,0.0,0.0,0.0,0.0,0.0,0.0,0.0,0.0,0.0,0.0,0.0,0.0,0.0,0.0,0.0,0.0,0.0,0.0,0.0,0.0,0.0,0.0,-2.6892,-2.772,-2.9229,-3.0057,-2.9973,-2.7361,-2.5662,0.0,0.0,0.0,0.0,0.0,0.0,0.0,0.0,0.0,0.0,0.0,0.0,0.0,0.0,0.0,0.0,0.0,0.0,0.0,0.0,0.0,0.0,0.0,0.0,0.0,0.0,0.0,0.0,0.0,0.0,0.0,0.0,0.0,0.0,0.0,0.0,0.0,0.0,0.0,0.0,0.0,0.0,0.0,0.0,0.0,0.0,0.0,0.0,0.0,0.0,0.0,0.0,0.0,0.0,0.0,0.0,0.0,0.0,0.0,0.0,0.0,0.0,0.0,0.0,0.0,0.0,0.0,0.0,0.0,0.0,0.0,0.0,0.0,0.0,0.0,0.0,0.0,0.0,0.0,0.0,0.0,0.0,0.0,0.0,0.0,0.0,0.0,0.0,0.0,0.0,0.0,0.0,0.0,0.0,0.0,0.0,0.0,0.0,0.0,0.0,0.0,0.0,0.0,0.0,0.0,0.0,0.0,-2.5526,-2.714,-2.8077,-2.9281,-2.9905,-2.991,-2.7994,-2.6384,-2.5229,0.0,0.0,0.0,0.0,0.0,0.0,0.0,0.0,0.0,0.0,0.0,0.0,0.0,0.0,0.0,0.0,0.0,0.0,0.0,0.0,0.0,0.0,0.0,0.0,0.0,0.0,0.0,0.0,0.0,0.0,0.0,0.0,0.0,0.0,0.0,0.0,0.0,0.0,-2.07,-2.0648,0.0,0.0,0.0,0.0,0.0,0.0,0.0,0.0,-2.2926,0.0,0.0,0.0,0.0,0.0,0.0,0.0,0.0,0.0,0.0,0.0,0.0,0.0,0.0,0.0,0.0,0.0,0.0,0.0,0.0,0.0,0.0,0.0,0.0,0.0,0.0,0.0,0.0,0.0,0.0,0.0,0.0,0.0,0.0,0.0,0.0,0.0,0.0,0.0,0.0,0.0,0.0,0.0,0.0,0.0,0.0,0.0,0.0,0.0,0.0,0.0,0.0,0.0,0.0,0.0,0.0,-2.5759,-2.6924,-2.8243,-2.9746,-2.9851,-2.9969,-3.0097,-2.8139,-2.6483,-2.52,0.0,0.0,0.0,0.0,0.0,0.0,0.0,0.0,0.0,0.0,0.0,0.0,0.0,0.0,0.0,0.0,0.0,0.0,0.0,0.0,0.0,0.0,0.0,0.0,0.0,0.0,0.0,0.0,0.0,0.0,0.0,0.0,0.0,0.0,0.0,0.0,0.0,0.0,0.0,-2.1999,-2.2277,0.0,0.0,0.0,0.0,0.0,0.0,0.0,0.0,-2.3762,0.0,0.0,0.0,0.0,0.0,0.0,0.0,0.0,0.0,0.0,0.0,0.0,0.0,0.0,0.0,0.0,0.0,0.0,0.0,0.0,0.0,0.0,0.0,0.0,0.0,0.0,0.0,0.0,0.0,0.0,0.0,0.0,0.0,0.0,0.0,0.0,0.0,0.0,0.0,0.0,0.0,0.0,0.0,0.0,0.0,0.0,0.0,0.0,0.0,0.0,0.0,0.0,0.0,0.0,0.0,-2.637,-2.7657,-2.8936,-3.0147,-3.0011,-2.9937,-3.0015,-2.8527,-2.7062,0.0,0.0,0.0,0.0,0.0,0.0,0.0,0.0,0.0,0.0,0.0,0.0,0.0,0.0,0.0,0.0,0.0,0.0,0.0,0.0,0.0,0.0,0.0,0.0,0.0,0.0,0.0,0.0,0.0,0.0,0.0,0.0,0.0,0.0,0.0,0.0,0.0,0.0,0.0,0.0,-2.3397,-2.3755,-2.5477,0.0,0.0,0.0,0.0,0.0,0.0,-2.4054,-2.363,0.0,0.0,0.0,0.0,0.0,0.0,0.0,0.0,0.0,0.0,0.0,0.0,0.0,0.0,0.0,0.0,0.0,0.0,0.0,0.0,0.0,0.0,0.0,0.0,0.0,0.0,0.0,0.0,0.0,0.0,0.0,0.0,0.0,0.0,0.0,0.0,0.0,0.0,0.0,0.0,0.0,0.0,0.0,0.0,0.0,0.0,0.0,0.0,0.0,0.0,0.0,0.0,0.0,0.0,0.0,-2.6674,-2.8147,-2.9318,-3.0147,-3.0003,-2.9913,-2.9926,-2.8441,-2.7161,0.0,0.0,0.0,0.0,0.0,0.0,0.0,0.0,0.0,0.0,0.0,0.0,0.0,0.0,0.0,0.0,0.0,0.0,0.0,0.0,0.0,0.0,0.0,0.0,0.0,0.0,0.0,0.0,0.0,0.0,0.0,0.0,0.0,0.0,0.0,0.0,0.0,0.0,0.0,0.0,0.0,-2.4768,-2.6468,-2.4806,0.0,0.0,0.0,0.0,-2.3533,-2.3786,0.0,0.0,0.0,0.0,0.0,0.0,0.0,0.0,0.0,0.0,0.0,0.0,0.0,0.0,0.0,0.0,0.0,0.0,0.0,0.0,0.0,0.0,0.0,0.0,0.0,0.0,0.0,0.0,0.0,0.0,0.0,0.0,0.0,0.0,0.0,0.0,0.0,0.0,0.0,0.0,0.0,0.0,0.0,0.0,0.0,0.0,0.0,0.0,0.0,0.0,0.0,0.0,0.0,0.0,0.0,0.0,-2.7602,-2.8454,-2.9318,-3.0147,-3.0011,-2.9988,-3.0118,-2.7004,-2.5636,0.0,0.0,0.0,0.0,0.0,0.0,0.0,0.0,0.0,0.0,0.0,0.0,0.0,0.0,0.0,0.0,0.0,0.0,0.0,0.0,0.0,0.0,0.0,0.0,0.0,0.0,0.0,0.0,0.0,0.0,0.0,0.0,0.0,0.0,0.0,0.0,0.0,0.0,0.0,0.0,0.0,-2.3867,-2.5608,-2.4943,-2.4003,0.0,0.0,-2.609,-2.5332,-2.6498,0.0,0.0,0.0,0.0,0.0,0.0,0.0,0.0,0.0,0.0,0.0,0.0,0.0,0.0,0.0,0.0,0.0,0.0,0.0,0.0,0.0,0.0,0.0,0.0,0.0,0.0,0.0,0.0,0.0,0.0,0.0,0.0,0.0,0.0,0.0,0.0,0.0,0.0,0.0,0.0,0.0,0.0,0.0,0.0,0.0,0.0,0.0,0.0,0.0,0.0,0.0,0.0,0.0,0.0,0.0,-2.7118,-2.7816,-2.9002,-2.9822,-3.0185,-3.0121,-3.0113,-3.0185,-2.7312,-2.62,0.0,0.0,0.0,0.0,0.0,0.0,0.0,0.0,0.0,0.0,0.0,0.0,0.0,0.0,0.0,0.0,0.0,0.0,0.0,0.0,0.0,0.0,0.0,0.0,0.0,0.0,0.0,0.0,0.0,0.0,0.0,0.0,0.0,0.0,0.0,0.0,0.0,0.0,0.0,0.0,0.0,0.0,-2.574,-2.5781,0.0,0.0,0.0,-2.6184,-2.4412,0.0,0.0,0.0,0.0,0.0,0.0,0.0,0.0,0.0,0.0,0.0,0.0,0.0,0.0,0.0,0.0,0.0,0.0,0.0,0.0,0.0,0.0,0.0,0.0,0.0,0.0,0.0,0.0,0.0,0.0,0.0,0.0,0.0,0.0,0.0,0.0,0.0,0.0,0.0,0.0,0.0,0.0,0.0,0.0,0.0,0.0,0.0,0.0,0.0,0.0,0.0,0.0,0.0,0.0,0.0,0.0,0.0,-2.7853,-2.9385,-3.0204,-3.0204,-3.0204,-3.0204,-3.0166,-2.7937,0.0,0.0,0.0,0.0,0.0,0.0,0.0,0.0,0.0,0.0,0.0,0.0,0.0,0.0,0.0,0.0,0.0,0.0,0.0,0.0,0.0,0.0,0.0,0.0,0.0,0.0,0.0,-1.7935,0.0,0.0,0.0,0.0,0.0,0.0,0.0,0.0,0.0,0.0,0.0,0.0,0.0,0.0,-2.7264,-2.6185,-2.6579,-2.6832,0.0,0.0,-2.6284,-2.4622,-2.6846,-2.7704,0.0,0.0,0.0,0.0,0.0,0.0,0.0,0.0,0.0,0.0,0.0,0.0,0.0,0.0,0.0,0.0,0.0,0.0,0.0,0.0,0.0,0.0,0.0,0.0,0.0,0.0,0.0,0.0,0.0,0.0,0.0,0.0,0.0,0.0,0.0,0.0,0.0,0.0,0.0,0.0,0.0,0.0,0.0,0.0,0.0,0.0,0.0,0.0,0.0,0.0,0.0,0.0,0.0,0.0,0.0,-2.7947,-2.9423,-3.0204,-3.0204,-3.0204,-3.0204,-3.0173,-2.8523,-2.7619,0.0,0.0,0.0,0.0,0.0,0.0,0.0,0.0,0.0,0.0,0.0,0.0,0.0,0.0,0.0,0.0,0.0,0.0,0.0,0.0,0.0,0.0,0.0,0.0,0.0,0.0,0.0,0.0,0.0,0.0,0.0,0.0,0.0,0.0,0.0,0.0,0.0,0.0,0.0,0.0,0.0,-2.6125,-2.6809,-2.6961,-2.7246,0.0,0.0,-2.7172,-2.7761,-2.9386,-2.9736,-2.7155,0.0,0.0,0.0,0.0,0.0,0.0,0.0,0.0,0.0,0.0,0.0,0.0,0.0,0.0,0.0,0.0,0.0,0.0,0.0,0.0,0.0,0.0,0.0,0.0,0.0,0.0,0.0,0.0,0.0,0.0,0.0,0.0,0.0,0.0,0.0,0.0,0.0,0.0,0.0,0.0,0.0,0.0,0.0,0.0,0.0,0.0,0.0,0.0,0.0,0.0,0.0,0.0,0.0,-2.7887,-2.7922,-2.9429,-3.0204,-3.0204,-3.0204,-3.0204,-3.0185,-2.8561,-2.7453,0.0,0.0,0.0,0.0,0.0,0.0,0.0,0.0,0.0,0.0,0.0,0.0,0.0,0.0,0.0,0.0,0.0,0.0,0.0,0.0,0.0,0.0,0.0,0.0,0.0,0.0,0.0,0.0,-2.2496,-2.283,-2.2661,0.0,0.0,0.0,0.0,0.0,0.0,0.0,0.0,0.0,0.0,-2.6792,-2.7635,-2.8205,0.0,0.0,-2.8381,-2.8088,-2.6837,-2.8532,-2.8967,-2.5897,-2.5842,0.0,0.0,0.0,0.0,0.0,0.0,0.0,0.0,0.0,0.0,0.0,0.0,0.0,0.0,0.0,0.0,0.0,0.0,0.0,0.0,0.0,0.0,0.0,0.0,0.0,0.0,0.0,0.0,0.0,0.0,0.0,0.0,0.0,0.0,0.0,0.0,0.0,0.0,0.0,0.0,0.0,0.0,0.0,0.0,0.0,0.0,0.0,0.0,0.0,0.0,0.0,0.0,-2.7893,-2.7893,-2.941,-3.0204,-3.0204,-3.0204,-3.0204,-3.0185,-2.9058,-2.8045,0.0,0.0,0.0,0.0,0.0,0.0,0.0,0.0,0.0,0.0,0.0,0.0,0.0,0.0,0.0,0.0,0.0,0.0,0.0,0.0,0.0,0.0,0.0,0.0,0.0,0.0,0.0,0.0,-2.3696,-2.3774,-2.317,0.0,0.0,0.0,0.0,0.0,0.0,0.0,0.0,0.0,0.0,-2.7591,-2.8136,-2.8535,-2.8634,-2.826,-2.8069,-2.7606,-2.6628,-2.7759,-2.7938,-2.5564,0.0,0.0,0.0,0.0,0.0,0.0,0.0,0.0,0.0,0.0,0.0,0.0,0.0,0.0,0.0,0.0,0.0,0.0,0.0,0.0,0.0,0.0,0.0,0.0,0.0,0.0,0.0,0.0,0.0,0.0,-2.3116,0.0,0.0,0.0,0.0,0.0,0.0,0.0,0.0,0.0,0.0,0.0,0.0,0.0,0.0,0.0,0.0,0.0,0.0,0.0,0.0,0.0,0.0,-2.7875,-2.7913,-2.9397,-3.0204,-3.0204,-3.0204,-3.0204,-3.0204,-3.0166,-2.9726,-2.8841,0.0,0.0,0.0,0.0,0.0,0.0,0.0,0.0,0.0,0.0,0.0,0.0,0.0,0.0,0.0,0.0,0.0,0.0,0.0,0.0,0.0,0.0,0.0,0.0,0.0,0.0,-2.1003,-2.2174,-2.317,0.0,0.0,0.0,0.0,0.0,0.0,0.0,0.0,0.0,0.0,-2.6636,-2.8268,-2.8299,-2.7599,-2.7422,-2.8172,-2.6227,-2.5455,-2.7858,-2.7613,-2.7043,0.0,0.0,0.0,0.0,0.0,0.0,0.0,0.0,0.0,0.0,0.0,0.0,0.0,0.0,0.0,0.0,0.0,0.0,0.0,0.0,0.0,0.0,0.0,0.0,0.0,0.0,0.0,-2.3657,-2.3437,0.0,0.0,0.0,0.0,0.0,0.0,0.0,0.0,0.0,0.0,0.0,-2.6823,-2.6275,0.0,0.0,0.0,0.0,0.0,0.0,0.0,0.0,0.0,0.0,0.0,0.0,-2.7031,-2.7142,-2.9123,-3.0204,-3.0204,-3.0204,-3.0204,-3.0204,-3.0204,-2.9784,-2.893,0.0,0.0,0.0,0.0,0.0,0.0,0.0,0.0,0.0,0.0,0.0,0.0,0.0,0.0,0.0,0.0,0.0,0.0,0.0,0.0,0.0,0.0,0.0,0.0,0.0,-2.3115,0.0,0.0,0.0,0.0,0.0,0.0,0.0,0.0,0.0,0.0,0.0,-2.3866,-2.587,-2.5887,-2.6542,-2.8768,-2.8365,-2.8487,0.0,0.0,0.0,0.0,0.0,0.0,0.0,0.0,0.0,0.0,0.0,0.0,0.0,0.0,-2.8377,-2.6107,-2.6637,-2.7344,-2.7053,0.0,0.0,0.0,0.0,0.0,0.0,0.0,0.0,0.0,0.0,0.0,0.0,0.0,0.0,-2.4144,0.0,-2.4557,0.0,0.0,0.0,0.0,0.0,0.0,0.0,0.0,-2.6301,-2.7034,-2.7682,-2.7128,-2.7128,0.0,-2.7128,-2.6291,0.0,0.0,0.0,0.0,0.0,0.0,0.0,0.0,-2.6867,-2.6689,-2.8964,-3.0204,-3.0204,-3.0204,-3.0204,-3.0204,-3.0204,-2.9937,-2.9357,-2.8001,-2.7223,0.0,0.0,0.0,0.0,0.0,0.0,0.0,0.0,0.0,0.0,0.0,0.0,0.0,0.0,0.0,0.0,0.0,0.0,0.0,0.0,0.0,0.0,0.0,-2.3967,0.0,0.0,0.0,0.0,0.0,0.0,0.0,0.0,0.0,-2.4433,-2.4449,-2.5088,-2.6781,-2.6783,-2.7228,-2.885,0.0,0.0,0.0,0.0,0.0,0.0,0.0,-2.8265,-2.7192,-2.8232,-2.9407,-2.9977,-3.0482,-3.0792,-3.0792,0.0,0.0,-2.8007,-2.8402,-2.9167,-2.9167,-2.9167,-2.9317,-2.9795,-2.9888,-3.0054,0.0,0.0,0.0,0.0,0.0,0.0,0.0,0.0,-2.5099,-2.4181,0.0,-2.5254,0.0,0.0,0.0,0.0,0.0,-2.5392,0.0,0.0,-2.8503,-2.899,-2.7956,-2.7912,-2.7873,-2.7759,-2.6351,-2.6389,-2.7822,-2.7933,0.0,0.0,0.0,0.0,0.0,0.0,-2.7412,-2.6773,-2.9104,-3.03,-3.03,-3.03,-3.028,-3.0268,-3.0268,-3.0249,-3.0166,-2.9357,-2.8911,-2.8853,-2.7377,0.0,0.0,0.0,0.0,0.0,0.0,0.0,0.0,0.0,0.0,0.0,0.0,0.0,0.0,0.0,0.0,0.0,0.0,0.0,0.0,-2.3797,0.0,0.0,0.0,0.0,0.0,0.0,0.0,0.0,0.0,0.0,-2.4799,-2.5887,-2.6937,-2.6994,0.0,0.0,0.0,0.0,-2.9042,-2.757,-2.5852,-2.517,-2.6088,-2.6895,-2.7936,-2.9439,0.0,0.0,-3.3461,-3.2137,-3.1222,-3.1105,-3.2586,-3.3012,-3.139,-3.1076,-3.1037,-3.1037,-3.1076,-3.0998,-3.0998,-3.1287,-3.1267,-2.531,0.0,0.0,0.0,0.0,-2.3501,-2.44,-2.5933,-2.6153,-2.586,-2.5273,-2.619,0.0,0.0,0.0,0.0,0.0,0.0,-2.6514,-2.7929,-2.9162,-3.0281,-3.1267,-3.1286,-3.1267,-3.1248,-3.077,-3.0789,-3.1248,-3.1303,-3.0005,-2.7483,0.0,0.0,0.0,0.0,-2.8272,-2.9257,-3.1042,-3.1973,-3.1973,-3.1973,-3.1668,-3.1083,-3.1064,-3.0777,-3.0223,-2.9956,-2.9529,-2.8911,-2.8459,0.0,0.0,0.0,0.0,0.0,0.0,0.0,0.0,0.0,0.0,0.0,0.0,0.0,0.0,0.0,0.0,0.0,0.0,0.0,-2.3824,-2.515,-2.5751,0.0,0.0,0.0,0.0,0.0,0.0,0.0,0.0,0.0,-2.8058,-2.6317,-2.5612,0.0,0.0,-2.6521,-2.7259,-2.8592,-3.0017,-3.1377,-3.1663,0.0,-3.3688,-3.3629,-3.3378,-3.3241,-3.4358,-3.5263,-3.5246,-3.5854,-3.6363,-3.6324,-3.6728,-3.6858,-3.637,-3.5289,-3.4564,-3.4525,-3.4525,-3.4501,-3.4476,-3.4909,-3.5325,-2.8627,-2.6953,-2.5664,-2.5481,-2.6059,-2.6078,-2.6987,-2.8521,-2.8503,-2.8143,-2.7611,-2.8227,-2.7273,-2.5144,-2.5194,0.0,0.0,0.0,-2.8202,-3.0078,-3.0557,-3.1452,-3.2603,-3.2684,-3.268,-3.268,-3.268,-3.2871,-3.3215,-3.2527,-3.157,-3.0216,0.0,0.0,-2.7582,-2.8688,-2.9596,-3.0285,-3.1862,-3.268,-3.268,-3.268,-3.2451,-3.1954,-3.1916,-3.1668,-3.1217,-3.1197,-3.077,-2.993,-2.9586,-2.8803,0.0,0.0,0.0,0.0,0.0,0.0,0.0,0.0,0.0,0.0,0.0,-2.3687,-2.3171,0.0,0.0,0.0,-2.4782,-2.5149,-2.5554,-2.5956,0.0,0.0,0.0,0.0,0.0,0.0,0.0,-2.7826,-2.8772,-2.9762,-3.039,-2.8145,-2.7188,-2.9258,-2.8922,-2.886,-2.9891,0.0,-3.2506,-3.3758,-3.406,-3.4534,-3.5523,-3.5877,-3.6017,-3.6192,-3.6627,-3.6985,-3.7048,-3.7926,-3.857,-3.8567,-3.852,-3.851,-3.8506,-3.7656,-3.6989,-3.6996,-3.6998,-3.6976,-3.695,-3.7344,-3.77,-3.1801,-3.1531,-2.8562,-2.8009,-2.9099,-2.9087,-2.9965,-3.1378,-3.1384,-3.0577,-2.9335,-3.0742,-2.9769,-2.6998,-2.7058,0.0,-2.9573,-2.9668,-3.0704,-3.2496,-3.2571,-3.2736,-3.301,-3.3088,-3.31,-3.3119,-3.3081,-3.3528,-3.4224,-3.2791,-3.2794,-3.4217,-3.2718,-3.112,-2.9653,-3.1056,-3.1434,-3.0765,-3.2267,-3.2967,-3.289,-3.2909,-3.2852,-3.2814,-3.2795,-3.2776,-3.2699,-3.268,-3.2336,-3.1534,-3.072,-2.9898,-2.8994,0.0,0.0,0.0,0.0,0.0,0.0,0.0,0.0,0.0,0.0,0.0,0.0,0.0,0.0,0.0,-2.6159,0.0,-2.786,-2.6659,0.0,0.0,0.0,-2.7931,-2.953,-3.0476,-3.0957,-3.0809,0.0,0.0,-3.2093,-3.0983,-3.0985,-3.3571,-3.4234,-3.4523,-3.4581,-3.5284,-3.581,-3.5038,-3.4491,-3.4101,-3.4809,-3.582,-3.7145,-3.8399,-3.8713,-3.8738,-3.8785,-3.8825,-3.8782,-3.8834,-3.8727,-3.8755,-3.8741,-3.875,-3.8725,-3.8727,-3.8534,-3.8456,-3.8395,-3.8495,-3.8612,-3.5128,-3.5073,-3.4289,-3.2766,-3.0821,-3.0815,-3.1035,-3.1397,-3.1403,-3.1195,-3.0883,-3.125,-3.0974,-3.0258,-3.0427,-3.0761,-3.1195,-3.1955,-3.2987,-3.4205,-3.4848,-3.56,-3.6469,-3.6497,-3.6504,-3.6509,-3.6509,-3.664,-3.6865,-3.6501,-3.6522,-3.6945,-3.6554,-3.553,-3.3949,-3.4224,-3.4615,-3.5082,-3.5417,-3.5278,-3.4609,-3.4609,-3.4331,-3.37,-3.37,-3.3375,-3.2737,-3.268,-3.2596,-3.2394,-3.1572,-3.0739,-2.9917,-2.8141,0.0,0.0,0.0,0.0,0.0,0.0,0.0,0.0,0.0,-2.5535,-2.4948,0.0,-2.5258,0.0,-2.7549,-2.8902,-2.9885,-2.965,0.0,0.0,-2.9985,-3.0055,-3.0488,-3.1861,-3.2276,-3.0946,-3.2358,-3.3612,-3.4044,-3.4303,-3.5401,-3.7824,-3.5059,-3.2962,-3.3628,-3.5625,-3.6914,-3.6852,-3.811,-3.9244,-3.9173,-3.9583,-3.9979,-4.0409,-4.0496,-4.0481,-4.0504,-4.0524,-4.0483,-4.0481,-4.0473,-4.0485,-4.0442,-4.0472,-4.046,-4.0398,-3.9452,-3.8508,-3.8531,-3.9026,-3.9502,-3.6285,-3.6285,-3.6285,-3.5238,-3.3568,-3.3568,-3.3568,-3.3568,-3.3587,-3.3582,-3.3587,-3.3582,-3.3587,-3.36,-3.37,-3.3833,-3.3997,-3.4561,-3.5213,-3.5975,-3.6441,-3.7013,-3.7605,-3.7689,-3.7688,-3.7696,-3.7684,-3.7738,-3.78,-3.7841,-3.8078,-3.8507,-3.8544,-3.8296,-3.7756,-3.6899,-3.6696,-3.7175,-3.6766,-3.6296,-3.5793,-3.542,-3.5171,-3.5114,-3.5114,-3.5057,-3.4915,-3.459,-3.4208,-3.3826,-3.3012,-3.2172,-3.1331,-2.9357,-2.7854,0.0,0.0,0.0,0.0,0.0,0.0,0.0,0.0,0.0,0.0,0.0,-2.7292,-2.8161,-2.949,-3.039,-3.0602,-3.0332,-3.0484,-3.1249,-3.1709,-3.2267,-3.3019,-3.4622,-3.5309,-3.4394,-3.5527,-3.6542,-3.6916,-3.7054,-3.805,-4.0588,-3.8143,-3.6423,-3.7303,-3.8709,-3.9685,-4.0092,-4.131,-4.2258,-4.2261,-4.2267,-4.2253,-4.226,-4.2243,-4.2147,-4.1756,-4.1678,-4.1559,-4.1199,-4.1115,-4.1106,-4.1109,-4.11,-4.1111,-4.0989,-4.0357,-3.9742,-3.9672,-4.0048,-4.0385,-3.6762,-3.6762,-3.6872,-3.6927,-3.6909,-3.6798,-3.6597,-3.6285,-3.6285,-3.6285,-3.6285,-3.6285,-3.6285,-3.6317,-3.6342,-3.6504,-3.6802,-3.6975,-3.7231,-3.7561,-3.7725,-3.7802,-3.7831,-3.7938,-3.8004,-3.8013,-3.8029,-3.8063,-3.8134,-3.8177,-3.8654,-3.9434,-3.9541,-3.9953,-4.0597,-3.908,-3.8189,-3.8051,-3.7206,-3.6712,-3.6653,-3.5916,-3.5878,-3.6615,-3.6653,-3.6978,-3.7636,-3.7016,-3.6309,-3.5553,-3.4751,-3.3929,-3.3024,-3.0706,-2.9006,0.0,-2.6695,0.0,0.0,0.0,0.0,0.0,0.0,0.0,0.0,-2.9272,-2.9641,-3.0466,-3.1312,-3.1603,-3.1092,-3.0499,-3.0796,-3.2333,-3.3333,-3.4506,-3.5989,-3.7544,-3.852,-3.8567,-3.8633,-3.8957,-3.9529,-3.9291,-3.9928,-4.1807,-4.1655,-4.1367,-4.2403,-4.2438,-4.2611,-4.3613,-4.371,-4.3491,-4.3531,-4.3612,-4.3554,-4.3511,-4.3333,-4.3273,-4.2475,-4.2357,-4.2185,-4.1639,-4.1576,-4.1511,-4.1437,-4.1486,-4.1484,-4.154,-4.1481,-4.134,-4.1048,-4.0983,-4.1114,-3.9237,-3.9258,-3.9937,-4.0178,-4.0123,-3.9496,-3.8102,-3.6303,-3.6285,-3.6285,-3.6285,-3.6285,-3.6285,-3.6313,-3.6584,-3.6746,-3.687,-3.7875,-3.8399,-3.8462,-3.9126,-3.9469,-3.9521,-3.9561,-3.9612,-3.9719,-3.971,-3.9775,-3.99,-3.9939,-4.0065,-4.0349,-4.041,-4.0559,-4.0744,0.0,0.0,0.0,-3.8041,-3.7553,-3.7483,-3.7311,-3.7311,-3.7464,-3.7464,0.0,-3.7674,-3.754,-3.7406,-3.7215,-3.647,0.0,0.0,0.0,0.0,0.0,0.0,0.0,0.0,0.0,0.0,0.0,-2.9851,-2.9775,-3.013,-3.0211,-3.0354,-3.0652,-3.1407,-3.2435,-3.3755,-3.3792,-3.4135,-3.5119,-3.5988,-3.6618,-3.6987,-3.7901,-3.8506,-3.8528,-3.9119,-3.9628,-3.9923,-4.0838,-4.1814,-4.2407,-4.2893,-4.3556,-4.4364,-4.3894,-4.3544,-4.3683,-4.3839,-4.375,-4.3709,-4.3768,-4.3633,-4.2886,-4.2628,-4.2648,-4.2549,-4.2471,-4.2711,-4.2968,-4.3221,-4.3158,-4.3168,-4.3216,-4.3073,-4.3109,-4.3136,-4.279,-4.142,-4.1125,-4.1103,-4.0487,0.0,-4.0912,-4.1113,0.0,-4.0671,-3.979,-3.8634,-3.7826,-3.7477,-3.7496,-3.7477,-3.7477,-3.7529,-3.8079,-3.8469,-3.8732,-3.9758,-4.0347,-4.0536,-4.0953,-4.1154,-4.1187,-4.1209,-4.1273,-4.1376,-4.1425,-4.1514,-4.1642,-4.1673,-4.1743,-4.188,-4.195,-4.1996,-4.2008,-4.1583,-4.0859,-3.99,-3.8944,-3.8429,-3.8386,-3.7959,-3.7903,-3.8323,0.0,0.0,0.0,0.0,0.0,0.0,0.0,0.0,0.0,0.0,0.0,-3.2726,-3.1885,-3.1446,-3.1439,-3.1828,-3.2237,-3.263,-3.2872,-3.2631,-3.1845,-3.2637,-3.32,-3.3273,-3.364,-3.4252,-3.5176,-3.5671,-3.6109,-3.659,-3.7722,-3.8487,-3.8575,-3.9249,-3.9947,-4.0381,-4.0812,-4.1226,-4.1679,-4.242,-4.3205,-4.3622,-4.405,-4.4655,-4.5361,-4.4894,-4.4465,-4.4896,-4.4994,-4.4966,-4.4961,-4.4961,-4.4843,-4.4408,-4.4286,-4.4092,-4.3691,-4.3628,-4.3683,-4.3747,-4.3672,-4.3651,-4.3683,-4.3704,-4.3695,-4.3663,-4.3685,-4.3478,-4.2546,-4.2388,-4.2383,-4.1313,-4.1315,-4.1479,-4.1535,-4.1517,-4.1387,-4.1224,-4.1003,0.0,0.0,0.0,-3.9114,-3.9129,-3.9184,-3.9856,-4.0359,-4.0789,-4.1511,-4.2025,-4.2335,-4.2389,-4.2393,-4.2393,-4.2439,-4.2506,-4.2601,-4.2663,-4.2765,-4.2917,-4.2977,-4.3052,-4.3158,-4.3252,-4.3279,-4.3247,-4.2562,-4.1822,-4.105,-3.9925,-3.9325,-3.9282,-3.856,-3.8514,-3.9202,-3.9221,-3.9584,-4.0263,-3.9623,-3.9231,-3.9221,-3.8534,-3.8075,-3.7903,-3.6623,-3.5515,-3.4702,-3.3968,-3.3578,-3.3597,-3.4254,-3.4958,-3.5632,-3.5868,-3.5324,-3.3755,-3.5025,-3.5967,-3.6125,-3.6123,-3.6164,-3.634,-3.6974,-3.7432,-3.7449,-3.8853,-3.9815,-4.0045,-4.0795,-4.1605,-4.2451,-4.2588,-4.2878,-4.3474,-4.3786,-4.4161,-4.4813,-4.5067,-4.5459,-4.6027,-4.5675,-4.5441,-4.5987,-4.6048,-4.6199,-4.6211,-4.6152,-4.6225,-4.574,-4.5794,-4.5696,-4.5121,-4.49,-4.4687,-4.4366,-4.4099,-4.4158,-4.4167,-4.4258,-4.4133,-4.4131,-4.4133,-4.4139,-4.4148,-4.4148,-4.4029,-4.2121,-4.2176,-4.2873,-4.3166,-4.3112,-4.2433,-4.1754,-4.1095,-4.0875,-4.0747,-4.0781,-4.0765,-4.0765,-4.0781,-4.1077,-4.1233,-4.1323,-4.1817,-4.209,0.0,-4.233,-4.2393,-4.2393,-4.2412,-4.2481,-4.2591,-4.2601,-4.2697,-4.2879,-4.2981,-4.303,-4.3119,-4.3184,-4.3221,-4.3211,-4.3023,-4.288,-4.273,-4.1069,-4.0198,-4.0116,-3.9994,-3.9995,-4.0119,-4.011,-4.0167,-4.0282,-4.0167,-4.011,-4.011,-3.9995,-3.9603,-3.8877,-3.8572,-3.8075,-3.7254,-3.7043,-3.6986,-3.6967,-3.712,-3.7283,-3.7479,-3.7558,-3.6935,-3.551,-3.5697,-3.6201,-3.6921,-3.7019,-3.7336,-3.8007,-3.8227,-3.8329,-3.8419,-3.9221,-4.0082,-4.0869,-4.1703,-4.2561,-4.34,-4.3526,-4.355,-4.3864,-4.4411,-4.4844,-4.5104,-4.5592,-4.6134,-4.622,-4.6204,-4.6163,-4.6262,-4.6302,-4.6293,-4.6288,-4.6249,-4.5988,-4.5193,-4.5203,-4.5247,-4.5059,-4.5006,-4.5141,-4.5698,-4.5664,-4.5709,-4.574,-4.5858,-4.5696,-4.5647,-4.5654,-4.5702,-4.5649,-4.5721,-4.5384,-4.2947,-4.2983,-4.3349,-4.3479,-4.3478,-4.3094,-4.2745,-4.2415,-4.2415,-4.1901,-4.1132,-4.1113,-4.1113,-4.1148,-4.1648,-4.202,-4.2292,-4.2941,-4.3386,-4.3624,-4.3746,-4.3824,-4.3805,-4.3859,-4.3908,-4.3996,-4.4015,-4.4072,-4.424,-4.4288,-4.4354,-4.4404,-4.4429,-4.4243,-4.3832,-4.3737,-4.3472,-4.303,-4.1737,-4.1033,-4.1015,-4.0558,-4.032,-4.032,-4.032,-4.032,-4.032,-4.032,-4.032,-4.032,-4.032,-4.011,-3.9718,-3.925,-3.882,-3.8419,-3.7941,-3.7693,-3.7693,-3.7693,-3.7728,-3.7803,-3.7871,-3.7639,-3.6953,-3.7074,-3.7403,-3.7851,-3.7915,-3.8054,-3.8489,-3.8917,-3.9374,-3.9865,-4.0679,-4.1542,-4.2338,-4.2822,-4.3461,-4.4224,-4.4382,-4.4541,-4.5055,-4.5464,-4.5703,-4.5751,-4.6101,-4.6296,-4.63,-4.6302,-4.6302,-4.6302,-4.6302,-4.6291,-4.6305,-4.6267,-4.6055,-4.5651,-4.5617,-4.5618,-4.5604,-4.5599,-4.576,-4.609,-4.6209,-4.6204,-4.6215,-4.6196,-4.6206,-4.6203,-4.6203,-4.6213,-4.6206,-4.6248,-4.5993,-4.3479,-4.3479,-4.3479,-4.3479,-4.3479,-4.3479,-4.3479,-4.3479,-4.3479,-4.2817,-4.177,-4.1709,-4.1726,-4.1781,-4.2435,-4.2946,-4.3366,-4.398,-4.4522,-4.4858,-4.4967,-4.5014,-4.5014,-4.508,-4.5136,-4.5181,-4.5181,-4.5237,-4.5351,-4.537,-4.5419,-4.5476,-4.5485,-4.5168,-4.4561,-4.4478,-4.4153,-4.351,-4.2622,-4.1972,-4.158,-4.0921,-4.0473,-4.032,-4.032,-4.032,-4.032,-4.032,-4.032,-4.032,-4.032,-4.032,-4.0282,-3.9661,-3.9298,-3.924,-3.8667,-3.8285,-3.8285,-3.8285,-3.8285,-3.8285,-3.8386,-3.8454,-3.8507,-3.8851,-3.8942,-3.8808,-3.878,-3.8928,-3.9454,-3.998,-4.071,-4.1571,-4.2251,-4.2961,-4.3786,-4.3955,-4.43,-4.5087,-4.5241,-4.5514,-4.6089,-4.6288,-4.6253,-4.6241,-4.6302,-4.6302,-4.6302,-4.6302,-4.6302,-4.6302,-4.6302,-4.6287,-4.6301,-4.63,-4.6264,-4.6229,-4.6166,-4.6119,-4.6129,-4.6173,-4.6205,-4.6211,-4.6199,-4.6206,-4.6206,-4.6209,-4.6199,-4.6199,-4.6203,-4.6213,-4.6209,-4.6226,-4.6284,-4.3479,-4.3479,-4.3479,-4.3479,-4.3479,-4.3496,-4.3515,-4.3496,-4.3479,-4.3475,-4.3304,-4.3562,-4.359,-4.3675,-4.3896,-4.4098,-4.421,-4.4503,-4.4762,-4.4896,-4.5022,-4.5103,-4.5179,-4.5141,-4.5136,-4.5238,-4.5224,-4.5344,-4.5451,-4.5375,-4.5369,-4.54,-4.541,-4.5352,-4.5295,-4.5275,-4.5227,-4.5169,-4.4257,-4.3062,-4.1695,-4.1466,-4.1055,-4.0339,-4.032,-4.032,-4.032,-4.032,-4.032,-4.032,-4.032,-4.032,-4.0301,-4.0205,-4.0167,-4.0148,-4.0072,-4.0053,-4.0034,-4.0053,-3.9995,-4.0053,-4.0042,-4.0104,-4.0273,-4.0916,-4.0822,-3.9942,-3.9664,-4.04,-4.1711,-4.1984,-4.2357,-4.3143,-4.3409,-4.383,-4.4599,-4.4799,-4.5136,-4.5975,-4.5987,-4.6206,-4.6247,-4.6294,-4.63,-4.63,-4.6302,-4.6302,-4.6302,-4.6302,-4.6302,-4.6302,-4.6302,-4.6302,-4.6288,-4.6301,-4.6304,-4.6268,-4.6229,-4.6207,-4.6208,-4.6211,-4.6205,-4.6203,-4.6208,-4.6209,-4.6196,-4.6199,-4.6199,-4.6203,-4.6213,-4.6206,-4.6201,-4.6209,-4.6236,-4.3479,-4.3479,-4.3479,-4.3479,-4.3515,-4.3549,-4.3548,-4.3548,-4.3652,-4.3686,-4.3826,-4.4427,-4.4466,-4.4073,-4.474,-4.5167,-4.5351,-4.594,-4.6316,-4.646,-4.658,-4.6633,-4.6645,-4.6679,-4.6713,-4.6743,-4.6702,-4.6724,-4.668,-4.6252,-4.5787,-4.5378,-4.533,-4.535,-4.535,-4.5329,-4.5338,-4.5338,-4.4963,-4.4199,-4.31,-4.2517,-4.1877,-4.1113,-4.1017,-4.0769,-4.0358,-4.032,-4.032,-4.032,-4.032,-4.032,-4.032,-4.032,-4.032,-4.032,-4.032,-4.032,-4.032,-4.032,-4.052,-4.0979,-4.0998,-4.1246,-4.1807,-4.2241,-4.221,-4.1775,-4.1795,-4.2284,-4.2948,-4.3056,-4.341,-4.4182,-4.437,-4.471,-4.5606,-4.5233,-4.5258,-4.6071,-4.5818,-4.5781,-4.6156,-4.6298,-4.63,-4.6302,-4.6302,-4.6302,-4.6302,-4.6302,-4.6302,-4.6302,-4.6302,-4.6302,-4.6302,-4.6288,-4.6294,-4.6294,-4.6245,-4.621,-4.6208,-4.6202,-4.6212,-4.6209,-4.6211,-4.62,-4.6196,-4.6203,-4.6199,-4.6209,-4.6206,-4.6201,-4.6206,-4.6233,-4.6279,-4.3479,-4.3479,-4.3479,-4.3479,-4.3496,-4.3565,-4.3617,-4.3671,-4.3976,-4.4136,-4.4276,-4.5207,-4.532,-4.4972,-4.5739,-4.6267,-4.6537,-4.7119,-4.7491,-4.7655,-4.769,-4.772,-4.7732,-4.7766,-4.7788,-4.7788,-4.7716,-4.7713,-4.7663,-4.7132,-4.6495,-4.602,-4.5734,-4.5611,-4.5602,-4.5439,-4.5286,-4.5297,-4.5277,-4.4991,-4.4341,-4.3787,-4.2966,-4.1972,-4.1858,-4.1571,-4.1008,-4.0998,-4.0989,-4.0989,-4.0989,-4.0989,-4.0989,-4.0979,-4.0979,-4.0989,-4.0998,-4.0998,-4.0979,-4.0998,-4.1227,-4.1762,-4.1867,-4.2125,-4.2699,-4.3091,-4.3297,-4.3344,-4.3735,-4.3968,-4.3884,-4.3899,-4.4288,-4.5098,-4.5072,-4.5281,-4.6036,-4.5472,-4.5284,-4.606,-4.5843,-4.5572,-4.6122,-4.6302,-4.6302,-4.6302,-4.6302,-4.6302,-4.6302,-4.6302,-4.6302,-4.6302,-4.6302,-4.6302,-4.6302,-4.6303,-4.6296,-4.6296,-4.6272,-4.6238,-4.623,-4.6222,-4.6212,-4.6225,-4.6212,-4.6209,-4.6209,-4.6203,-4.6206,-4.6206,-4.6198,-4.6206,-4.6233,-4.6279,-4.6303,-4.3479,-4.3479,-4.3515,-4.3534,-4.3515,-4.3638,-4.3672,-4.3838,-4.4566,-4.4999,-4.5156,-4.6025,-4.6435,-4.6492,-4.701,-4.7365,-4.7593,-4.775,-4.7861,-4.793,-4.7903,-4.7845,-4.7788,-4.7788,-4.7845,-4.8017,-4.7945,-4.776,-4.7604,-4.7565,-4.7574,-4.7518,-4.6805,-4.6457,-4.6298,-4.5655,-4.5243,-4.5316,-4.5277,-4.5258,-4.5201,-4.5154,-4.4303,-4.2985,-4.2756,-4.2679,-4.2603,-4.266,-4.2641,-4.266,-4.2584,-4.2622,-4.2641,-4.2603,-4.2565,-4.2584,-4.2603,-4.2622,-4.2584,-4.2545,-4.2622,-4.2717,-4.2737,-4.2794,-4.3061,-4.3616,-4.403,-4.4222,-4.4833,-4.5082,-4.4711,-4.4637,-4.5035,-4.5834,-4.5371,-4.542,-4.6108,-4.5487,-4.5462,-4.6093,-4.6195,-4.6142,-4.628,-4.6302,-4.6302,-4.6302,-4.6302,-4.6302,-4.6302,-4.6302,-4.6302,-4.6302,-4.6302,-4.6302,-4.6302,-4.6302,-4.63,-4.6298,-4.6296,-4.63,-4.6292,-4.6284,-4.6272,-4.6242,-4.6209,-4.6196,-4.6206,-4.6206,-4.6196,-4.6209,-4.6215,-4.6223,-4.6258,-4.6282,-4.6306,-4.3479,-4.3534,-4.4048,-4.4268,-4.4359,-4.4958,-4.5251,-4.5253,-4.5648,-4.583,-4.5961,-4.6714,-4.7183,-4.7434,-4.8311,-4.8545,-4.8353,-4.902,-4.9381,-4.9404,-4.9404,-4.9404,-4.9404,-4.9404,-4.9404,-4.9392,-4.9358,-4.9048,-4.8548,-4.8505,-4.8231,-4.78,-4.7479,-4.7089,-4.6547,-4.6192,-4.581,-4.5335,-4.5277,-4.5277,-4.5277,-4.5277,-4.4972,-4.4418,-4.3864,-4.3319,-4.2794,-4.2794,-4.2794,-4.2794,-4.2794,-4.2794,-4.2794,-4.2794,-4.2794,-4.2794,-4.2794,-4.2794,-4.2794,-4.2794,-4.3042,-4.351,-4.3567,-4.3806,-4.4303,-4.4666,-4.486,-4.4958,-4.515,-4.5263,-4.5283,-4.5298,-4.5522,-4.5901,-4.5793,-4.5694,-4.5917,-4.5484,-4.5279,-4.6016,-4.6264,-4.6292,-4.6298,-4.6302,-4.6302,-4.6302,-4.6302,-4.6321,-4.6302,-4.6302,-4.6358,-4.6321,-4.6302,-4.6302,-4.6302,-4.6302,-4.63,-4.6292,-4.629,-4.6306,-4.6299,-4.6357,-4.6367,-4.6604,-4.6515,-4.6521,-4.6628,-4.6586,-4.6518,-4.6342,-4.6329,-4.6404,-4.6301,-4.6288,-4.6292,-4.403,-4.4342,-4.4856,-4.5076,-4.5185,-4.586,-4.6117,-4.6137,-4.6498,-4.6645,-4.6759,-4.7442,-4.788,-4.8161,-4.8992,-4.9231,-4.8988,-4.986,-5.0302,-5.0302,-5.0302,-5.0302,-5.0302,-5.0302,-5.0302,-5.0271,-5.0278,-4.9961,-4.948,-4.9399,-4.9105,-4.8606,-4.8338,-4.7911,-4.736,-4.6803,-4.6192,-4.5755,-4.5441,-4.5277,-4.5277,-4.5277,-4.5277,-4.5201,-4.4723,-4.4188,-4.3634,-4.3596,-4.3596,-4.3596,-4.3615,-4.3615,-4.3615,-4.3615,-4.3596,-4.3596,-4.3615,-4.3596,-4.3615,-4.3596,-4.3864,-4.436,-4.4427,-4.4723,-4.5239,-4.5277,-4.5277,-4.5277,-4.5288,-4.5341,-4.5438,-4.5516,-4.5657,-4.5814,-4.5703,-4.576,-4.6033,-4.54,-4.5384,-4.5989,-4.6233,-4.6264,-4.6292,-4.6294,-4.6298,-4.63,-4.6302,-4.6378,-4.6651,-4.6729,-4.6866,-4.7061,-4.7217,-4.7254,-4.7329,-4.7424,-4.6747,-4.6585,-4.6544,-4.6477,-4.6648,-4.6645,-4.6743,-4.6943,-4.7036,-4.7045,-4.7033,-4.7011,-4.6891,-4.6693,-4.6705,-4.6816,-4.6596,-4.6294,-4.6366,-4.5168,-4.5736,-4.5883,-4.592,-4.5938,-4.623,-4.6211,-4.6413,-4.7093,-4.7387,-4.748,-4.8199,-4.8476,-4.8658,-4.9001,-4.9259,-4.9518,-5.0044,-5.0302,-5.0302,-5.0302,-5.0302,-5.0302,-5.0302,-5.0302,-5.029,-5.0243,-5.0163,-5.005,-5.0061,-5.0047,-4.9952,-4.9315,-4.8949,-4.8995,-4.7518,-4.6636,-4.6413,-4.5889,-4.5488,-4.5316,-4.5507,-4.5545,-4.5488,-4.5373,-4.5277,-4.5231,-4.5182,-4.5078,-4.5125,-4.5125,-4.5239,-4.5086,-4.5086,-4.5182,-4.5086,-4.5192,-4.5231,-4.5182,-4.5116,-4.5029,-4.5144,-4.525,-4.5182,-4.5258,-4.5277,-4.5277,-4.5277,-4.5277,-4.5298,-4.5298,-4.5339,-4.5438,-4.5602,-4.5304,-4.5326,-4.5682,-4.5395,-4.5256,-4.6011,-4.6211,-4.6233,-4.6282,-4.6288,-4.6331,-4.6454,-4.6475,-4.6768,-4.7412,-4.7586,-4.7938,-4.8408,-4.8386,-4.8168,-4.8474,-4.8662,-4.7715,-4.6958,-4.6897,-4.6874,-4.7379,-4.7574,-4.773,-4.7906,-4.8001,-4.8011,-4.7972,-4.7947,-4.7866,-4.769,-4.7569,-4.7382,-4.7214,-4.7004,-4.6596,-4.5681,-4.5957,-4.6507,-4.6727,-4.6819,-4.7445,-4.7703,-4.7647,-4.8034,-4.8108,-4.8089,-4.8384,-4.8587,-4.8817,-4.9185,-4.9476,-4.9754,-5.012,-5.0302,-5.029,-5.0302,-5.0302,-5.0302,-5.0302,-5.0302,-5.0302,-5.0278,-5.0255,-5.0243,-5.0255,-5.0278,-5.0202,-5.0011,-4.9603,-4.9148,-4.8552,-4.8036,-4.7406,-4.7169,-4.7035,-4.7035,-4.7016,-4.6986,-4.6959,-4.6462,-4.6137,-4.6099,-4.5602,-4.5297,-4.5297,-4.5277,-4.5277,-4.5277,-4.5277,-4.5277,-4.5277,-4.5277,-4.5277,-4.5277,-4.5277,-4.5277,-4.5277,-4.5277,-4.5277,-4.5277,-4.5277,-4.5277,-4.5277,-4.5277,-4.5277,-4.5277,-4.5277,-4.5381,-4.5539,-4.545,-4.5503,-4.5896,-4.5857,-4.5947,-4.618,-4.626,-4.6284,-4.6312,-4.6335,-4.6667,-4.7118,-4.7198,-4.7508,-4.8193,-4.8426,-4.8447,-4.8779,-4.8792,-4.9042,-4.9213,-4.9323,-4.8816,-4.8138,-4.7884,-4.775,-4.8179,-4.8476,-4.8652,-4.8905,-4.8981,-4.9011,-4.8976,-4.8928,-4.8866,-4.8635,-4.8432,-4.8259,-4.8081,-4.7777,-4.7389,-4.6526,-4.6838,-4.7333,-4.7535,-4.7571,-4.8216,-4.8382,-4.8306,-4.8382,-4.84,-4.8325,-4.8438,-4.8642,-4.887,-4.9169,-4.948,-4.98,-5.0031,-5.0175,-5.0267,-5.029,-5.0302,-5.0302,-5.0302,-5.0302,-5.0302,-5.0302,-5.029,-5.0267,-5.0267,-5.0267,-5.0248,-5.0267,-5.003,-4.9538,-4.9243,-4.8785,-4.8315,-4.7971,-4.7788,-4.7788,-4.7788,-4.7788,-4.7693,-4.7264,-4.6833,-4.6519,-4.6003,-4.5602,-4.5354,-4.5277,-4.5277,-4.5277,-4.5277,-4.5277,-4.5277,-4.5277,-4.5277,-4.5277,-4.5277,-4.5277,-4.5277,-4.5277,-4.5277,-4.5277,-4.5277,-4.5277,-4.5277,-4.5277,-4.5277,-4.5288,-4.5351,-4.5419,-4.55,-4.5638,-4.582,-4.6035,-4.6138,-4.6187,-4.6314,-4.655,-4.6694,-4.6759,-4.7133,-4.7409,-4.7938,-4.8055,-4.8347,-4.9011,-4.9282,-4.938,-4.9591,-4.9952,-5.0028,-4.9874,-4.985,-4.9842,-4.9452,-4.9081,-4.8967,-4.9106,-4.9269,-4.9428,-4.9957,-5.0189,-5.0221,-5.0207,-5.0087,-4.9987,-4.9661,-4.9226,-4.895,-4.8707,-4.8532,-4.8172,-4.759,-4.8268,-4.8306,-4.8251,-4.8251,-4.8306,-4.8306,-4.8324,-4.8324,-4.8306,-4.8363,-4.8457,-4.866,-4.8909,-4.9092,-4.9393,-4.9759,-4.9933,-5.0076,-5.0219,-5.0278,-5.0302,-5.0302,-5.0302,-5.0302,-5.0302,-5.029,-5.0267,-5.0219,-5.0188,-5.0207,-5.0188,-5.0207,-5.0212,-5.0038,-4.9507,-4.9221,-4.9068,-4.8437,-4.8113,-4.8094,-4.8056,-4.8056,-4.8075,-4.7941,-4.757,-4.7016,-4.6577,-4.6061,-4.5411,-4.5277,-4.5277,-4.5277,-4.5277,-4.5277,-4.5277,-4.5277,-4.5277,-4.5277,-4.5277,-4.5277,-4.5277,-4.5277,-4.5277,-4.5277,-4.5277,-4.5277,-4.5277,-4.5277,-4.5277,-4.5319,-4.5381,-4.5484,-4.5618,-4.5786,-4.5952,-4.6219,-4.634,-4.6501,-4.666,-4.7086,-4.7557,-4.7591,-4.8198,-4.8574,-4.8853,-4.8894,-4.9282,-4.9868,-5.0254,-5.0579,-5.0767,-5.0837,-5.0798,-5.0567,-5.0561,-5.0514,-5.0355,-5.0062,-4.9987,-4.9973,-5.0079,-5.0221,-5.075,-5.1043,-5.1171,-5.1185,-5.0909,-5.068,-5.0313,-4.9923,-4.9572,-4.941,-4.9327,-4.9022,-4.8104,-4.8287,-4.8324,-4.8324,-4.8324,-4.8324,-4.8324,-4.8324,-4.8324,-4.8363,-4.8438,-4.8532,-4.8731,-4.9038,-4.9312,-4.9631,-4.9893,-5.012,-5.0219,-5.0267,-5.029,-5.0302,-5.0302,-5.0302,-5.0302,-5.029,-5.0255,-5.0212,-5.0207,-5.0158,-5.0133,-5.0133,-5.0133,-5.0145,-5.0081,-4.9971,-4.9918,-4.9918,-4.9744,-4.9576,-4.9576,-4.9545,-4.9652,-4.9614,-4.9079,-4.8659,-4.8258,-4.715,-4.6137,-4.5373,-4.5277,-4.5277,-4.5277,-4.5277,-4.5277,-4.5277,-4.5277,-4.5277,-4.5277,-4.5277,-4.5277,-4.5277,-4.5277,-4.5277,-4.5277,-4.5277,-4.5277,-4.5277,-4.5277,-4.5316,-4.5337,-4.5407,-4.5754,-4.6402,-4.6338,-4.6377,-4.6969,-4.7156,-4.7379,-4.8011,-4.8265,-4.8423,-4.8523,-4.876,-4.9169,-4.9603,-4.982,-4.9996,-5.0618,-5.0908,-5.1057,-5.1144,-5.1213,-5.1271,-5.1271,-5.1265,-5.1203,-5.1122,-5.0966,-5.0872,-5.0855,-5.0904,-5.1046,-5.1322,-5.1224,-5.1297,-5.1336,-5.1216,-5.1018,-5.0762,-5.0676,-5.0376,-5.0478,-5.0442,-4.9951,-4.8324,-4.8324,-4.8324,-4.8324,-4.8324,-4.8324,-4.8324,-4.8324,-4.8324,-4.8382,-4.8494,-4.855,-4.8749,-4.9073,-4.9377,-4.9665,-4.9925,-5.0151,-5.0236,-5.0267,-5.029,-5.0302,-5.0302,-5.0302,-5.0271,-5.0248,-5.0231,-5.0182,-5.0133,-5.0082,-5.005,-5.007,-5.0057,-5.007,-5.0108,-5.0145,-5.0182,-5.02,-5.0255,-5.0248,-5.0302,-5.0302,-5.0283,-5.0225,-4.9805,-4.948,-4.8995,-4.7761,-4.6672,-4.5946,-4.5526,-4.5277,-4.5277,-4.5277,-4.5277,-4.5277,-4.5277,-4.5277,-4.5277,-4.5277,-4.5277,-4.5277,-4.5277,-4.5277,-4.5277,-4.5277,-4.5277,-4.5277,-4.5277,-4.5468,-4.5833,-4.6164,-4.6786,-4.7429,-4.7262,-4.7334,-4.7996,-4.8034,-4.8257,-4.8711,-4.9103,-4.9357,-4.9357,-4.9611,-5.0079,-5.0508,-5.0645,-5.0881,-5.1213,-5.1325,-5.1358,-5.1346,-5.1336,-5.1333,-5.1336,-5.1317,-5.1314,-5.1291,-5.1284,-5.1303,-5.1314,-5.134,-5.1343,-5.1366,-5.1366,-5.1359,-5.1349,-5.1312,-5.1155,-5.1021,-5.1128,-5.1075,-5.0985,-5.092,-5.0492,-4.8324,-4.8324,-4.8324,-4.8324,-4.8324,-4.8324,-4.8324,-4.8324,-4.8325,-4.8401,-4.8494,-4.8531,-4.8715,-4.901,-4.9318,-4.9551,-4.9788,-5.0089,-5.0188,-5.0231,-5.0243,-5.0248,-5.0255,-5.0267,-5.0236,-5.0188,-5.0194,-5.0101,-5.0025,-5.0005,-4.9992,-4.9992,-4.9992,-5.0031,-5.0057,-5.0082,-5.0133,-5.0163,-5.0219,-5.0236,-5.029,-5.0302,-5.0302,-5.0283,-5.0245,-4.9882,-4.927,-4.8391,-4.7608,-4.6825,-4.5984,-4.5755,-4.566,-4.5583,-4.5468,-4.543,-4.5392,-4.5277,-4.5277,-4.5277,-4.5277,-4.5277,-4.5277,-4.5373,-4.5468,-4.5545,-4.564,-4.587,-4.5594,-4.6061,-4.6598,-4.7442,-4.7974,-4.8378,-4.8502,-4.8725,-4.895,-4.8983,-4.897,-4.9087,-4.9811,-5.0126,-5.0419,-5.0826,-5.1352,-5.0923,-5.1079,-5.1157,-5.1294,-5.131,-5.1323,-5.131,-5.1319,-5.1312,-5.13,-5.1307,-5.1307,-5.1303,-5.1292,-5.1312,-5.13,-5.1307,-5.1307,-5.1307,-5.1308,-5.1284,-5.1254,-5.1186,-5.1106,-5.1041,-5.0998,-5.0932,-5.0883,-5.0847,-5.0595,-4.8324,-4.8324,-4.8324,-4.8324,-4.8324,-4.8324,-4.8305,-4.8306,-4.8401,-4.8476,-4.855,-4.8569,-4.8714,-4.8942,-4.9318,-4.9562,-4.9703,-5.0076,-5.0236,-5.0207,-5.0158,-5.0145,-5.0196,-5.029,-5.0233,-5.0133,-5.007,-5.0031,-4.9992,-4.9952,-4.9925,-4.9939,-4.9939,-4.9939,-4.9946,-5.0018,-5.0057,-5.0101,-5.0182,-5.0224,-5.029,-5.0302,-5.0302,-5.0302,-5.0302,-5.0225,-4.9958,-4.9251,-4.8735,-4.8391,-4.778,-4.7234,-4.7016,-4.6557,-4.6271,-4.6137,-4.5679,-4.5373,-4.5335,-4.543,-4.5316,-4.5449,-4.5545,-4.5575,-4.6214,-4.6233,-4.6577,-4.7054,-4.7253,-4.7215,-4.7524,-4.7798,-4.8432,-4.9024,-4.9373,-4.9759,-5.031,-5.0064,-5.0033,-5.0514,-5.0791,-5.1025,-5.1025,-5.1083,-5.1336,-5.1336,-5.1336,-5.1336,-5.1314,-5.1314,-5.1307,-5.1296,-5.1312,-5.1304,-5.1308,-5.1296,-5.1296,-5.1296,-5.1304,-5.1284,-5.1277,-5.1281,-5.1273,-5.1261,-5.1258,-5.122,-5.1142,-5.1075,-5.1004,-5.0923,-5.0856,-5.0819,-5.0799,-5.0766,-5.0767,-4.8324,-4.8287,-4.8267,-4.8247,-4.8247,-4.819,-4.817,-4.819,-4.8304,-4.8401,-4.8495,-4.8623,-4.882,-4.9012,-4.9411,-4.9669,-4.975,-5.0038,-5.0194,-5.0272,-5.0482,-5.0723,-5.0798,-5.0951,-5.097,-5.0247,-5.0012,-4.9973,-4.9933,-4.9906,-4.9893,-4.9893,-4.9893,-4.9893,-4.9893,-4.9952,-5.0018,-5.0095,-5.0133,-5.0188,-5.0278,-5.0302,-5.0302,-5.0302,-5.0302,-5.0302,-5.0206,-4.992,-4.9691,-4.9538,-4.9194,-4.8533,-4.7884,-4.7398,-4.7139,-4.7005,-4.6787,-4.6481,-4.6481,-4.6481,-4.6519,-4.6424,-4.6462,-4.6691,-4.7016,-4.7111,-4.7272,-4.7654,-4.7807,-4.7903,-4.8372,-4.8898,-4.9351,-4.9731,-5.0047,-5.0444,-5.0842,-5.0768,-5.072,-5.1199,-5.1222,-5.1261,-5.13,-5.13,-5.13,-5.1319,-5.1316,-5.1316,-5.1316,-5.1296,-5.1312,-5.1304,-5.1304,-5.13,-5.13,-5.1304,-5.1304,-5.1304,-5.1304,-5.1272,-5.123,-5.123,-5.1249,-5.122,-5.1169,-5.1063,-5.0997,-5.094,-5.0887,-5.0825,-5.0756,-5.072,-5.0721,-5.0721,-5.0721,-4.8324,-4.8287,-4.8228,-4.8226,-4.8207,-4.811,-4.8072,-4.8072,-4.8246,-4.842,-4.8458,-4.8785,-4.901,-4.9158,-4.9537,-4.9811,-5.015,-5.0472,-5.0761,-5.0824,-5.1273,-5.1475,-5.1587,-5.1852,-5.17,-5.0447,-5.032,-5.0218,-4.9963,-4.9893,-4.9893,-4.9893,-4.9893,-4.9893,-4.9893,-4.9893,-4.9978,-5.0082,-5.0108,-5.0163,-5.0259,-5.0302,-5.0302,-5.0302,-5.0302,-5.0302,-5.0302,-5.0225,-5.0245,-5.0302,-5.0302,-4.9538,-4.8602,-4.8028,-4.799,-4.7979,-4.7742,-4.7532,-4.7474,-4.7597,-4.7635,-4.7788,-4.7731,-4.7845,-4.7922,-4.8028,-4.8151,-4.8266,-4.8437,-4.8648,-4.9232,-4.9675,-5.0167,-5.0458,-5.0538,-5.0707,-5.0911,-5.1136,-5.1185,-5.1257,-5.1304,-5.1308,-5.1304,-5.1304,-5.13,-5.1296,-5.1296,-5.1292,-5.1292,-5.1296,-5.1292,-5.1296,-5.1296,-5.13,-5.13,-5.1292,-5.1292,-5.1267,-5.1276,-5.1215,-5.1164,-5.1099,-5.1081,-5.1099,-5.105,-5.0954,-5.0879,-5.083,-5.0773,-5.0712,-5.0693,-5.0712,-5.0702,-5.0693,-5.0683,-4.8324,-4.8324,-4.8305,-4.8267,-4.8267,-4.8248,-4.8229,-4.8325,-4.8661,-4.8786,-4.8857,-4.9131,-4.9407,-4.9478,-4.9551,-5.0175,-5.106,-5.1551,-5.1898,-5.1923,-5.2199,-5.2238,-5.2314,-5.258,-5.2333,-5.1921,-5.1409,-5.0784,-5.012,-4.9893,-4.9987,-4.9931,-4.9893,-4.9893,-4.9893,-4.9893,-4.9978,-5.0082,-5.0108,-5.017,-5.0267,-5.0302,-5.0302,-5.0302,-5.0302,-5.0302,-5.0302,-5.0302,-5.0302,-5.0302,-5.0302,-5.013,-4.9691,-4.9156,-4.8926,-4.8754,-4.8353,-4.8113,-4.8094,-4.7941,-4.7845,-4.7788,-4.796,-4.8315,-4.8678,-4.8907,-4.9079,-4.95,-4.9691,-4.9882,-5.0073,-5.0206,-5.0275,-5.0385,-5.0495,-5.0606,-5.0724,-5.0903,-5.1125,-5.1206,-5.1243,-5.1296,-5.1296,-5.1292,-5.1284,-5.128,-5.1272,-5.1267,-5.1239,-5.1267,-5.13,-5.1304,-5.1308,-5.1296,-5.13,-5.1288,-5.128,-5.1196,-5.1175,-5.1117,-5.105,-5.092,-5.089,-5.0947,-5.0932,-5.0855,-5.0799,-5.0747,-5.072,-5.0693,-5.0683,-5.0683,-5.0683,-5.0683,-5.0683,-4.8247,-4.8246,-4.8148,-4.8208,-4.8288,-4.811,-4.821,-4.8624,-4.9085,-4.9397,-4.9755,-5.0319,-5.0704,-5.0782,-5.0982,-5.1438,-5.1906,-5.2223,-5.2456,-5.2499,-5.285,-5.3082,-5.3177,-5.3442,-5.3366,-5.3101,-5.2608,-5.1774,-5.0694,-5.058,-5.0334,-4.995,-4.9893,-4.9893,-4.9893,-4.9893,-4.9978,-5.007,-5.0108,-5.017,-5.029,-5.0302,-5.0302,-5.0302,-5.0302,-5.0302,-5.0302,-5.0302,-5.0302,-5.0302,-5.0302,-5.0302,-5.0168,-4.9977,-4.9691,-4.9595,-4.927,-4.9049,-4.9079,-4.9098,-4.9156,-4.9117,-4.9049,-4.927,-4.9576,-4.9767,-4.9862,-5.0149,-5.0302,-5.0302,-5.0264,-5.0302,-5.0302,-5.0314,-5.0396,-5.0474,-5.0567,-5.0741,-5.0894,-5.1056,-5.1181,-5.1243,-5.1304,-5.1295,-5.1272,-5.1263,-5.1249,-5.122,-5.1206,-5.1244,-5.1278,-5.1254,-5.1254,-5.1225,-5.1225,-5.1215,-5.1176,-5.1117,-5.1088,-5.1024,-5.0942,-5.0835,-5.0789,-5.0799,-5.0773,-5.0764,-5.0748,-5.0712,-5.0702,-5.0683,-5.0683,-5.0683,-5.0683,-5.0683,-5.0683,-4.8187,-4.8187,-4.8068,-4.8208,-4.8346,-4.8052,-4.8321,-4.9028,-4.9492,-5.0009,-5.0588,-5.1448,-5.1939,-5.2145,-5.2416,-5.2665,-5.2703,-5.2836,-5.3044,-5.3177,-5.3631,-5.3954,-5.4124,-5.4408,-5.4484,-5.3992,-5.384,-5.3063,-5.1717,-5.1433,-5.094,-5.0505,-5.0201,-5.0006,-4.995,-4.9893,-4.9992,-5.0057,-5.0108,-5.0151,-5.0267,-5.0302,-5.0302,-5.0302,-5.0302,-5.0302,-5.0302,-5.0302,-5.0302,-5.0302,-5.0302,-5.0302,-5.0302,-5.0302,-5.0302,-5.0302,-5.0302,-5.0302,-5.0245,-5.0187,-5.0034,-4.9996,-5.0206,-5.0264,-5.0245,-5.0168,-5.0245,-5.0302,-5.0302,-5.0302,-5.0302,-5.0302,-5.0302,-5.0302,-5.0314,-5.0359,-5.0442,-5.0577,-5.069,-5.0871,-5.1086,-5.1166,-5.1166,-5.1258,-5.1249,-5.1235,-5.1225,-5.1229,-5.1219,-5.1225,-5.1254,-5.122,-5.1185,-5.112,-5.1109,-5.1105,-5.1043,-5.0977,-5.0954,-5.0917,-5.0855,-5.0771,-5.0738,-5.074,-5.0721,-5.0712,-5.0693,-5.0683,-5.0683,-5.0683,-5.0683,-5.0683,-5.0683,-5.0683,-5.0683,-4.8187,-4.8226,-4.842,-4.855,-4.8587,-4.855,-4.9012,-4.9732,-4.9917,-5.0453,-5.144,-5.1893,-5.2296,-5.2616,-5.3261,-5.3518,-5.3726,-5.4086,-5.4314,-5.4333,-5.4522,-5.4617,-5.4712,-5.4806,-5.4844,-5.4598,-5.4655,-5.3783,-5.2703,-5.2362,-5.1817,-5.1206,-5.0978,-5.0713,-5.0126,-5.0101,-4.9959,-5.0101,-5.0108,-5.017,-5.0278,-5.0302,-5.0302,-5.0302,-5.0302,-5.0302,-5.0302,-5.0302,-5.0302,-5.0302,-5.0302,-5.0302,-5.0302,-5.0302,-5.0302,-5.0302,-5.0302,-5.0302,-5.0302,-5.0302,-5.0302,-5.0302,-5.0302,-5.0302,-5.0302,-5.0302,-5.0302,-5.0302,-5.0302,-5.0302,-5.0302,-5.0302,-5.0302,-5.0302,-5.0302,-5.0302,-5.0352,-5.0442,-5.0557,-5.0625,-5.0821,-5.0932,-5.0972,-5.1109,-5.1206,-5.121,-5.1208,-5.1186,-5.1175,-5.1136,-5.1128,-5.1086,-5.1036,-5.0979,-5.0958,-5.0956,-5.0905,-5.0819,-5.0814,-5.0789,-5.0747,-5.0682,-5.0712,-5.0693,-5.0683,-5.0683,-5.0683,-5.0683,-5.0683,-5.0683,-5.0683,-5.0683,-5.0683,-5.0683,-5.0683,-4.8326,-4.8307,-4.8401,-4.8809,-4.9361,-4.9452,-4.9933,-5.0747,-5.141,-5.1872,-5.244,-5.3292,-5.3732,-5.3811,-5.4257,-5.4371,-5.4465,-5.475,-5.4901,-5.4901,-5.4901,-5.4901,-5.4882,-5.4901,-5.4901,-5.4901,-5.4863,-5.4655,-5.3783,-5.3252,-5.2722,-5.1987,-5.1831,-5.1471,-5.0694,-5.0637,-5.0369,-5.0215,-5.012,-5.0188,-5.0278,-5.0302,-5.029,-5.029,-5.029,-5.029,-5.029,-5.0302,-5.0302,-5.0302,-5.0302,-5.0302,-5.0302,-5.0302,-5.0302,-5.0302,-5.0302,-5.0302,-5.0302,-5.0302,-5.0302,-5.0302,-5.0302,-5.0302,-5.0302,-5.0302,-5.0302,-5.0302,-5.0302,-5.0302,-5.0302,-5.0302,-5.0302,-5.0302,-5.0302,-5.0302,-5.0314,-5.0359,-5.044,-5.0486,-5.0538,-5.0661,-5.0761,-5.0859,-5.0951,-5.0965,-5.0944,-5.0923,-5.092,-5.092,-5.0903,-5.0898,-5.0862,-5.0825,-5.0808,-5.0805,-5.0736,-5.0682,-5.0645,-5.0635,-5.0615,-5.0613,-5.0663,-5.0682,-5.0673,-5.0673,-5.0683,-5.0683,-5.0683,-5.0683,-5.0683,-5.0683,-5.0683,-5.0683,-5.0683,-4.8679,-4.8846,-4.8864,-4.9325,-5.0024,-5.0246,-5.0822,-5.1658,-5.2269,-5.277,-5.3267,-5.4079,-5.4623,-5.4776,-5.47,-5.4712,-5.4882,-5.4901,-5.4901,-5.4901,-5.4901,-5.4901,-5.4901,-5.4901,-5.4901,-5.4901,-5.4901,-5.4787,-5.4636,-5.4238,-5.3575,-5.2779,-5.2741,-5.2248,-5.1661,-5.1187,-5.0773,-5.0094,-5.012,-5.0194,-5.0231,-5.0243,-5.0243,-5.0243,-5.0243,-5.0255,-5.0236,-5.0267,-5.0278,-5.0278,-5.029,-5.0302,-5.0302,-5.0302,-5.0302,-5.0302,-5.0302,-5.0302,-5.0302,-5.0302,-5.0302,-5.0302,-5.0302,-5.0302,-5.0302,-5.0302,-5.0302,-5.0302,-5.0302,-5.0302,-5.0302,-5.0302,-5.0302,-5.0302,-5.0302,-5.0302,-5.0302,-5.0337,-5.0359,-5.0385,-5.0432,-5.0423,-5.0518,-5.0596,-5.0662,-5.0705,-5.0686,-5.0677,-5.0696,-5.0724,-5.0724,-5.0711,-5.0641,-5.0624,-5.0635,-5.0606,-5.0554,-5.0534,-5.0511,-5.0511,-5.0542,-5.0582,-5.0642,-5.0643,-5.0653,-5.0673,-5.0683,-5.0683,-5.0683,-5.0683,-5.0683,-5.0683,-5.0683,-5.0683,-5.0683,-4.9403,-5.0091,-5.031,-5.0266,-5.0118,-5.0822,-5.151,-5.2093,-5.1942,-5.2569,-5.3497,-5.3961,-5.4315,-5.4503,-5.4616,-5.473,-5.4901,-5.4901,-5.4901,-5.4901,-5.4901,-5.4901,-5.4901,-5.4901,-5.4901,-5.4901,-5.4901,-5.4901,-5.4882,-5.4769,-5.4219,-5.3726,-5.3613,-5.3063,-5.2381,-5.1717,-5.1101,-5.0499,-5.0349,-5.026,-5.0247,-5.019,-5.0133,-5.0133,-5.012,-5.012,-5.0101,-5.0207,-5.0243,-5.0243,-5.0278,-5.0302,-5.0302,-5.0302,-5.0302,-5.0302,-5.0302,-5.0302,-5.0302,-5.0302,-5.0302,-5.0302,-5.0302,-5.0302,-5.0302,-5.0302,-5.0302,-5.0302,-5.0302,-5.0302,-5.0302,-5.0302,-5.0302,-5.0302,-5.0302,-5.0302,-5.0302,-5.0302,-5.0314,-5.0302,-5.0306,-5.0352,-5.0363,-5.0453,-5.0507,-5.0538,-5.0568,-5.0558,-5.0577,-5.0596,-5.0547,-5.0517,-5.0421,-5.0407,-5.0418,-5.0416,-5.0438,-5.0459,-5.0438,-5.0489,-5.0532,-5.0582,-5.0572,-5.0623,-5.0643,-5.0663,-5.0683,-5.0683,-5.0683,-5.0683,-5.0683,-5.0683,-5.0683,-5.0683,-5.0683,-4.9264,-5.0289,-5.086,-5.1154,-5.1265,-5.1825,-5.2266,-5.2606,-5.2925,-5.3291,-5.3851,-5.3961,-5.4194,-5.447,-5.4698,-5.4776,-5.4905,-5.4901,-5.4901,-5.4901,-5.4901,-5.4901,-5.4901,-5.4901,-5.4901,-5.4901,-5.4901,-5.4901,-5.4901,-5.4901,-5.4787,-5.4503,-5.4371,-5.3916,-5.3196,-5.24,-5.1797,-5.1459,-5.1057,-5.0855,-5.078,-5.0323,-5.0108,-5.0108,-5.0158,-5.017,-5.0163,-5.0212,-5.0255,-5.0267,-5.029,-5.029,-5.0302,-5.0302,-5.0302,-5.0302,-5.0302,-5.0302,-5.0302,-5.0302,-5.0302,-5.0302,-5.0302,-5.0302,-5.0302,-5.0302,-5.0302,-5.0302,-5.0302,-5.0302,-5.0302,-5.0302,-5.0302,-5.0302,-5.0302,-5.0302,-5.0302,-5.0302,-5.0302,-5.0302,-5.0302,-5.0314,-5.0314,-5.0325,-5.0355,-5.0413,-5.0434,-5.0455,-5.0455,-5.0474,-5.0432,-5.0429,-5.0348,-5.0314,-5.0337,-5.0348,-5.0348,-5.0371,-5.0382,-5.0416,-5.0478,-5.0468,-5.0468,-5.0542,-5.0623,-5.0633,-5.0653,-5.0683,-5.0683,-5.0683,-5.0683,-5.0683,-5.0683,-5.0683,-5.0683,-4.9546,-5.0559,-5.1268,-5.173,-5.2049,-5.2583,-5.281,-5.291,-5.3368,-5.3777,-5.3888,-5.3907,-5.4124,-5.447,-5.4667,-5.4841,-5.4871,-5.4901,-5.4901,-5.4901,-5.4901,-5.4901,-5.4901,-5.4901,-5.4901,-5.4901,-5.4901,-5.4901,-5.4901,-5.4901,-5.4863,-5.4844,-5.4882,-5.4465,-5.4048,-5.3271,-5.2712,-5.2342,-5.2009,-5.1643,-5.1589,-5.1209,-5.0646,-5.0608,-5.0564,-5.0374,-5.0265,-5.0219,-5.0255,-5.0267,-5.0259,-5.029,-5.0302,-5.0302,-5.0302,-5.0302,-5.0302,-5.0302,-5.0302,-5.0302,-5.0302,-5.0302,-5.0302,-5.0302,-5.0302,-5.0302,-5.0302,-5.0302,-5.0302,-5.0302,-5.0302,-5.0302,-5.0302,-5.0302,-5.0302,-5.0302,-5.0302,-5.0302,-5.0302,-5.0302,-5.0302,-5.0302,-5.0302,-5.0302,-5.0306,-5.0344,-5.0355,-5.0366,-5.0355,-5.0363,-5.034,-5.0317,-5.0314,-5.0302,-5.0302,-5.0314,-5.0325,-5.0325,-5.0337,-5.0348,-5.0359,-5.0359,-5.0404,-5.0511,-5.0582,-5.0584,-5.0613,-5.0613,-5.0643,-5.0683,-5.0683,-5.0683,-5.0683,-5.0683,-5.0683,-5.0434,-5.1062,-5.1682,-5.1972,-5.2134,-5.2913,-5.3054,-5.285,-5.3048,-5.3363,-5.3682,-5.3719,-5.4017,-5.442,-5.4603,-5.4749,-5.4871,-5.4901,-5.4901,-5.4901,-5.4901,-5.4901,-5.4901,-5.4901,-5.4901,-5.4901,-5.4901,-5.4901,-5.4901,-5.4901,-5.4901,-5.4901,-5.4901,-5.4844,-5.4769,-5.4086,-5.3271,-5.257,-5.2513,-5.2414,-5.2371,-5.2182,-5.1711,-5.1397,-5.1285,-5.1039,-5.0552,-5.0461,-5.0441,-5.0274,-5.029,-5.0302,-5.0302,-5.0302,-5.0302,-5.0302,-5.029,-5.029,-5.029,-5.029,-5.029,-5.029,-5.0302,-5.0302,-5.0302,-5.0302,-5.0302,-5.0302,-5.0302,-5.0302,-5.0302,-5.0302,-5.0302,-5.0302,-5.0302,-5.0302,-5.0302,-5.0302,-5.0302,-5.0302,-5.0302,-5.0302,-5.0302,-5.0302,-5.0302,-5.0314,-5.0302,-5.0302,-5.0302,-5.0302,-5.0302,-5.0302,-5.0302,-5.0302,-5.0302,-5.0302,-5.0302,-5.0302,-5.0302,-5.0314,-5.0337,-5.0348,-5.0424,-5.0478,-5.05,-5.0521,-5.0511,-5.0511,-5.0582,-5.0633,-5.0682,-5.0692,-5.0683,-5.0683,-5.0683,-5.0226,-5.1394,-5.156,-5.1962,-5.2538,-5.2812,-5.2875,-5.2893,-5.3198,-5.3584,-5.387,-5.4089,-5.4284,-5.4522,-5.4667,-5.4795,-5.4871,-5.4901,-5.4901,-5.4901,-5.4901,-5.4901,-5.4901,-5.4901,-5.4901,-5.4901,-5.4901,-5.4901,-5.4901,-5.4901,-5.4901,-5.4901,-5.4901,-5.4901,-5.4844,-5.456,-5.4276,-5.401,-5.365,-5.3252,-5.3196,-5.2779,-5.2343,-5.2082,-5.2066,-5.1703,-5.1046,-5.1027,-5.0855,-5.051,-5.0508,-5.0469,-5.0443,-5.0443,-5.0347,-5.0317,-5.0298,-5.0219,-5.0194,-5.017,-5.0219,-5.0255,-5.029,-5.029,-5.0302,-5.0302,-5.0302,-5.0302,-5.0302,-5.0302,-5.0302,-5.0302,-5.0302,-5.0302,-5.0302,-5.0302,-5.0302,-5.0302,-5.0302,-5.0302,-5.0302,-5.0302,-5.0302,-5.0302,-5.0302,-5.0302,-5.0302,-5.0302,-5.0302,-5.0302,-5.0302,-5.0302,-5.0302,-5.0302,-5.0302,-5.0302,-5.0302,-5.0302,-5.0302,-5.0302,-5.0325,-5.0337,-5.0359,-5.0424,-5.0435,-5.0446,-5.0457,-5.0478,-5.053,-5.0572,-5.0603,-5.0643,-5.0663,-5.0663,-5.0663,-5.063,-5.1645,-5.1803,-5.2185,-5.2747,-5.2806,-5.2828,-5.302,-5.3404,-5.3719,-5.387,-5.4089,-5.4318,-5.4453,-5.4549,-5.4791,-5.4856,-5.4776,-5.4871,-5.4871,-5.4901,-5.4901,-5.4901,-5.4901,-5.4901,-5.4901,-5.4901,-5.4901,-5.4901,-5.4901,-5.4901,-5.4901,-5.4886,-5.4901,-5.4882,-5.4844,-5.4825,-5.4598,-5.4295,-5.4124,-5.3973,-5.365,-5.321,-5.3011,-5.2845,-5.2577,-5.2074,-5.1764,-5.1631,-5.1191,-5.1051,-5.1051,-5.1032,-5.0841,-5.0727,-5.0657,-5.0328,-5.0221,-5.012,-5.0108,-5.0158,-5.0207,-5.0243,-5.0267,-5.0278,-5.0271,-5.029,-5.0302,-5.0302,-5.0302,-5.0302,-5.0302,-5.0302,-5.0302,-5.0302,-5.0302,-5.0302,-5.0302,-5.0302,-5.0302,-5.029,-5.029,-5.029,-5.0302,-5.0302,-5.0302,-5.0302,-5.034,-5.0378,-5.0397,-5.0436,-5.0455,-5.0436,-5.0455,-5.0397,-5.0302,-5.0302,-5.0302,-5.0417,-5.055,-5.0302,-5.0314,-5.0337,-5.0348,-5.0379,-5.039,-5.0412,-5.0435,-5.0446,-5.0468,-5.0489,-5.0542,-5.0604,-5.0633,-5.0623,-5.1685,-5.1892,-5.2389,-5.264,-5.2783,-5.2872,-5.2999,-5.3209,-5.3482,-5.3622,-5.3642,-5.37,-5.398,-5.4334,-5.4176,-5.433,-5.4645,-5.4533,-5.4648,-5.4776,-5.4826,-5.4856,-5.4886,-5.4901,-5.4901,-5.4901,-5.4901,-5.4901,-5.4901,-5.4826,-5.4826,-5.4841,-5.4745,-5.4711,-5.4711,-5.473,-5.4776,-5.478,-5.4787,-5.4655,-5.4541,-5.4591,-5.4166,-5.3907,-5.3689,-5.3314,-5.2876,-5.2606,-5.2544,-5.241,-5.2429,-5.2486,-5.2296,-5.1839,-5.1592,-5.1237,-5.0666,-5.0552,-5.0488,-5.0532,-5.0488,-5.0647,-5.0539,-5.0366,-5.02,-5.0236,-5.0259,-5.029,-5.029,-5.029,-5.0302,-5.0302,-5.0302,-5.0302,-5.0302,-5.0302,-5.0302,-5.0302,-5.0302,-5.029,-5.0271,-5.0271,-5.0278,-5.0278,-5.0362,-5.0393,-5.045,-5.0703,-5.0741,-5.0684,-5.0722,-5.0722,-5.0703,-5.0646,-5.0646,-5.0894,-5.1009,-5.1238,-5.099,-5.1009,-5.0684,-5.055,-5.0677,-5.0696,-5.0417,-5.0333,-5.0367,-5.0348,-5.0348,-5.0371,-5.0432,-5.0459,-5.0542,-5.0542,-5.0542,-5.1919,-5.2517,-5.2567,-5.2721,-5.2959,-5.324,-5.3424,-5.3484,-5.3564,-5.3682,-5.387,-5.387,-5.3944,-5.4123,-5.4052,-5.4122,-5.4176,-5.4228,-5.4366,-5.4519,-5.4667,-5.4764,-5.4841,-5.4901,-5.4901,-5.4901,-5.4901,-5.4901,-5.4856,-5.4745,-5.4635,-5.4603,-5.4451,-5.4349,-5.4313,-5.4298,-5.4568,-5.4761,-5.4841,-5.4841,-5.481,-5.473,-5.4546,-5.4492,-5.4318,-5.3924,-5.3599,-5.3451,-5.3275,-5.2802,-5.2669,-5.2625,-5.2568,-5.2359,-5.2245,-5.2159,-5.1931,-5.1823,-5.1749,-5.1735,-5.1654,-5.1554,-5.1665,-5.1033,-5.0609,-5.0347,-5.0403,-5.0579,-5.066,-5.0718,-5.0691,-5.0646,-5.0588,-5.0531,-5.0455,-5.0302,-5.029,-5.029,-5.029,-5.0259,-5.0248,-5.0236,-5.0255,-5.0403,-5.0498,-5.051,-5.0687,-5.1023,-5.1207,-5.1195,-5.1214,-5.1233,-5.1393,-5.1457,-5.1818,-5.2105,-5.2136,-5.2136,-5.1849,-5.1697,-5.1754,-5.162,-5.1353,-5.1162,-5.1028,-5.0665,-5.0302,-5.0436,-5.0849,-5.0455,-5.0421,-5.0432,-5.0457,-5.0503,-5.0443,-5.2498,-5.2853,-5.2875,-5.2919,-5.3045,-5.33,-5.3422,-5.3462,-5.3543,-5.3662,-5.368,-5.368,-5.3738,-5.3814,-5.3738,-5.3795,-5.4015,-5.3907,-5.4052,-5.4453,-5.4505,-5.4683,-5.4807,-5.4901,-5.4901,-5.4901,-5.4901,-5.4901,-5.4826,-5.4635,-5.4505,-5.4281,-5.407,-5.4015,-5.4033,-5.4087,-5.4315,-5.4517,-5.4632,-5.4648,-5.4632,-5.4603,-5.4698,-5.4791,-5.4664,-5.4436,-5.4234,-5.4168,-5.3889,-5.3556,-5.3532,-5.3513,-5.3437,-5.3285,-5.2702,-5.2565,-5.2342,-5.2271,-5.2224,-5.2267,-5.2362,-5.2438,-5.2499,-5.1985,-5.1597,-5.1338,-5.137,-5.1427,-5.1369,-5.1298,-5.1188,-5.1066,-5.0951,-5.0856,-5.0588,-5.0321,-5.029,-5.0278,-5.0248,-5.0236,-5.0224,-5.02,-5.0302,-5.0506,-5.0761,-5.0989,-5.1364,-5.1827,-5.1986,-5.2017,-5.2017,-5.2017,-5.2253,-5.2438,-5.2819,-5.3009,-5.285,-5.2697,-5.2499,-5.2442,-5.269,-5.2556,-5.2155,-5.1907,-5.1716,-5.1429,-5.12,-5.1322,-5.1532,-5.1145,-5.0932,-5.1078,-5.097,-5.0572,-5.0453,-5.3201,-5.302,-5.3214,-5.3151,-5.3042,-5.3167,-5.3206,-5.3227,-5.3442,-5.344,-5.3251,-5.3227,-5.3378,-5.3522,-5.342,-5.3563,-5.3757,-5.3739,-5.3999,-5.4489,-5.4505,-5.4651,-5.4822,-5.4901,-5.4901,-5.4901,-5.4886,-5.4871,-5.4761,-5.4503,-5.4142,-5.3961,-5.3943,-5.387,-5.3795,-5.3888,-5.4035,-5.4107,-5.4124,-5.4124,-5.4486,-5.4552,-5.4568,-5.4776,-5.4761,-5.467,-5.4719,-5.4769,-5.4837,-5.4818,-5.4795,-5.4667,-5.448,-5.4177,-5.3437,-5.3101,-5.302,-5.3006,-5.3025,-5.3044,-5.2916,-5.2821,-5.2627,-5.2802,-5.2764,-5.2194,-5.2069,-5.2113,-5.2056,-5.2093,-5.2021,-5.1849,-5.1716,-5.1589,-5.1386,-5.1214,-5.1133,-5.1108,-5.1071,-5.104,-5.1015,-5.0983,-5.1028,-5.13,-5.1446,-5.1655,-5.2138,-5.2659,-5.2844,-5.287,-5.2863,-5.2895,-5.3258,-5.3473,-5.348,-5.3595,-5.3378,-5.3219,-5.3187,-5.3339,-5.3683,-5.3378,-5.29,-5.2556,-5.2212,-5.2461,-5.2422,-5.2346,-5.2182,-5.2082,-5.1917,-5.1958,-5.1642,-5.1055,-5.0567,-5.3109,-5.3164,-5.3209,-5.3188,-5.3164,-5.3185,-5.3185,-5.3185,-5.3251,-5.3272,-5.3206,-5.3206,-5.3227,-5.3293,-5.3251,-5.34,-5.3583,-5.3661,-5.398,-5.4282,-5.4437,-5.4552,-5.4807,-5.4807,-5.4856,-5.4901,-5.4871,-5.473,-5.4486,-5.4106,-5.3795,-5.3701,-5.37,-5.3623,-5.3542,-5.3641,-5.3719,-5.3737,-5.3679,-5.3962,-5.4552,-5.4368,-5.4264,-5.4332,-5.4334,-5.4194,-5.421,-5.4262,-5.4382,-5.4519,-5.4568,-5.4661,-5.4829,-5.4659,-5.4507,-5.4333,-5.4076,-5.4019,-5.4048,-5.401,-5.401,-5.4143,-5.4181,-5.4257,-5.3993,-5.3123,-5.2722,-5.2787,-5.2857,-5.2914,-5.2881,-5.269,-5.2487,-5.236,-5.2182,-5.2075,-5.1986,-5.1936,-5.1903,-5.1877,-5.1851,-5.1857,-5.1876,-5.202,-5.2159,-5.2572,-5.3164,-5.3628,-5.3791,-5.3862,-5.3788,-5.3897,-5.4388,-5.4573,-5.4402,-5.4275,-5.4129,-5.4308,-5.4435,-5.4562,-5.4658,-5.4218,-5.3702,-5.3053,-5.2728,-5.3085,-5.32,-5.2824,-5.2692,-5.2794,-5.2717,-5.2632,-5.2262,-5.1711,-5.1085,-5.3112,-5.3039,-5.3143,-5.3185,-5.3185,-5.3185,-5.3185,-5.3185,-5.3185,-5.3185,-5.3185,-5.3185,-5.3185,-5.3185,-5.3185,-5.3251,-5.344,-5.342,-5.3757,-5.4106,-5.4246,-5.4368,-5.45,-5.4597,-5.4465,-5.45,-5.4482,-5.4332,-5.4125,-5.387,-5.3623,-5.3564,-5.3522,-5.342,-5.3336,-5.3422,-5.344,-5.3418,-5.3339,-5.3795,-5.4468,-5.4142,-5.3998,-5.4016,-5.4016,-5.3888,-5.3907,-5.3997,-5.4105,-5.4229,-5.4264,-5.4315,-5.4432,-5.4376,-5.4546,-5.4591,-5.462,-5.4795,-5.4856,-5.4886,-5.4886,-5.4871,-5.4901,-5.4674,-5.4728,-5.3978,-5.3963,-5.403,-5.411,-5.4167,-5.4034,-5.3874,-5.3493,-5.3258,-5.2775,-5.2425,-5.2348,-5.2309,-5.227,-5.2243,-5.223,-5.2216,-5.2373,-5.2788,-5.2964,-5.3196,-5.3841,-5.4263,-5.4496,-5.4539,-5.4529,-5.4609,-5.4931,-5.5091,-5.4863,-5.4878,-5.4969,-5.5243,-5.5371,-5.525,-5.5002,-5.4849,-5.4486,-5.3951,-5.3735,-5.3963,-5.3938,-5.3537,-5.3508,-5.3645,-5.3462,-5.3239,-5.2806,-5.2343,-5.1779,-5.2986,-5.285,-5.306,-5.3182,-5.3185,-5.3185,-5.3185,-5.3185,-5.3185,-5.3185,-5.3185,-5.3185,-5.3185,-5.3185,-5.3185,-5.3209,-5.3272,-5.3398,-5.368,-5.3851,-5.3833,-5.4088,-5.4193,-5.4193,-5.4158,-5.4069,-5.4033,-5.3888,-5.37,-5.3543,-5.3482,-5.3484,-5.3442,-5.3357,-5.3422,-5.342,-5.3357,-5.342,-5.3462,-5.3622,-5.3738,-5.3738,-5.3795,-5.3888,-5.3925,-5.3907,-5.3888,-5.387,-5.3888,-5.3979,-5.4015,-5.4158,-5.4229,-5.4298,-5.4416,-5.4568,-5.4584,-5.4667,-5.4764,-5.481,-5.481,-5.4841,-5.4871,-5.4931,-5.4952,-5.4957,-5.4909,-5.4933,-5.5015,-5.5025,-5.4906,-5.4766,-5.4365,-5.4058,-5.346,-5.3027,-5.2954,-5.2914,-5.2886,-5.2859,-5.2859,-5.2859,-5.3115,-5.3547,-5.3741,-5.3973,-5.4234,-5.4661,-5.4918,-5.4804,-5.4728,-5.4772,-5.4928,-5.5052,-5.508,-5.5149,-5.5248,-5.5275,-5.5307,-5.5358,-5.5333,-5.5154,-5.5039,-5.5018,-5.4895,-5.4614,-5.4601,-5.4353,-5.4408,-5.4223,-5.3849,-5.3484,-5.3309,-5.2865,-5.2445,-5.2272,-5.2806,-5.2977,-5.306,-5.3042,-5.3164,-5.3185,-5.3185,-5.3185,-5.3185,-5.3185,-5.3185,-5.3185,-5.3185,-5.3185,-5.3251,-5.338,-5.344,-5.3662,-5.3925,-5.3795,-5.3944,-5.4016,-5.3925,-5.3979,-5.3888,-5.3758,-5.3642,-5.3522,-5.3378,-5.3293,-5.3334,-5.3504,-5.3422,-5.3274,-5.3316,-5.34,-5.34,-5.3316,-5.3398,-5.344,-5.3482,-5.3622,-5.3602,-5.3481,-5.3398,-5.3357,-5.3357,-5.3482,-5.3662,-5.387,-5.4034,-5.4177,-5.4265,-5.4401,-5.4568,-5.4587,-5.4568,-5.4667,-5.4698,-5.4714,-5.4714,-5.4776,-5.4901,-5.4927,-5.4971,-5.4928,-5.4928,-5.4995,-5.5091,-5.5031,-5.5044,-5.4802,-5.4749,-5.4384,-5.4282,-5.4216,-5.4202,-5.4187,-5.4172,-5.4172,-5.4172,-5.421,-5.4427,-5.4427,-5.4579,-5.4579,-5.4931,-5.4931,-5.4916,-5.4901,-5.4912,-5.4956,-5.4985,-5.5028,-5.5107,-5.5176,-5.5203,-5.5229,-5.5267,-5.53,-5.539,-5.5319,-5.5023,-5.4889,-5.4633,-5.467,-5.456,-5.4444,-5.4151,-5.3887,-5.3646,-5.3549,-5.3316,-5.2851]},{"header":{"parameterUnit":"m.s-1","parameterCategory":1,"la1":31.0,"la2":29.5877,"lo1":-88.7671,"lo2":-86.6584,"dy":0.0162,"dx":0.0185,"nx":115,"ny":88,"refTime":"2023-11-06T06:00:00:Z","depth":0,"parameterNumber":3,"parameterNumberName":"V-component_of_WINDS"},"data":[0.0,0.0,0.0,0.0,0.0,0.0,0.0,0.0,0.0,0.0,0.0,0.0,0.0,0.0,0.0,0.0,0.0,0.0,0.0,0.0,0.0,0.0,0.0,0.0,0.0,0.0,0.0,0.0,0.0,0.0,0.0,0.0,0.0,0.0,0.0,0.0,0.0,0.0,0.0,0.0,0.0,0.0,0.0,0.0,0.0,0.0,0.0,0.0,0.0,0.0,0.0,0.0,0.0,0.0,0.0,0.0,0.0,0.0,0.0,0.0,0.0,0.0,0.0,0.0,0.0,0.0,0.0,0.0,0.0,0.0,0.0,0.0,0.0,0.0,0.0,0.0,0.0,0.0,0.0,0.0,0.0,0.0,0.0,0.0,0.0,0.0,0.0,0.0,0.0,0.0,0.0,0.0,0.0,0.0,0.0,0.0,0.0,0.0,0.0,0.0,0.0,0.0,0.0,0.0,0.0,0.0,0.0,0.0,0.0,0.0,0.0,0.0,0.0,0.0,0.0,0.0,0.0,0.0,0.0,0.0,0.0,0.0,0.0,0.0,0.0,0.0,0.0,0.0,0.0,0.0,0.0,0.0,0.0,0.0,0.0,0.0,0.0,0.0,0.0,0.0,0.0,0.0,0.0,0.0,0.0,0.0,0.0,0.0,0.0,0.0,0.0,0.0,0.0,0.0,0.0,0.0,0.0,0.0,0.0,0.0,0.0,0.0,0.0,0.0,0.0,0.0,0.0,0.0,0.0,0.0,0.0,0.0,0.0,0.0,0.0,0.0,0.0,0.0,0.0,0.0,0.0,0.0,0.0,0.0,0.0,0.0,0.0,0.0,0.0,0.0,0.0,0.0,0.0,0.0,0.0,0.0,0.0,0.0,0.0,0.0,0.0,0.0,0.0,0.0,0.0,0.0,0.0,0.0,0.0,0.0,0.0,0.0,0.0,0.0,0.0,0.0,0.0,0.0,0.0,0.0,0.0,0.0,0.0,0.0,0.0,0.0,0.0,0.0,0.0,0.0,0.0,0.0,0.0,0.0,0.0,0.0,0.0,0.0,0.0,0.0,0.0,0.0,0.0,0.0,0.0,0.0,0.0,0.0,0.0,0.0,0.0,0.0,0.0,0.0,0.0,0.0,0.0,0.0,0.0,0.0,0.0,0.0,0.0,0.0,0.0,0.0,0.0,0.0,0.0,0.0,0.0,0.0,0.0,0.0,0.0,0.0,0.0,0.0,0.0,0.0,0.0,0.0,0.0,0.0,0.0,0.0,0.0,0.0,0.0,0.0,0.0,0.0,0.0,0.0,0.0,0.0,0.0,0.0,0.0,0.0,0.0,0.0,0.0,0.0,0.0,0.0,0.0,0.0,0.0,0.0,0.0,0.0,0.0,0.0,0.0,0.0,0.0,0.0,0.0,0.0,0.0,0.0,0.0,0.0,0.0,0.0,0.0,0.0,0.0,0.0,0.0,0.0,0.0,0.0,0.0,0.0,0.0,0.0,0.0,0.0,0.0,0.0,0.0,0.0,0.0,0.0,0.0,0.0,0.0,0.0,0.0,0.0,0.0,0.0,0.0,0.0,0.0,0.0,0.0,0.0,0.0,0.0,0.0,0.0,0.0,0.0,0.0,0.0,0.0,0.0,0.0,0.0,0.0,0.0,0.0,0.0,0.0,0.0,0.0,0.0,0.0,0.0,0.0,0.0,0.0,0.0,0.0,0.0,0.0,0.0,0.0,0.0,0.0,0.0,0.0,0.0,0.0,0.0,0.0,0.0,0.0,0.0,0.0,0.0,0.0,0.0,0.0,0.0,0.0,0.0,0.0,0.0,0.0,0.0,0.0,0.0,0.0,0.0,0.0,0.0,0.0,0.0,0.0,0.0,0.0,0.0,0.0,0.0,0.0,0.0,0.0,0.0,0.0,0.0,0.0,0.0,0.0,0.0,0.0,0.0,0.0,0.0,0.0,0.0,0.0,0.0,0.0,0.0,0.0,0.0,0.0,0.0,0.0,0.0,0.0,0.0,0.0,0.0,0.0,0.0,0.0,0.0,0.0,0.0,0.0,0.0,0.0,0.0,0.0,0.0,0.0,0.0,0.0,0.0,0.0,0.0,0.0,0.0,0.0,0.0,0.0,0.0,0.0,0.0,0.0,0.0,0.0,0.0,0.0,0.0,0.0,0.0,0.0,0.0,0.0,0.0,0.0,0.0,0.0,0.0,0.0,0.0,0.0,0.0,0.0,0.0,0.0,0.0,0.0,0.0,0.0,0.0,0.0,0.0,0.0,0.0,0.0,0.0,0.0,0.0,0.0,0.0,0.0,0.0,0.0,0.0,0.0,0.0,0.0,0.0,0.0,0.0,0.0,0.0,0.0,0.0,0.0,0.0,0.0,0.0,0.0,0.0,0.0,0.0,0.0,0.0,0.0,0.0,0.0,0.0,0.0,0.0,0.0,0.0,0.0,0.0,0.0,0.0,0.0,0.0,0.0,0.0,0.0,0.0,0.0,0.0,0.0,0.0,0.0,0.0,0.0,0.0,0.0,0.0,0.0,0.0,0.0,0.0,0.0,0.0,0.0,0.0,0.0,0.0,0.0,0.0,0.0,0.0,0.0,0.0,0.0,0.0,0.0,0.0,0.0,0.0,0.0,0.0,0.0,0.0,0.0,0.0,0.0,0.0,0.0,0.0,0.0,0.0,0.0,0.0,0.0,0.0,0.0,0.0,0.0,0.0,0.0,0.0,0.0,0.0,0.0,0.0,0.0,0.0,0.0,0.0,0.0,0.0,0.0,0.0,0.0,0.0,0.0,0.0,0.0,0.0,0.0,0.0,0.0,0.0,0.0,0.0,0.0,0.0,0.0,0.0,0.0,0.0,0.0,0.0,0.0,0.0,0.0,0.0,0.0,0.0,0.0,0.0,0.0,0.0,0.0,0.0,0.0,0.0,0.0,0.0,0.0,0.0,0.0,0.0,0.0,0.0,0.0,0.0,0.0,0.0,0.0,0.0,0.0,0.0,0.0,0.0,0.0,0.0,0.0,0.0,0.0,0.0,0.0,0.0,0.0,0.0,0.0,0.0,0.0,0.0,0.0,0.0,0.0,0.0,0.0,0.0,0.0,0.0,0.0,0.0,0.0,0.0,0.0,0.0,0.0,0.0,0.0,0.0,0.0,0.0,0.0,0.0,0.0,0.0,0.0,0.0,0.0,0.0,0.0,0.0,0.0,0.0,0.0,0.0,0.0,0.0,0.0,0.0,0.0,0.0,0.0,0.0,0.0,0.0,0.0,0.0,0.0,0.0,0.0,0.0,0.0,0.0,0.0,0.0,0.0,0.0,0.0,0.0,0.0,0.0,0.0,0.0,0.0,0.0,0.0,0.0,0.0,0.0,0.0,0.0,0.0,0.0,0.0,0.0,0.0,0.0,0.0,0.0,0.0,0.0,0.0,0.0,0.0,0.0,0.0,0.0,0.0,0.0,0.0,0.0,0.0,0.0,0.0,0.0,0.0,0.0,0.0,0.0,0.0,0.0,0.0,0.0,0.0,0.0,0.0,0.0,0.0,0.0,0.0,0.0,0.0,0.0,0.0,0.0,0.0,0.0,0.0,0.0,0.0,0.0,0.0,0.0,0.0,0.0,0.0,0.0,0.0,0.0,0.0,0.0,0.0,0.0,0.0,0.0,0.0,0.0,0.0,0.0,0.0,0.0,0.0,0.0,0.0,0.0,0.0,0.0,0.0,0.0,0.0,0.0,0.0,0.0,0.0,0.0,0.0,0.0,0.0,0.0,0.0,0.0,0.0,0.0,0.0,0.0,0.0,0.0,0.0,0.0,0.0,0.0,0.0,0.0,0.0,0.0,0.0,0.0,0.0,0.0,0.0,0.0,0.0,0.0,0.0,0.0,0.0,0.0,0.0,0.0,0.0,0.0,0.0,0.0,0.0,0.0,0.0,0.0,0.0,0.0,0.0,0.0,0.0,0.0,0.0,0.0,0.0,0.0,0.0,0.0,0.0,0.0,0.0,0.0,0.0,0.0,0.0,0.0,0.0,0.0,0.0,0.0,0.0,0.0,0.0,0.0,0.0,0.0,0.0,0.0,0.0,0.0,0.0,0.0,0.0,0.0,0.0,0.0,0.0,0.0,0.0,0.0,0.0,0.0,0.0,0.0,0.0,0.0,0.0,0.0,0.0,0.0,0.0,0.0,0.0,0.0,0.0,0.0,0.0,0.0,0.0,0.0,0.0,0.0,0.0,0.0,0.0,0.0,0.0,0.0,0.0,0.0,0.0697,0.0,0.0,0.0,0.0,0.0,0.0,0.0,0.0,0.0,0.0,0.0,0.0,0.0,0.0,0.0,0.0,0.0,0.0,0.0,0.0,0.0,0.0,0.0,0.0,0.0,0.0,0.0,0.0,0.0,0.0,0.0,0.0,0.0,0.0,0.0,0.0,0.0,0.0,0.0,0.0,0.0,0.0,0.0,0.0,0.0,0.0,0.0,0.0,0.0,0.0,0.0,0.0,0.0,0.0,0.0,0.0,0.0,0.0,0.0,0.0,0.0,0.0,0.0,0.0,0.0,0.0,0.0,0.0,0.0,0.0,0.0,0.0,0.0,0.0,0.0,0.0,0.0,0.0,0.0,0.0,0.0,0.0,0.0,0.0,0.0,0.0,0.0,0.0,0.0,0.0,0.0,0.0,0.0,0.0,0.0,0.0,0.0,0.0,0.0,0.0,0.0,0.0,0.0,0.0,0.0,0.0,0.0,0.0,0.0,0.0,0.0831,0.1076,0.1076,0.1211,0.1456,0.0,0.0,0.0,0.0,0.0,0.0,0.0,0.0,0.0,0.0,0.0,0.0,0.0,0.0,0.0,0.0,0.0,0.0,0.0,0.0,0.0,0.0,0.0,0.0,0.0,0.0,0.0,0.0,0.0,0.0,0.0,0.0,0.0,0.0,0.0,0.0,0.0,0.0,0.0,0.0,0.0,0.0,0.0,0.0,0.0,0.0,0.0,0.0,0.0,0.0,0.0,0.0,0.0,0.0,0.0,0.0,0.0,0.0,0.0,0.0,0.0,0.0,0.0,0.0,0.0,0.0,0.0,0.0,0.0,0.0,0.0,0.0,0.0,0.0,0.0,0.0,0.0,0.0,0.0,0.0,0.0,0.0,0.0,0.0,0.0,0.0,0.0,0.0,0.0,0.0,0.0,0.0,0.0,0.0,0.0,0.0,0.0,0.0,0.0,0.0,0.0,0.0,0.0,0.0,0.0,0.0,0.0,0.0,0.0,0.0,0.0,0.0,0.1344,0.1612,0.2055,0.0,0.0,0.0,0.0,0.0,0.0,0.0,0.0,0.0,0.0,0.0,0.0,0.0,0.0,0.0,0.0,0.0,0.0,0.0,0.0,0.0,0.0,0.0,0.0,0.0,0.0,0.0,0.0,0.0,0.0,0.0,0.0,0.0,0.0,0.0,0.0,0.0,0.0,0.0,0.0,0.0,0.0,0.0,0.0,0.0,0.0,0.0,0.0,0.0,0.0,0.0,0.0,0.0,0.0,0.0,0.0,0.0,0.0,0.0,0.0,0.0,0.0,0.0,0.0,0.0,0.0,0.0,0.0,0.0,0.0,0.0,0.0,0.0,0.0,0.0,0.0,0.0,0.0,0.0,0.0,0.0,0.0,0.0,0.0,0.0,0.0,0.0,0.0,0.0,0.0,0.0,0.0,0.0,0.0,0.0,0.0,0.0,0.0,0.0,0.0,0.0,0.0,0.0,0.0,0.0,0.0,0.0,0.0,0.0,0.0,0.0719,0.0764,0.1188,0.0,0.2057,0.0,0.0,0.0,0.0,0.0,0.0,0.0,0.0,0.0,0.0,0.0,0.0,0.0,0.0,0.0,0.0,0.0,0.0,0.0,0.0,0.0,0.0,0.0,0.0,0.0,0.0,0.0,0.0,0.0,0.0,0.0,0.0,0.0,0.0,0.0,0.0,0.0,0.0,0.0,0.0,0.0,0.0,0.0,0.0,0.0,0.0,0.0,0.0,0.0,0.0,0.0,0.0,0.0,0.0,0.0,0.0,0.0,0.0,0.0,0.0,0.0,0.0,0.0,0.0,0.0,0.0,0.0,0.0,0.0,0.0,0.0,0.0,0.0,0.0,0.0,0.0,0.0,0.0,0.0,0.0,0.0,0.0,0.0,0.0,0.0,0.0,0.0,0.0,0.0,0.0,0.0,0.0,0.0,0.0,0.0,0.0,0.0,0.0,0.0,0.0,0.0,0.0,0.0,0.0,0.0,0.0,0.0,0.0,0.0,0.0,0.0831,0.1099,0.1567,0.1899,0.0,0.0,0.0,0.0,0.0,0.0,0.0,0.0,0.0,0.0,0.0,0.0,0.0,0.0,0.0,0.0,0.0,0.0,0.0,0.0,0.0,0.0,0.0,0.0,0.0,0.0,0.0,0.0,0.0,0.0,0.0,0.0,0.0,0.0,0.0,0.0,0.0,0.0,0.0,0.0,0.0,0.0,0.0,0.0,0.0,0.0,0.0,0.0,0.0,0.0,0.0,0.0,0.0,0.0,0.0,0.0,0.0,0.0,0.0,0.0,0.0,0.0,0.0,0.0,0.0,0.0,0.0,0.0,0.0,0.0,0.0,0.0,0.0,0.0,0.0,0.0,0.0,0.0,0.0,0.0,0.0,0.0,0.0,0.0,0.0,0.0,0.0,0.0,0.0,0.0,0.0,0.0,0.0,0.0,0.0,0.0,0.0,0.0,0.0,0.0,0.0,0.0,0.0,0.0,0.0,0.0,0.0,0.0,0.0,0.0,0.0701,0.092,0.1366,0.1722,0.1966,0.2099,0.0,0.0,0.0,0.0,0.0,0.0,0.0,0.0,0.0,0.0,0.0,0.0,0.0,0.0,0.0,0.0,0.0,0.0,0.0,0.0,0.0,0.0,0.0,0.0,0.0,0.0,0.0,0.0,0.0,0.0,0.0,0.0,0.0,0.0,0.0,0.0,0.0,0.0,0.0,0.0,0.0,0.0,0.0,0.0,0.0,0.0,0.0,0.0,0.0,0.0,0.0,0.0,0.0,0.0,0.0,0.0,0.0,0.0,0.0,0.0,0.0,0.0,0.0,0.0,0.0,0.0,0.0,0.0,0.0,0.0,0.0,0.0,0.0,0.0,0.0,0.0,0.0,0.0,0.0,0.0,0.0,0.0,0.0,0.0,0.0,0.0,0.0,0.0,0.0,0.0,0.0,0.0,0.0,0.0,0.0,0.0,0.0,0.0,0.0,0.0,0.0,0.0,0.0,0.0,0.0,0.0,0.0,0.0,0.0786,0.0757,0.092,0.1389,0.1435,0.1633,0.0,0.0,0.0,0.0,0.0,0.0,0.0,0.0,0.0,0.0,0.0,0.0,0.0,0.0,0.0,0.0,0.0,0.0,0.0,0.0,0.0,0.0,0.0,0.0,0.0,0.0,0.0,0.0,0.0,0.0,0.0,0.0,0.0,0.0,0.0,0.0,0.0,0.0,0.0,0.0,0.0,0.0,0.0,0.0,0.0,0.0,0.0,0.0,0.0,0.0,0.0,0.0,0.0,0.0,0.0,0.0,0.0,0.0,0.0,0.0,0.0,0.0,0.0,0.0,0.0,0.0,0.0,0.0,0.0,0.0,0.0,0.0,0.0,0.0,0.0,0.0,0.0,0.0,0.0,0.0,0.0,0.0,0.0,0.0,0.0,0.0,0.0,0.0,0.0,0.0,0.0,0.0,0.0,0.0,0.0,0.0,0.0,0.0,0.0,0.0,0.0,0.0,0.0,0.0,0.0,0.0,0.0,0.0,0.0,0.0738,0.0995,0.1278,0.1524,0.1457,0.1657,0.0,0.0,0.0,0.0,0.0,0.0,0.0,0.0,0.0,0.0,0.0,0.0,0.0,0.0,0.0,0.0,0.0,0.0,0.0,0.0,0.0,0.0,0.0,0.0,0.0,0.0,0.0,0.0,0.0,0.0,0.0,0.0,0.0,0.0,0.0,0.0,0.0,0.0,0.0,0.0,0.0,0.0,0.0,0.0,0.0,0.0,0.0,0.0,0.0,0.0,0.0,0.0,0.0,0.0,0.0,0.0,0.0,0.0,0.0,0.0,0.0,0.0,0.0,0.0,0.0,0.0,0.0,0.0,0.0,0.0,0.0,0.0,0.0,0.0,0.0,0.0,0.0,0.0,0.0,0.0,0.0,0.0,0.0,0.0,0.0,0.0,0.0,0.0,0.0,0.0,0.0,0.0,0.0,0.0,0.0,0.0,0.0,0.0,0.0,0.0,0.0,0.0,0.0,0.0,0.0,0.0,0.0,0.0,0.0,0.0991,0.0,0.181,0.1876,0.181,0.1921,0.0,0.0,0.0,0.0,0.0,0.0,0.0,0.0,0.0,0.0,0.0,0.0,0.0,0.0,0.0,0.0,0.0,0.0,0.0,0.0,0.0,0.0,0.0,0.0,0.0,0.0,0.0,0.0,0.0,0.0,0.0,0.0,0.0,0.0,0.0,0.0,0.0,0.0,0.0,0.0,0.0,0.0,0.0,0.0,0.0,0.0,0.0,0.0,0.0,0.0,0.0,0.0,0.0,0.0,0.0,0.0,0.0,0.0,0.0,0.0,0.0,0.0,0.0,0.0,0.0,0.0,0.0,0.0,0.0,0.0,0.0,0.0,0.0,0.0,0.0,0.0,0.0,0.0,0.0,0.0,0.0,0.0,0.0,0.0,0.0,0.0,0.0,0.0,0.0,0.0,0.0,0.0,0.0,0.0,0.0,0.0,0.0,0.0,0.0,0.0,0.0,0.0,0.0,0.0,0.0,0.0,0.0,0.0,0.1092,0.1597,0.2186,0.2495,0.2514,0.2492,0.2453,0.0,0.0,0.0,0.0,0.0,0.0,0.0,0.0,0.0,0.0,0.0,0.0,0.0,0.0,0.0,0.0,0.0,0.0,0.0,0.0,0.0,0.0,0.0,0.0,0.0,0.0,0.0,0.0,0.0,0.0,0.0,0.0,0.0,0.0,0.0,0.0,0.0,0.0,0.0,0.0,0.0,0.0,0.0,0.0,0.0,0.0,0.0,0.0,0.0,0.0,0.0,0.0,0.0,0.0,0.0,0.0,0.0,0.0,0.0,0.0,0.0,0.0,0.0,0.0,0.0,0.0,0.0,0.0,0.0,0.0,0.0,0.0,0.0,0.0,0.0,0.0,0.0,0.0,0.0,0.0,0.0,0.0,0.0,0.0,0.0,0.0,0.0,0.0,0.0,0.0,0.0,0.0,0.0,0.0,0.0,0.0,0.0,0.0,0.0,0.0,0.0,0.0,0.0,0.0,0.0,0.0,0.0,0.0,0.0,0.1638,0.2502,0.2987,0.2987,0.2987,0.3009,0.0,0.0,0.0,0.0,0.0,0.0,0.0,0.0,0.0,0.0,0.0,0.0,0.0,0.0,0.0,0.0,0.0,0.0,0.0,0.0,0.0,0.0,0.0,0.0,0.0,0.0,0.0,0.0,0.0,0.0,0.0,0.0,0.0,0.0,0.0,0.0,0.0,0.0,0.0,0.0,0.0,0.0,0.0,0.0,0.0,0.0,0.0,0.0,0.0,0.0,0.0,0.0,0.0,0.0,0.0,0.0,0.0,0.0,0.0,0.0,0.0,0.0,0.0,0.0,0.0,0.0,0.0,0.0,0.0,0.0,0.0,0.0,0.0,0.0,0.0,0.0,0.0,0.0,0.0,0.0,0.0,0.0,0.0,0.0,0.0,0.0,0.0,0.0,0.0,0.0,0.0,0.0,0.0,0.0,0.0,0.0,0.0,0.0,0.0,0.0,0.0,0.0,0.0,0.0,0.0,0.0,0.0,0.0,0.0,0.2502,0.3338,0.38,0.38,0.3757,0.3683,0.366,0.0,0.0,0.0,0.0,0.0,0.0,0.0,0.0,0.0,0.0,0.0,0.0,0.0,0.0,0.0,0.0,0.0,0.0,0.0,0.0,0.0,0.0,0.0,0.0,0.0,0.0,0.0,0.0,0.0,0.0,0.0,0.0,0.0,0.0,0.0,0.0,0.0,0.0,0.0,0.0,0.0,0.0,0.0,0.0,0.0,0.0,0.0,0.0,0.0,0.0,0.0,0.0,0.0,0.0,0.0,0.0,0.0,0.0,0.0,0.0,0.0,0.0,0.0,0.0,0.0,0.0,0.0,0.0,0.0,0.0,0.0,0.0,0.0,0.0,0.0,0.0,0.0,0.0,0.0,0.0,0.0,0.0,0.0,0.0,0.0,0.0,0.0,0.0,0.0,0.0,0.0,0.0,0.0,0.0,0.0,0.0,0.0,0.0,0.0,0.0,0.0,0.0,0.0,0.0,0.0,0.0,0.0,0.0,0.3968,0.4557,0.4832,0.4808,0.4668,0.4466,0.0,0.0,0.0,0.0,0.0,0.0,0.0,0.0,0.0,0.0,0.0,0.0,0.0,0.0,0.0,0.0,0.0,0.0,0.0,0.0,0.0,0.0,0.0,0.0,0.0,0.0,0.0,0.0,0.0,0.0,0.0,0.0,0.0,0.0,0.0,0.0,0.0,0.0,0.0,0.0,0.0,0.0,0.0,0.0,0.0,0.0,0.0,0.0,0.0,0.0,0.0,0.0,0.0,0.0,0.0,0.0,0.0,0.0,0.0,0.0,0.0,0.0,0.0,0.0,0.0,0.0,0.0,0.0,0.0,0.0,0.0,0.0,0.0,0.0,0.0,0.0,0.0,0.0,0.0,0.0,0.0,0.0,0.0,0.0,0.0,0.0,0.0,0.0,0.0,0.0,0.0,0.0,0.0,0.0,0.0,0.0,0.0,0.0,0.0,0.0,0.0,0.0,0.0,0.0,0.0,0.0,0.0,0.0,0.0,0.4854,0.5354,0.545,0.5107,0.4776,0.4575,0.0,0.0,0.0,0.0,0.0,0.0,0.0,0.0,0.0,0.0,0.0,0.0,0.0,0.0,0.0,0.0,0.0,0.0,0.0,0.0,0.0,0.0,0.0,0.0,0.0,0.0,0.0,0.0,0.0,0.0,0.0,0.0,0.0,0.0,0.0,0.0,0.0,0.0,0.0,0.0,0.0,0.0,0.0,0.0,0.0,0.0,0.0,0.0,0.0,0.0,0.0,0.0,0.0,0.0,0.0,0.0,0.0,0.0,0.0,0.0,0.0,0.0,0.0,0.0,0.0,0.0,0.0,0.0,0.0,0.0,0.0,0.0,0.0,0.0,0.0,0.0,0.0,0.0,0.0,0.0,0.0,0.0,0.0,0.0,0.0,0.0,0.0,0.0,0.0,0.0,0.0,0.0,0.0,0.0,0.0,0.0,0.0,0.0,0.0,0.0,0.0,0.0,0.0,0.0,0.0,0.0,0.0,0.0,0.4658,0.5242,0.5791,0.5979,0.5713,0.5144,0.4766,0.0,0.0,0.0,0.0,0.0,0.0,0.0,0.0,0.0,0.0,0.0,0.0,0.0,0.0,0.0,0.0,0.0,0.0,0.0,0.0,0.0,0.0,0.0,0.0,0.0,0.0,0.0,0.0,0.0,0.0,0.0,0.0,0.0,0.0,0.0,0.0,0.0,0.0,0.0,0.0,0.0,0.0,0.0,0.0,0.0,0.0,0.0,0.0,0.0,0.0,0.0,0.0,0.0,0.0,0.0,0.0,0.0,0.0,0.0,0.0,0.0,0.0,0.0,0.0,0.0,0.0,0.0,0.0,0.0,0.0,0.0,0.0,0.0,0.0,0.0,0.0,0.0,0.0,0.0,0.0,0.0,0.0,0.0,0.0,0.0,0.0,0.0,0.0,0.0,0.0,0.0,0.0,0.0,0.0,0.0,0.0,0.0,0.0,0.0,0.0,0.0,0.0,0.0,0.0,0.0,0.0,0.0,0.0,0.5132,0.5365,0.6036,0.642,0.64,0.5667,0.5095,0.0,0.0,0.0,0.0,0.0,0.0,0.0,0.0,0.0,0.0,0.0,0.0,0.0,0.0,0.0,0.0,0.0,0.0,0.0,0.0,0.0,0.0,0.0,0.0,0.0,0.0,0.0,0.0,0.0,0.0,0.0,0.0,0.0,0.0,0.0,0.0,0.0,0.0,0.0,0.0,0.0,0.0,0.0,0.0,0.0,0.0,0.0,0.0,0.0,0.0,0.0,0.0,0.0,0.0,0.0,0.0,0.0,0.0,0.0,0.0,0.0,0.0,0.0,0.0,0.0,0.0,0.0,0.0,0.0,0.0,0.0,0.0,0.0,0.0,0.0,0.0,0.0,0.0,0.0,0.0,0.0,0.0,0.0,0.0,0.0,0.0,0.0,0.0,0.0,0.0,0.0,0.0,0.0,0.0,0.0,0.0,0.0,0.0,0.0,0.0,0.0,0.0,0.0,0.0,0.0,0.0,0.0,0.0,0.5459,0.5749,0.6193,0.642,0.6416,0.5981,0.5552,0.0,0.0,0.0,0.0,0.0,0.0,0.0,0.0,0.0,0.0,0.0,0.0,0.0,0.0,0.0,0.0,0.0,0.0,0.0,0.0,0.0,0.0,0.0,0.0,0.0,0.0,0.0,0.0,0.0,0.0,0.0,0.0,0.0,0.0,0.0,0.0,0.0,0.0,0.0,0.0,0.0,0.0,0.0,0.0,0.0,0.0,0.0,0.0,0.4416,0.0,0.0,0.0,0.0,0.0,0.0,0.0,0.0,0.0,0.0,0.0,0.0,0.0,0.0,0.0,0.0,0.0,0.0,0.0,0.0,0.0,0.0,0.0,0.0,0.0,0.0,0.0,0.0,0.0,0.0,0.0,0.0,0.0,0.0,0.0,0.0,0.0,0.0,0.0,0.0,0.0,0.0,0.0,0.0,0.0,0.0,0.0,0.0,0.0,0.0,0.0,0.0,0.0,0.0,0.0,0.0,0.0,0.0,0.0,0.5563,0.5892,0.658,0.6905,0.692,0.7076,0.6547,0.0,0.0,0.0,0.0,0.0,0.0,0.0,0.0,0.0,0.0,0.0,0.0,0.0,0.0,0.0,0.0,0.0,0.0,0.0,0.0,0.0,0.0,0.0,0.0,0.0,0.0,0.0,0.0,0.0,0.0,0.0,0.0,0.0,0.0,0.0,0.0,0.0,0.0,0.0,0.0,0.0,0.0,0.0,0.0,0.0,0.0,0.0,0.0,0.0,0.0,0.0,0.0,0.0,0.0,0.0,0.0,0.0,0.0,0.0,0.0,0.0,0.0,0.0,0.0,0.0,0.0,0.0,0.0,0.0,0.0,0.0,0.0,0.0,0.0,0.0,0.0,0.0,0.0,0.0,0.0,0.0,0.0,0.0,0.0,0.0,0.0,0.0,0.0,0.0,0.0,0.0,0.0,0.0,0.0,0.0,0.0,0.0,0.0,0.0,0.0,0.0,0.0,0.0,0.0,0.0,0.0,0.0,0.5222,0.5614,0.6,0.6962,0.7456,0.7354,0.8093,0.7472,0.5305,0.0,0.0,0.0,0.0,0.0,0.0,0.0,0.0,0.0,0.0,0.0,0.0,0.0,0.0,0.0,0.0,0.0,0.0,0.0,0.0,0.0,0.0,0.0,0.0,0.0,0.0,0.0,0.0,0.0,0.0,0.0,0.0,0.0,0.0,0.0,0.0,0.0,0.0,0.2725,0.2352,0.0,0.0,0.0,0.0,0.0,0.0,0.0,0.0,0.3171,0.0,0.0,0.0,0.0,0.0,0.0,0.0,0.0,0.0,0.0,0.0,0.0,0.0,0.0,0.0,0.0,0.0,0.0,0.0,0.0,0.0,0.0,0.0,0.0,0.0,0.0,0.0,0.0,0.0,0.0,0.0,0.0,0.0,0.0,0.0,0.0,0.0,0.0,0.0,0.0,0.0,0.0,0.0,0.0,0.0,0.0,0.0,0.0,0.0,0.0,0.0,0.0,0.0,0.0,0.0,0.0,0.5446,0.5692,0.5971,0.6323,0.7098,0.7195,0.6638,0.7573,0.7189,0.5443,0.0,0.0,0.0,0.0,0.0,0.0,0.0,0.0,0.0,0.0,0.0,0.0,0.0,0.0,0.0,0.0,0.0,0.0,0.0,0.0,0.0,0.0,0.0,0.0,0.0,0.0,0.0,0.0,0.0,0.0,0.0,0.0,0.0,0.0,0.0,0.0,0.0,0.0,0.0,0.1997,0.1729,0.0,0.0,0.0,0.0,0.0,0.0,0.0,0.0,0.403,0.0,0.0,0.0,0.0,0.0,0.0,0.0,0.0,0.0,0.0,0.0,0.0,0.0,0.0,0.0,0.0,0.0,0.0,0.0,0.0,0.0,0.0,0.0,0.0,0.0,0.0,0.0,0.0,0.0,0.0,0.0,0.0,0.0,0.0,0.0,0.0,0.0,0.0,0.0,0.0,0.0,0.0,0.0,0.0,0.0,0.0,0.0,0.0,0.0,0.0,0.0,0.0,0.0,0.0,0.0,0.5575,0.591,0.6184,0.6408,0.7101,0.7326,0.6999,0.7711,0.7441,0.0,0.0,0.0,0.0,0.0,0.0,0.0,0.0,0.0,0.0,0.0,0.0,0.0,0.0,0.0,0.0,0.0,0.0,0.0,0.0,0.0,0.0,0.0,0.0,0.0,0.0,0.0,0.0,0.0,0.0,0.0,0.0,0.0,0.0,0.0,0.0,0.0,0.0,0.0,0.0,0.138,0.1271,0.1252,0.0,0.0,0.0,0.0,0.0,0.0,0.314,0.3216,0.0,0.0,0.0,0.0,0.0,0.0,0.0,0.0,0.0,0.0,0.0,0.0,0.0,0.0,0.0,0.0,0.0,0.0,0.0,0.0,0.0,0.0,0.0,0.0,0.0,0.0,0.0,0.0,0.0,0.0,0.0,0.0,0.0,0.0,0.0,0.0,0.0,0.0,0.0,0.0,0.0,0.0,0.0,0.0,0.0,0.0,0.0,0.0,0.0,0.0,0.0,0.0,0.0,0.0,0.0,0.5457,0.5951,0.6265,0.6408,0.7134,0.7423,0.7288,0.7654,0.7373,0.0,0.0,0.0,0.0,0.0,0.0,0.0,0.0,0.0,0.0,0.0,0.0,0.0,0.0,0.0,0.0,0.0,0.0,0.0,0.0,0.0,0.0,0.0,0.0,0.0,0.0,0.0,0.0,0.0,0.0,0.0,0.0,0.0,0.0,0.0,0.0,0.0,0.0,0.0,0.0,0.0,0.0919,0.0924,0.0948,0.0,0.0,0.0,0.0,0.237,0.2395,0.0,0.0,0.0,0.0,0.0,0.0,0.0,0.0,0.0,0.0,0.0,0.0,0.0,0.0,0.0,0.0,0.0,0.0,0.0,0.0,0.0,0.0,0.0,0.0,0.0,0.0,0.0,0.0,0.0,0.0,0.0,0.0,0.0,0.0,0.0,0.0,0.0,0.0,0.0,0.0,0.0,0.0,0.0,0.0,0.0,0.0,0.0,0.0,0.0,0.0,0.0,0.0,0.0,0.0,0.0,0.0,0.5085,0.5821,0.6265,0.6408,0.7101,0.7199,0.6539,0.6577,0.6332,0.0,0.0,0.0,0.0,0.0,0.0,0.0,0.0,0.0,0.0,0.0,0.0,0.0,0.0,0.0,0.0,0.0,0.0,0.0,0.0,0.0,0.0,0.0,0.0,0.0,0.0,0.0,0.0,0.0,0.0,0.0,0.0,0.0,0.0,0.0,0.0,0.0,0.0,0.0,0.0,0.0,0.0964,0.0922,0.0953,0.0996,0.0,0.0,0.2512,0.2635,0.2756,0.0,0.0,0.0,0.0,0.0,0.0,0.0,0.0,0.0,0.0,0.0,0.0,0.0,0.0,0.0,0.0,0.0,0.0,0.0,0.0,0.0,0.0,0.0,0.0,0.0,0.0,0.0,0.0,0.0,0.0,0.0,0.0,0.0,0.0,0.0,0.0,0.0,0.0,0.0,0.0,0.0,0.0,0.0,0.0,0.0,0.0,0.0,0.0,0.0,0.0,0.0,0.0,0.0,0.0,0.0,0.4447,0.4999,0.5868,0.6339,0.6416,0.6712,0.6745,0.6416,0.6117,0.5898,0.0,0.0,0.0,0.0,0.0,0.0,0.0,0.0,0.0,0.0,0.0,0.0,0.0,0.0,0.0,0.0,0.0,0.0,0.0,0.0,0.0,0.0,0.0,0.0,0.0,0.0,0.0,0.0,0.0,0.0,0.0,0.0,0.0,0.0,0.0,0.0,0.0,0.0,0.0,0.0,0.0,0.0,0.1068,0.1013,0.0,0.0,0.0,0.2348,0.1975,0.0,0.0,0.0,0.0,0.0,0.0,0.0,0.0,0.0,0.0,0.0,0.0,0.0,0.0,0.0,0.0,0.0,0.0,0.0,0.0,0.0,0.0,0.0,0.0,0.0,0.0,0.0,0.0,0.0,0.0,0.0,0.0,0.0,0.0,0.0,0.0,0.0,0.0,0.0,0.0,0.0,0.0,0.0,0.0,0.0,0.0,0.0,0.0,0.0,0.0,0.0,0.0,0.0,0.0,0.0,0.0,0.0,0.4786,0.5845,0.642,0.642,0.642,0.642,0.6412,0.5906,0.0,0.0,0.0,0.0,0.0,0.0,0.0,0.0,0.0,0.0,0.0,0.0,0.0,0.0,0.0,0.0,0.0,0.0,0.0,0.0,0.0,0.0,0.0,0.0,0.0,0.0,0.0,0.1826,0.0,0.0,0.0,0.0,0.0,0.0,0.0,0.0,0.0,0.0,0.0,0.0,0.0,0.0,0.1071,0.1172,0.1102,0.1113,0.0,0.0,0.2097,0.1506,0.2172,0.2454,0.0,0.0,0.0,0.0,0.0,0.0,0.0,0.0,0.0,0.0,0.0,0.0,0.0,0.0,0.0,0.0,0.0,0.0,0.0,0.0,0.0,0.0,0.0,0.0,0.0,0.0,0.0,0.0,0.0,0.0,0.0,0.0,0.0,0.0,0.0,0.0,0.0,0.0,0.0,0.0,0.0,0.0,0.0,0.0,0.0,0.0,0.0,0.0,0.0,0.0,0.0,0.0,0.0,0.0,0.0,0.4208,0.5653,0.642,0.642,0.642,0.642,0.6379,0.6063,0.5902,0.0,0.0,0.0,0.0,0.0,0.0,0.0,0.0,0.0,0.0,0.0,0.0,0.0,0.0,0.0,0.0,0.0,0.0,0.0,0.0,0.0,0.0,0.0,0.0,0.0,0.0,0.0,0.0,0.0,0.0,0.0,0.0,0.0,0.0,0.0,0.0,0.0,0.0,0.0,0.0,0.0,0.1198,0.12,0.1295,0.1458,0.0,0.0,0.1721,0.1698,0.199,0.2014,0.1334,0.0,0.0,0.0,0.0,0.0,0.0,0.0,0.0,0.0,0.0,0.0,0.0,0.0,0.0,0.0,0.0,0.0,0.0,0.0,0.0,0.0,0.0,0.0,0.0,0.0,0.0,0.0,0.0,0.0,0.0,0.0,0.0,0.0,0.0,0.0,0.0,0.0,0.0,0.0,0.0,0.0,0.0,0.0,0.0,0.0,0.0,0.0,0.0,0.0,0.0,0.0,0.0,0.0,0.4075,0.4111,0.5621,0.642,0.642,0.642,0.642,0.6416,0.6071,0.5835,0.0,0.0,0.0,0.0,0.0,0.0,0.0,0.0,0.0,0.0,0.0,0.0,0.0,0.0,0.0,0.0,0.0,0.0,0.0,0.0,0.0,0.0,0.0,0.0,0.0,0.0,0.0,0.0,0.1031,0.0997,0.0816,0.0,0.0,0.0,0.0,0.0,0.0,0.0,0.0,0.0,0.0,0.114,0.1509,0.1447,0.0,0.0,0.1798,0.1779,0.1759,0.187,0.1803,0.1442,0.1383,0.0,0.0,0.0,0.0,0.0,0.0,0.0,0.0,0.0,0.0,0.0,0.0,0.0,0.0,0.0,0.0,0.0,0.0,0.0,0.0,0.0,0.0,0.0,0.0,0.0,0.0,0.0,0.0,0.0,0.0,0.0,0.0,0.0,0.0,0.0,0.0,0.0,0.0,0.0,0.0,0.0,0.0,0.0,0.0,0.0,0.0,0.0,0.0,0.0,0.0,0.0,0.0,0.4169,0.4169,0.5617,0.642,0.642,0.642,0.642,0.6416,0.6176,0.5961,0.0,0.0,0.0,0.0,0.0,0.0,0.0,0.0,0.0,0.0,0.0,0.0,0.0,0.0,0.0,0.0,0.0,0.0,0.0,0.0,0.0,0.0,0.0,0.0,0.0,0.0,0.0,0.0,0.0853,0.0856,0.0784,0.0,0.0,0.0,0.0,0.0,0.0,0.0,0.0,0.0,0.0,0.1205,0.1628,0.1495,0.1469,0.1852,0.1778,0.1658,0.1658,0.1728,0.1678,0.1452,0.0,0.0,0.0,0.0,0.0,0.0,0.0,0.0,0.0,0.0,0.0,0.0,0.0,0.0,0.0,0.0,0.0,0.0,0.0,0.0,0.0,0.0,0.0,0.0,0.0,0.0,0.0,0.0,0.0,0.0,0.8442,0.0,0.0,0.0,0.0,0.0,0.0,0.0,0.0,0.0,0.0,0.0,0.0,0.0,0.0,0.0,0.0,0.0,0.0,0.0,0.0,0.0,0.0,0.429,0.4296,0.5681,0.642,0.642,0.642,0.642,0.642,0.6412,0.6319,0.6163,0.0,0.0,0.0,0.0,0.0,0.0,0.0,0.0,0.0,0.0,0.0,0.0,0.0,0.0,0.0,0.0,0.0,0.0,0.0,0.0,0.0,0.0,0.0,0.0,0.0,0.0,0.0733,0.0774,0.0784,0.0,0.0,0.0,0.0,0.0,0.0,0.0,0.0,0.0,0.0,0.1134,0.1358,0.1514,0.1446,0.1467,0.1692,0.1489,0.1306,0.1338,0.1538,0.1595,0.0,0.0,0.0,0.0,0.0,0.0,0.0,0.0,0.0,0.0,0.0,0.0,0.0,0.0,0.0,0.0,0.0,0.0,0.0,0.0,0.0,0.0,0.0,0.0,0.0,0.0,0.0,0.8611,0.853,0.0,0.0,0.0,0.0,0.0,0.0,0.0,0.0,0.0,0.0,0.0,0.5701,0.5555,0.0,0.0,0.0,0.0,0.0,0.0,0.0,0.0,0.0,0.0,0.0,0.0,0.4251,0.4299,0.5661,0.642,0.642,0.642,0.642,0.642,0.642,0.6331,0.6215,0.0,0.0,0.0,0.0,0.0,0.0,0.0,0.0,0.0,0.0,0.0,0.0,0.0,0.0,0.0,0.0,0.0,0.0,0.0,0.0,0.0,0.0,0.0,0.0,0.0,0.1161,0.0,0.0,0.0,0.0,0.0,0.0,0.0,0.0,0.0,0.0,0.0,0.099,0.1214,0.1272,0.1449,0.1854,0.1735,0.1649,0.0,0.0,0.0,0.0,0.0,0.0,0.0,0.0,0.0,0.0,0.0,0.0,0.0,0.0,0.1518,0.154,0.1513,0.1463,0.1418,0.0,0.0,0.0,0.0,0.0,0.0,0.0,0.0,0.0,0.0,0.0,0.0,0.0,0.0,0.8758,0.0,0.8938,0.0,0.0,0.0,0.0,0.0,0.0,0.0,0.0,0.6406,0.6366,0.5884,0.5766,0.5766,0.0,0.5766,0.5379,0.0,0.0,0.0,0.0,0.0,0.0,0.0,0.0,0.4526,0.4526,0.5761,0.642,0.642,0.642,0.642,0.642,0.642,0.6363,0.6273,0.5984,0.5973,0.0,0.0,0.0,0.0,0.0,0.0,0.0,0.0,0.0,0.0,0.0,0.0,0.0,0.0,0.0,0.0,0.0,0.0,0.0,0.0,0.0,0.0,0.0,0.165,0.0,0.0,0.0,0.0,0.0,0.0,0.0,0.0,0.0,0.0987,0.1067,0.1205,0.1374,0.1345,0.1427,0.1796,0.0,0.0,0.0,0.0,0.0,0.0,0.0,0.1419,0.1366,0.1294,0.1252,0.1178,0.1264,0.1311,0.1311,0.0,0.0,0.1498,0.1426,0.1369,0.1369,0.1369,0.1504,0.2018,0.209,0.2233,0.0,0.0,0.0,0.0,0.0,0.0,0.0,0.0,0.9104,0.8771,0.0,0.9192,0.0,0.0,0.0,0.0,0.0,0.7733,0.0,0.0,0.7871,0.7565,0.6006,0.5933,0.5925,0.59,0.5571,0.5579,0.5882,0.5335,0.0,0.0,0.0,0.0,0.0,0.0,0.5142,0.5053,0.5954,0.644,0.644,0.644,0.6436,0.6399,0.6399,0.6395,0.6412,0.6273,0.6211,0.6199,0.5819,0.0,0.0,0.0,0.0,0.0,0.0,0.0,0.0,0.0,0.0,0.0,0.0,0.0,0.0,0.0,0.0,0.0,0.0,0.0,0.0,0.2475,0.0,0.0,0.0,0.0,0.0,0.0,0.0,0.0,0.0,0.0,0.111,0.1272,0.1382,0.1415,0.0,0.0,0.0,0.0,0.1078,0.1234,0.1185,0.1126,0.1139,0.1439,0.1709,0.1768,0.0,0.0,0.1534,0.1403,0.1329,0.1324,0.1423,0.1514,0.1508,0.1527,0.1525,0.1525,0.1527,0.1523,0.1523,0.1605,0.1604,1.0034,0.0,0.0,0.0,0.0,0.8583,0.8911,0.9439,0.9519,0.9412,0.9198,0.9532,0.0,0.0,0.0,0.0,0.0,0.0,0.7728,0.7223,0.7678,0.748,0.6682,0.6686,0.6682,0.6678,0.6575,0.658,0.6678,0.6511,0.5832,0.4753,0.0,0.0,0.0,0.0,0.5432,0.5687,0.6421,0.6833,0.6833,0.6833,0.6767,0.6607,0.6603,0.6542,0.6424,0.6367,0.631,0.6211,0.6082,0.0,0.0,0.0,0.0,0.0,0.0,0.0,0.0,0.0,0.0,0.0,0.0,0.0,0.0,0.0,0.0,0.0,0.0,0.0,0.2767,0.2865,0.2565,0.0,0.0,0.0,0.0,0.0,0.0,0.0,0.0,0.0,0.1256,0.1264,0.1286,0.0,0.0,0.1477,0.1578,0.153,0.1573,0.1747,0.1521,0.0,0.1692,0.1689,0.164,0.1633,0.1575,0.1463,0.1385,0.133,0.131,0.1308,0.1483,0.165,0.1628,0.1734,0.1774,0.1772,0.1772,0.1846,0.1958,0.1906,0.1813,1.0881,0.9777,0.9436,0.9369,0.9549,0.9556,0.9856,1.0381,1.0374,1.0278,1.0084,1.0274,0.9927,0.9152,0.9014,0.0,0.0,0.0,0.8287,0.7884,0.7903,0.7624,0.7153,0.7059,0.6984,0.6984,0.6984,0.7024,0.7098,0.6951,0.6567,0.5873,0.0,0.0,0.4863,0.5544,0.5988,0.6127,0.67,0.6984,0.6984,0.6984,0.6935,0.6829,0.682,0.6767,0.6635,0.6631,0.6575,0.6396,0.6322,0.6155,0.0,0.0,0.0,0.0,0.0,0.0,0.0,0.0,0.0,0.0,0.0,0.4954,0.4846,0.0,0.0,0.0,0.4649,0.4491,0.3962,0.3504,0.0,0.0,0.0,0.0,0.0,0.0,0.0,0.1185,0.1445,0.1592,0.1559,0.1475,0.1455,0.1501,0.1579,0.1639,0.173,0.0,0.1846,0.1843,0.1673,0.1583,0.1745,0.1723,0.1651,0.1659,0.1559,0.1413,0.1294,0.1324,0.1347,0.1431,0.164,0.185,0.1934,0.2097,0.2141,0.202,0.1979,0.2019,0.2139,0.208,0.2017,1.1535,1.1476,1.0608,1.0472,1.0735,1.0767,1.0981,1.1382,1.1423,1.1129,1.0713,1.1189,1.0835,0.9826,0.9482,0.0,0.9218,0.9177,0.8986,0.8669,0.8461,0.8048,0.7394,0.7222,0.7073,0.7077,0.7069,0.7127,0.7236,0.6933,0.6821,0.6884,0.6805,0.6331,0.5697,0.6354,0.6646,0.6504,0.6859,0.7045,0.7029,0.7033,0.702,0.7012,0.7008,0.7004,0.6988,0.6984,0.691,0.6739,0.653,0.6355,0.6196,0.0,0.0,0.0,0.0,0.0,0.0,0.0,0.0,0.0,0.0,0.0,0.0,0.0,0.0,0.0,0.5144,0.0,0.5605,0.4103,0.0,0.0,0.0,0.1006,0.1096,0.1397,0.1555,0.1379,0.0,0.0,0.1893,0.1793,0.1759,0.1686,0.1719,0.1809,0.1812,0.1849,0.1877,0.1683,0.1657,0.1638,0.1558,0.1681,0.1784,0.1719,0.169,0.1564,0.1354,0.1313,0.1439,0.1611,0.1818,0.2031,0.2285,0.2455,0.2538,0.2199,0.2146,0.2142,0.218,0.2144,0.215,1.2786,1.2766,1.2522,1.1966,1.1256,1.1216,1.1296,1.1389,1.143,1.1315,1.1202,1.1335,1.1235,1.0976,1.044,1.0181,1.0174,0.9846,0.9459,0.9085,0.9175,0.8835,0.8127,0.8091,0.7967,0.776,0.776,0.7705,0.7584,0.7509,0.7306,0.6973,0.694,0.6786,0.6522,0.6846,0.7082,0.7138,0.7447,0.7539,0.7396,0.7396,0.7297,0.7163,0.7163,0.7094,0.6996,0.6984,0.7003,0.6922,0.6747,0.6534,0.6359,0.5982,0.0,0.0,0.0,0.0,0.0,0.0,0.0,0.0,0.0,0.5369,0.5218,0.0,0.4967,0.0,0.5261,0.4675,0.357,0.3215,0.0,0.0,0.1801,0.1608,0.1898,0.1844,0.1762,0.1757,0.1696,0.1651,0.1598,0.1498,0.143,0.1445,0.1646,0.1727,0.1726,0.1672,0.1692,0.177,0.1622,0.1628,0.1882,0.1901,0.1789,0.1808,0.1591,0.1458,0.137,0.1371,0.1414,0.1458,0.1679,0.1856,0.1943,0.2121,0.2342,0.2382,0.2499,0.2566,0.2525,0.243,0.233,1.3206,1.3206,1.3206,1.2826,1.2218,1.2218,1.2218,1.2218,1.2225,1.2181,1.2225,1.2181,1.2225,1.2188,1.1851,1.1403,1.0842,1.0608,1.0056,0.9262,0.9255,0.9057,0.8682,0.8485,0.8312,0.8185,0.8053,0.7892,0.769,0.7484,0.7186,0.679,0.658,0.6408,0.6318,0.6797,0.7133,0.7226,0.748,0.7632,0.7649,0.7529,0.7476,0.7464,0.7464,0.7452,0.7461,0.7392,0.731,0.7229,0.7017,0.6838,0.666,0.6273,0.5921,0.0,0.0,0.0,0.0,0.0,0.0,0.0,0.0,0.0,0.0,0.0,0.4935,0.4839,0.4704,0.4237,0.3318,0.2887,0.25,0.2219,0.1766,0.155,0.1767,0.1777,0.1735,0.1652,0.1668,0.1715,0.1652,0.1618,0.1661,0.1728,0.1749,0.175,0.1751,0.1775,0.1819,0.1882,0.1758,0.1522,0.143,0.1245,0.1014,0.0692,0.0507,0.0368,0.041,0.0409,0.0544,0.0989,0.1211,0.148,0.1885,0.2064,0.2244,0.2327,0.2424,0.2561,0.2731,0.2669,0.2603,1.338,1.338,1.342,1.344,1.3434,1.3394,1.332,1.3206,1.3206,1.3206,1.3206,1.3206,1.3206,1.3174,1.3048,1.2347,1.1295,1.1128,1.0456,0.9365,0.9188,0.9119,0.9082,0.8715,0.8512,0.8471,0.8214,0.796,0.7715,0.7291,0.6859,0.6466,0.6042,0.5793,0.5706,0.6452,0.6906,0.7009,0.7274,0.7552,0.7833,0.7634,0.7626,0.7824,0.7833,0.7902,0.8,0.791,0.7759,0.7557,0.7387,0.7212,0.7057,0.6597,0.6232,0.0,0.5644,0.0,0.0,0.0,0.0,0.0,0.0,0.0,0.0,0.4833,0.4496,0.3808,0.381,0.3845,0.368,0.2769,0.2255,0.2403,0.1747,0.1318,0.1375,0.1598,0.164,0.1431,0.1729,0.1914,0.1812,0.1887,0.2049,0.2008,0.191,0.1806,0.1805,0.1899,0.1954,0.1857,0.1861,0.1471,0.0617,0.0381,0.0095,-0.0617,-0.0756,-0.085,-0.0695,-0.0739,-0.046,0.0409,0.068,0.0996,0.199,0.2174,0.2219,0.2268,0.2265,0.2347,0.2645,0.2731,0.283,1.4233,1.4289,1.4536,1.4673,1.4653,1.4376,1.3868,1.3213,1.3206,1.3206,1.3206,1.3206,1.3206,1.3127,1.2108,1.1542,1.1272,1.0326,0.9797,0.9545,0.971,0.9704,0.9488,0.9407,0.9191,0.8806,0.8758,0.8455,0.7846,0.7538,0.7065,0.6436,0.6175,0.5836,0.55,0.0,0.0,0.0,0.7481,0.7726,0.7967,0.7931,0.7931,0.7963,0.7963,0.0,0.8008,0.7979,0.7951,0.791,0.7752,0.0,0.0,0.0,0.0,0.0,0.0,0.0,0.0,0.0,0.0,0.0,0.5701,0.525,0.5144,0.4515,0.3761,0.3019,0.3128,0.3052,0.2508,0.2252,0.2088,0.1994,0.1847,0.1759,0.1817,0.1903,0.1934,0.1893,0.1793,0.1774,0.1743,0.1828,0.1871,0.1712,0.1779,0.1807,0.1646,0.1677,0.1616,0.1573,0.1579,0.1289,0.0429,0.0286,0.0048,-0.0608,-0.0837,-0.0837,-0.0882,-0.088,-0.0559,0.0187,0.0377,0.0706,0.1743,0.1981,0.2116,0.2542,0.2402,0.2289,0.2307,0.2335,0.2379,1.4736,0.0,1.4941,1.5015,0.0,1.4803,1.4482,1.4062,1.3768,1.3641,1.3647,1.3641,1.3641,1.3613,1.3112,1.2499,1.1795,1.1354,1.0764,1.0107,1.0211,1.0213,1.0078,0.9989,0.9719,0.9362,0.9231,0.8824,0.8094,0.7724,0.722,0.6633,0.6176,0.5855,0.5624,0.5844,0.6335,0.6991,0.7438,0.7731,0.7941,0.7982,0.8057,0.8146,0.0,0.0,0.0,0.0,0.0,0.0,0.0,0.0,0.0,0.0,0.0,0.6956,0.6777,0.6684,0.6718,0.6765,0.6815,0.6936,0.5796,0.484,0.4263,0.3574,0.3051,0.2655,0.2721,0.2658,0.2344,0.226,0.2129,0.1918,0.1977,0.1933,0.1726,0.1928,0.205,0.1984,0.196,0.189,0.182,0.1852,0.1792,0.1619,0.1683,0.1706,0.1634,0.1568,0.1553,0.1519,0.1522,0.1128,0.0049,0.0147,-0.0293,-0.1502,-0.1643,-0.1588,-0.186,-0.1953,-0.1573,-0.0525,-0.0143,0.0333,0.1573,0.2004,0.2194,0.2432,0.2385,0.2231,0.209,0.2129,0.2221,1.5037,1.5089,1.5097,1.5169,1.5162,1.5064,1.5055,1.4975,0.0,0.0,0.0,1.4285,1.4242,1.4262,1.4359,1.3749,1.2616,1.2592,1.1951,1.0801,1.0667,1.057,1.057,1.0385,1.0107,0.9786,0.9605,0.9139,0.8294,0.7868,0.7446,0.6932,0.6319,0.5986,0.5934,0.6313,0.6624,0.6869,0.74,0.7733,0.7947,0.8064,0.8187,0.8333,0.8337,0.8414,0.8604,0.8422,0.8384,0.8337,0.8191,0.8093,0.8057,0.7784,0.7549,0.7337,0.722,0.7175,0.718,0.7281,0.7351,0.7371,0.6123,0.4768,0.3399,0.2795,0.2515,0.2487,0.2526,0.2489,0.2501,0.2383,0.2248,0.1963,0.2036,0.1956,0.1617,0.1915,0.2135,0.2039,0.2046,0.2106,0.1898,0.1912,0.1832,0.1663,0.1672,0.1637,0.1607,0.1595,0.1587,0.1606,0.1558,0.1058,-0.005,-0.0252,-0.0706,-0.2347,-0.245,-0.2445,-0.2908,-0.2992,-0.2293,-0.0871,-0.0481,0.0434,0.1687,0.2271,0.2409,0.2458,0.2409,0.2313,0.2121,0.2121,0.2163,1.5331,1.5351,1.5605,1.5658,1.5691,1.5444,1.5197,1.5008,1.4928,1.4881,1.4843,1.4888,1.4888,1.4843,1.4244,1.3846,1.3576,1.2387,1.1722,0.0,1.0898,1.057,1.057,1.0575,1.0297,0.9833,0.9786,0.927,0.8383,0.8063,0.7684,0.7167,0.6888,0.6652,0.6458,0.691,0.7176,0.7246,0.7658,0.795,0.8162,0.8364,0.8547,0.8528,0.8571,0.8584,0.8608,0.8584,0.8571,0.8571,0.8547,0.8418,0.8264,0.8199,0.8093,0.7918,0.7874,0.7862,0.7858,0.789,0.7585,0.6989,0.6665,0.5767,0.3889,0.2966,0.2531,0.2582,0.2589,0.2529,0.2449,0.238,0.2302,0.2098,0.2098,0.2101,0.2008,0.214,0.2184,0.2227,0.2043,0.1949,0.1915,0.1939,0.186,0.1723,0.1741,0.1863,0.1665,0.1563,0.1612,0.1565,0.1566,0.1212,0.0353,-0.0303,-0.0853,-0.1924,-0.2517,-0.2767,-0.2953,-0.2556,-0.1774,-0.0648,0.01,0.1097,0.2347,0.2704,0.2795,0.2942,0.2842,0.2695,0.2592,0.2346,0.2031,1.5631,1.5645,1.5724,1.5825,1.5771,1.5685,1.5558,1.5438,1.5438,1.5251,1.5022,1.5015,1.5015,1.4977,1.4799,1.4264,1.3436,1.2924,1.2236,1.1434,1.0958,1.0724,1.0719,1.058,1.0288,0.9905,0.9909,0.9468,0.865,0.8609,0.8371,0.788,0.7734,0.7553,0.7286,0.7614,0.7763,0.7684,0.8018,0.8255,0.8345,0.8528,0.8616,0.8616,0.8616,0.8616,0.8616,0.8616,0.8616,0.8616,0.8616,0.8571,0.8442,0.8388,0.8251,0.8166,0.8065,0.8012,0.8012,0.8012,0.7847,0.7477,0.7019,0.6425,0.5523,0.4142,0.319,0.273,0.2651,0.2619,0.2565,0.2593,0.2494,0.2133,0.2265,0.2223,0.1941,0.2057,0.2183,0.2173,0.2132,0.2091,0.1967,0.1985,0.1896,0.1648,0.1711,0.1718,0.1617,0.1566,0.1566,0.1566,0.1566,0.1263,0.0556,0.0505,0.0,-0.1096,-0.1593,-0.2042,-0.234,-0.2041,-0.1398,-0.0553,0.0454,0.1563,0.2624,0.2927,0.3079,0.313,0.313,0.2978,0.2775,0.2373,0.1958,1.5825,1.5825,1.5825,1.5825,1.5825,1.5825,1.5825,1.5825,1.5825,1.5531,1.5152,1.4975,1.493,1.4949,1.4975,1.4266,1.3206,1.3132,1.2452,1.134,1.09,1.0703,1.0703,1.0511,1.0265,1.0068,1.0068,0.9719,0.9072,0.9179,0.9034,0.8531,0.8482,0.8371,0.8108,0.8344,0.8383,0.831,0.8575,0.8635,0.8507,0.8605,0.8649,0.8616,0.8616,0.8616,0.8616,0.8616,0.8616,0.8616,0.8616,0.8616,0.8608,0.843,0.8353,0.8341,0.8219,0.8138,0.8138,0.8138,0.8138,0.8138,0.7548,0.7084,0.679,0.5633,0.4308,0.3267,0.2882,0.2722,0.2759,0.2796,0.2713,0.2406,0.2492,0.2392,0.1912,0.2063,0.2225,0.2116,0.2173,0.2186,0.2012,0.192,0.1817,0.1615,0.1566,0.1566,0.1566,0.1566,0.1566,0.1566,0.1566,0.1414,0.0808,0.0909,0.0707,-0.0403,-0.0755,-0.1107,-0.146,-0.131,-0.0756,0.0101,0.1058,0.2017,0.2775,0.3029,0.318,0.318,0.313,0.2978,0.2725,0.2423,0.2021,1.5825,1.5825,1.5825,1.5825,1.5825,1.5778,1.5784,1.5778,1.5825,1.5663,1.5388,1.4946,1.4744,1.4613,1.3998,1.3482,1.3043,1.2446,1.1942,1.1507,1.0757,1.0413,1.043,1.0422,1.0265,1.0081,1.0233,1.0053,0.9557,0.9541,0.9282,0.8825,0.8775,0.8764,0.8753,0.8954,0.9099,0.9087,0.9256,0.9055,0.853,0.8672,0.8727,0.862,0.8616,0.8616,0.8616,0.8616,0.8616,0.8616,0.8616,0.8616,0.8612,0.8592,0.8584,0.858,0.8563,0.8559,0.8555,0.8559,0.8547,0.8559,0.842,0.8023,0.7237,0.7077,0.6192,0.4507,0.3339,0.2958,0.2962,0.2982,0.2962,0.2922,0.275,0.2585,0.2484,0.2397,0.2316,0.2359,0.2108,0.2017,0.1969,0.1768,0.1617,0.1617,0.1566,0.1566,0.1566,0.1566,0.1566,0.1566,0.1566,0.1566,0.1364,0.0859,0.0657,0.0303,-0.0303,-0.0605,-0.0504,0.005,0.0756,0.0857,0.1967,0.2725,0.2927,0.318,0.318,0.313,0.2978,0.2775,0.2522,0.2371,0.2221,1.5825,1.5825,1.5825,1.5825,1.5784,1.5689,1.5635,1.5635,1.5458,1.5363,1.5198,1.4704,1.4394,1.4214,1.3519,1.2898,1.2311,1.2149,1.1709,1.1208,1.07,1.0552,1.0501,1.0348,1.0196,1.0149,1.0247,1.0145,0.9975,0.9831,0.9576,0.9335,0.9274,0.9278,0.9278,0.9377,0.943,0.943,0.9506,0.9344,0.9063,0.8989,0.8901,0.8739,0.8718,0.8666,0.8624,0.8616,0.8616,0.8616,0.8616,0.8616,0.8616,0.8616,0.8616,0.8616,0.8616,0.8616,0.8616,0.8616,0.8613,0.871,0.8714,0.8579,0.8269,0.7876,0.7158,0.629,0.4808,0.3653,0.3192,0.3058,0.3035,0.2896,0.2714,0.2588,0.229,0.2321,0.2223,0.1961,0.195,0.1899,0.1813,0.1667,0.1617,0.1566,0.1566,0.1566,0.1566,0.1566,0.1566,0.1566,0.1566,0.1566,0.1566,0.1364,0.1162,0.1162,0.0656,0.0252,0.0504,0.0907,0.1311,0.1412,0.2321,0.2876,0.2927,0.313,0.318,0.3029,0.2775,0.2522,0.2422,0.2271,0.2122,1.5825,1.5825,1.5825,1.5825,1.5778,1.5588,1.5499,1.5465,1.5303,1.5197,1.503,1.458,1.4289,1.3964,1.317,1.2289,1.1549,1.1639,1.1347,1.0729,1.0573,1.0525,1.0473,1.0316,1.0212,1.0212,1.036,1.0468,1.0512,1.0287,1.0095,0.9887,0.9825,0.9747,0.9693,0.971,0.9677,0.9628,0.9624,0.9563,0.9425,0.9307,0.9133,0.8922,0.8897,0.8836,0.8763,0.8714,0.8759,0.8759,0.8759,0.8759,0.8759,0.871,0.871,0.8759,0.8714,0.8714,0.871,0.8714,0.8763,0.8877,0.8851,0.8954,0.8979,0.8522,0.8073,0.7594,0.639,0.5058,0.3743,0.3551,0.334,0.2956,0.2757,0.2522,0.2312,0.2234,0.2076,0.1759,0.1801,0.1741,0.1661,0.1566,0.1566,0.1566,0.1566,0.1566,0.1566,0.1566,0.1566,0.1566,0.1566,0.1566,0.1566,0.1516,0.1718,0.1718,0.1262,0.1059,0.1362,0.1614,0.1866,0.2018,0.2675,0.3029,0.3029,0.313,0.3079,0.2775,0.2573,0.2422,0.2271,0.2122,0.2022,1.5825,1.5825,1.5784,1.5845,1.5784,1.5614,1.5519,1.5578,1.5509,1.533,1.5109,1.4843,1.4585,1.427,1.2982,1.17,1.0824,1.075,1.0611,1.0297,1.0237,1.0224,1.0212,1.0212,1.0224,1.0261,1.0684,1.0971,1.1209,1.1036,1.0819,1.0534,1.0323,1.0087,0.9894,0.9913,0.9875,0.9632,0.9624,0.962,0.9608,0.9546,0.9417,0.9137,0.9088,0.9072,0.9056,0.9068,0.9064,0.9068,0.9051,0.906,0.9064,0.9056,0.9047,0.9051,0.9056,0.906,0.9051,0.9043,0.906,0.908,0.9084,0.9096,0.9153,0.9172,0.8808,0.7897,0.7805,0.6888,0.5094,0.4692,0.4237,0.3356,0.2974,0.2828,0.277,0.2334,0.2035,0.1912,0.1815,0.1662,0.1616,0.1566,0.1566,0.1566,0.1566,0.1566,0.1566,0.1566,0.1566,0.1566,0.1566,0.1566,0.1566,0.1566,0.1617,0.1667,0.1718,0.1617,0.1819,0.2021,0.2273,0.2474,0.2725,0.2927,0.3079,0.3079,0.2927,0.2725,0.2624,0.2473,0.2171,0.2071,0.1971,1.5825,1.5845,1.6032,1.6112,1.6091,1.5865,1.5858,1.5969,1.5607,1.5557,1.5658,1.5687,1.5388,1.4729,1.3625,1.2611,1.1608,1.098,1.0609,1.0501,1.0501,1.0501,1.0501,1.0501,1.0501,1.0555,1.0717,1.0761,1.0763,1.0864,1.0748,1.0433,1.0255,1.0117,0.9947,0.9924,0.9842,0.9636,0.9624,0.9624,0.9624,0.9624,0.9559,0.9441,0.9324,0.9257,0.9096,0.9096,0.9096,0.9096,0.9096,0.9096,0.9096,0.9096,0.9096,0.9096,0.9096,0.9096,0.9096,0.9096,0.9149,0.9298,0.931,0.9311,0.9417,0.9494,0.9331,0.9045,0.8981,0.8287,0.7122,0.6215,0.5388,0.442,0.4107,0.3646,0.301,0.2732,0.2571,0.2311,0.202,0.1819,0.1667,0.1566,0.1566,0.1566,0.1566,0.1567,0.1566,0.1566,0.1619,0.1567,0.1566,0.1566,0.1566,0.1566,0.1617,0.1819,0.1869,0.1971,0.2123,0.2125,0.2329,0.229,0.2489,0.2743,0.2903,0.2951,0.2794,0.2784,0.2681,0.2381,0.2072,0.192,0.1819,1.6025,1.6139,1.6326,1.6462,1.639,1.6127,1.6161,1.6281,1.5897,1.5891,1.61,1.6336,1.6079,1.5474,1.457,1.3595,1.2612,1.1339,1.0692,1.0692,1.0692,1.0692,1.0692,1.0692,1.0692,1.0743,1.0802,1.0791,1.08,1.0895,1.0774,1.0498,1.044,1.0293,1.0067,1.0055,0.9924,0.9726,0.9607,0.9624,0.9624,0.9624,0.9624,0.9608,0.9506,0.9393,0.9275,0.9267,0.9267,0.9267,0.9271,0.9271,0.9271,0.9271,0.9267,0.9267,0.9271,0.9267,0.9271,0.9267,0.9324,0.9429,0.9494,0.9506,0.9616,0.9624,0.9624,0.9624,0.9575,0.9225,0.8627,0.7872,0.6874,0.5575,0.5005,0.4457,0.3572,0.3125,0.2776,0.246,0.2271,0.202,0.1819,0.1768,0.1667,0.1617,0.1566,0.162,0.1629,0.1632,0.1637,0.1643,0.1649,0.1702,0.1808,0.1863,0.1683,0.183,0.188,0.208,0.219,0.2241,0.2245,0.2152,0.2259,0.2466,0.2671,0.2721,0.2765,0.2805,0.2601,0.2351,0.2034,0.1768,0.1923,1.644,1.6647,1.67,1.6714,1.6663,1.6428,1.6307,1.6379,1.633,1.6375,1.6465,1.6596,1.6632,1.634,1.5215,1.4358,1.321,1.1496,1.0692,1.0692,1.0692,1.0692,1.0692,1.0692,1.0692,1.0747,1.0966,1.1236,1.1383,1.1156,1.1038,1.1017,1.082,1.0572,1.0358,1.0263,1.0179,0.9918,0.9754,0.9669,0.9632,0.9673,0.9681,0.9669,0.9644,0.9624,0.9562,0.9604,0.953,0.9592,0.9592,0.9616,0.9583,0.9583,0.9604,0.9583,0.9554,0.9562,0.9604,0.9538,0.9571,0.9596,0.9567,0.9604,0.962,0.9624,0.9624,0.9624,0.9624,0.9525,0.9525,0.9327,0.8524,0.6714,0.5563,0.4864,0.4449,0.3473,0.2619,0.2411,0.2321,0.2271,0.2071,0.192,0.182,0.1673,0.1623,0.1633,0.1656,0.1714,0.1726,0.169,0.1743,0.184,0.201,0.2178,0.1927,0.1794,0.1843,0.1944,0.2017,0.2025,0.2032,0.2039,0.2096,0.2306,0.2672,0.2775,0.2823,0.2812,0.2545,0.238,0.2216,0.2104,0.2442,1.6627,1.6727,1.6927,1.7065,1.7041,1.6976,1.701,1.7166,1.701,1.7036,1.7147,1.7074,1.673,1.5921,1.4745,1.3663,1.2694,1.1341,1.0692,1.0747,1.0692,1.0692,1.0692,1.0692,1.0692,1.0692,1.0802,1.0911,1.0966,1.0911,1.0802,1.0785,1.0744,1.06,1.0391,1.0375,1.0265,1.0131,1.0026,0.9998,0.9998,0.9994,1.0041,0.9981,0.9876,0.9807,0.9799,0.9693,0.9628,0.9628,0.9624,0.9624,0.9624,0.9624,0.9624,0.9624,0.9624,0.9624,0.9624,0.9624,0.9624,0.9624,0.9624,0.9624,0.9624,0.9624,0.9624,0.9624,0.9624,0.9624,0.9624,0.9624,0.8924,0.7621,0.6539,0.5386,0.447,0.3307,0.2509,0.2168,0.2121,0.2021,0.182,0.1719,0.1732,0.1697,0.1648,0.1711,0.1683,0.1744,0.1692,0.1703,0.1864,0.198,0.2095,0.2261,0.2238,0.2102,0.2091,0.2033,0.2051,0.1958,0.1965,0.1975,0.2032,0.2247,0.2567,0.2725,0.2775,0.2709,0.2485,0.2424,0.2467,0.2661,0.295,1.6934,1.7048,1.7286,1.736,1.7373,1.7371,1.743,1.7582,1.743,1.7437,1.7529,1.7331,1.669,1.582,1.4798,1.3722,1.259,1.1723,1.1181,1.0857,1.0747,1.0692,1.0692,1.0692,1.0692,1.0692,1.0692,1.0747,1.0857,1.0857,1.0857,1.0852,1.0857,1.0748,1.053,1.0411,1.0314,1.027,1.0197,1.0212,1.0212,1.0212,1.0212,1.0192,1.0046,1.0008,0.9888,0.9778,0.9693,0.964,0.9624,0.9624,0.9624,0.9624,0.9624,0.9624,0.9624,0.9624,0.9624,0.9624,0.9624,0.9624,0.9624,0.9624,0.9624,0.9624,0.9624,0.9624,0.9624,0.9624,0.9575,0.9175,0.8726,0.8074,0.6872,0.5525,0.4028,0.2923,0.2421,0.2225,0.2185,0.2039,0.1888,0.18,0.1759,0.1726,0.1731,0.1741,0.1765,0.1829,0.1832,0.1948,0.2181,0.2239,0.2178,0.2285,0.2449,0.2429,0.2411,0.2352,0.2305,0.2151,0.2104,0.2072,0.2136,0.2302,0.2576,0.2625,0.2674,0.2548,0.2634,0.2672,0.2819,0.3128,0.3527,1.738,1.7628,1.7582,1.7562,1.7562,1.7582,1.7582,1.7589,1.7589,1.7582,1.7483,1.7219,1.6636,1.5891,1.5185,1.4105,1.2985,1.2219,1.1618,1.1076,1.0802,1.0692,1.0692,1.0692,1.0692,1.0692,1.0747,1.0857,1.1076,1.1126,1.1131,1.1126,1.1131,1.1017,1.0807,1.058,1.0518,1.0486,1.0351,1.0282,1.0277,1.0269,1.0269,1.0273,1.0245,1.0111,0.9994,0.99,0.9791,0.9652,0.9624,0.9624,0.9624,0.9624,0.9624,0.9624,0.9624,0.9624,0.9624,0.9624,0.9624,0.9624,0.9624,0.9624,0.9624,0.9624,0.9624,0.9624,0.9624,0.9624,0.9426,0.8924,0.8276,0.7736,0.6537,0.488,0.2877,0.2479,0.2386,0.2343,0.2416,0.2388,0.2078,0.2052,0.1962,0.1813,0.1761,0.1829,0.185,0.1974,0.2153,0.2328,0.2497,0.2496,0.2429,0.2539,0.2703,0.2749,0.2733,0.2674,0.2564,0.2405,0.2302,0.2271,0.2284,0.2458,0.2571,0.2612,0.2878,0.3132,0.3108,0.3086,0.3455,0.4045,0.4612,1.7508,1.7635,1.7589,1.7589,1.7589,1.7589,1.7589,1.7589,1.7589,1.7483,1.7272,1.6948,1.6305,1.5227,1.4315,1.3241,1.2382,1.1514,1.1076,1.0857,1.0747,1.0692,1.0692,1.0692,1.0692,1.0747,1.0911,1.1017,1.1131,1.135,1.1459,1.1459,1.1459,1.1404,1.1332,1.1021,1.0895,1.0895,1.0687,1.0538,1.0538,1.0588,1.0554,1.0546,1.0432,1.0343,1.0257,1.0022,0.9807,0.9644,0.9624,0.9624,0.9624,0.9624,0.9624,0.9624,0.9624,0.9624,0.9624,0.9624,0.9624,0.9624,0.9624,0.9624,0.9624,0.9624,0.9624,0.9624,0.9624,0.9632,0.9533,0.929,0.8428,0.678,0.5638,0.4364,0.3079,0.2575,0.2431,0.2306,0.2318,0.2273,0.2225,0.2182,0.2201,0.2112,0.2066,0.2074,0.2155,0.2223,0.2397,0.2624,0.2796,0.2799,0.2799,0.2911,0.2964,0.3015,0.3006,0.2944,0.2888,0.2723,0.2619,0.2577,0.2573,0.2688,0.269,0.274,0.312,0.3717,0.3821,0.3909,0.4972,0.5691,0.6023,1.7589,1.7589,1.7589,1.7589,1.7589,1.7589,1.7589,1.7589,1.7589,1.743,1.7173,1.7014,1.6252,1.5179,1.4159,1.3192,1.2332,1.1291,1.0907,1.0857,1.0747,1.0692,1.0692,1.0692,1.0743,1.0852,1.1021,1.124,1.1459,1.1678,1.1728,1.1732,1.1787,1.1732,1.1568,1.1404,1.124,1.1072,1.0911,1.0852,1.0692,1.0692,1.0688,1.0676,1.0586,1.0517,1.0358,1.0152,0.992,0.9766,0.9677,0.9624,0.9624,0.9624,0.9624,0.9624,0.9624,0.9624,0.9624,0.9624,0.9624,0.9624,0.9624,0.9624,0.9624,0.9624,0.9624,0.9624,0.9624,0.9665,0.9638,0.9392,0.8092,0.6192,0.5124,0.4193,0.2936,0.2622,0.2476,0.2393,0.2359,0.2371,0.2371,0.2383,0.2405,0.2426,0.2433,0.2388,0.2404,0.2521,0.2635,0.2859,0.3027,0.3083,0.3027,0.3026,0.3082,0.3137,0.3249,0.325,0.3082,0.2971,0.2915,0.2861,0.2861,0.2973,0.3141,0.3419,0.397,0.4408,0.4529,0.5087,0.6091,0.676,0.7152,1.7589,1.7589,1.7589,1.7589,1.7589,1.7589,1.7589,1.7589,1.7529,1.7378,1.7173,1.7126,1.6477,1.5512,1.4433,1.3684,1.2876,1.1564,1.1126,1.1021,1.0966,1.0852,1.0911,1.0857,1.0907,1.1126,1.1185,1.1509,1.1837,1.2005,1.206,1.206,1.206,1.1896,1.1787,1.1678,1.1459,1.1236,1.1076,1.0907,1.0747,1.0692,1.0692,1.0688,1.068,1.0603,1.0473,1.0286,1.0119,0.9953,0.9774,0.9726,0.9705,0.9689,0.9665,0.9657,0.9648,0.9624,0.9624,0.9624,0.9624,0.9624,0.9624,0.9644,0.9665,0.9681,0.9701,0.975,0.9639,0.9791,0.9799,0.9168,0.7974,0.6315,0.5633,0.4424,0.3316,0.2781,0.2674,0.268,0.2665,0.2627,0.2642,0.2719,0.2747,0.2724,0.2733,0.2737,0.2744,0.2801,0.2914,0.3138,0.3307,0.3419,0.3306,0.3194,0.3194,0.325,0.3418,0.3419,0.3306,0.3194,0.3194,0.3194,0.3475,0.3811,0.4203,0.4534,0.4977,0.5421,0.581,0.6366,0.7038,0.7429,0.7787,1.7589,1.7589,1.7589,1.7589,1.7589,1.7589,1.7641,1.7582,1.7378,1.7166,1.6895,1.6842,1.6418,1.5725,1.4433,1.357,1.297,1.1618,1.0907,1.1131,1.135,1.1404,1.1358,1.1207,1.1194,1.1459,1.1732,1.1896,1.206,1.2223,1.2332,1.2278,1.2278,1.2278,1.2164,1.1951,1.1787,1.1509,1.124,1.0962,1.0747,1.0692,1.0692,1.0692,1.0692,1.0676,1.0619,1.0469,1.0359,1.0286,1.0156,1.0094,0.9994,0.9896,0.9835,0.9807,0.9709,0.9644,0.9636,0.9657,0.9632,0.9661,0.9681,0.9635,0.9823,0.9827,0.99,1.0002,1.0098,1.009,1.0047,0.9183,0.8431,0.76,0.6391,0.5285,0.4678,0.3885,0.3225,0.3034,0.2995,0.3009,0.3009,0.3013,0.3027,0.3027,0.3027,0.3027,0.3082,0.3082,0.3194,0.3362,0.3419,0.3531,0.3475,0.3362,0.3362,0.3362,0.3531,0.3811,0.3642,0.3586,0.3698,0.3866,0.4147,0.4594,0.5206,0.565,0.6093,0.6591,0.7091,0.7482,0.7875,0.8211,0.8325,1.7589,1.7635,1.7747,1.7799,1.7799,1.7898,1.795,1.7898,1.7701,1.7378,1.7054,1.6624,1.6099,1.5571,1.411,1.3251,1.2866,1.1782,1.1185,1.1375,1.1597,1.1769,1.1961,1.1822,1.1826,1.1832,1.1891,1.2055,1.2219,1.2327,1.2382,1.2382,1.2382,1.2382,1.2382,1.2223,1.1951,1.1623,1.1459,1.1126,1.0802,1.0692,1.0692,1.0692,1.0692,1.0692,1.0672,1.0611,1.0562,1.053,1.0456,1.0371,1.0233,1.0075,1.0073,1.0045,0.9945,0.988,0.988,0.988,0.9888,0.9868,0.9876,0.9925,0.9994,1.0014,1.0102,1.0184,1.0216,1.0237,1.0282,1.0059,0.9481,0.8713,0.7759,0.6641,0.5624,0.4386,0.3491,0.3356,0.3301,0.3304,0.3306,0.3306,0.3306,0.3307,0.3363,0.3363,0.3363,0.3362,0.3419,0.3531,0.3531,0.3587,0.3587,0.3531,0.3531,0.3531,0.3531,0.3979,0.4257,0.4257,0.4258,0.4594,0.4927,0.5761,0.6318,0.6763,0.7152,0.7709,0.8152,0.8488,0.8602,0.8602,0.8602,1.7589,1.7635,1.7852,1.7911,1.7964,1.8167,1.8213,1.8213,1.7859,1.7325,1.716,1.6205,1.5512,1.497,1.3738,1.294,1.2562,1.2234,1.1777,1.1851,1.2073,1.2239,1.2444,1.2508,1.2472,1.217,1.2197,1.2288,1.2341,1.2382,1.2382,1.2382,1.2382,1.2382,1.2382,1.2382,1.2114,1.1678,1.1568,1.1236,1.0798,1.0692,1.0692,1.0692,1.0692,1.0692,1.0692,1.0676,1.068,1.0692,1.0692,1.053,1.0331,1.0209,1.0201,1.0253,1.0148,1.0103,1.0091,1.0171,1.018,1.0212,1.02,1.0224,1.0241,1.0209,1.029,1.0314,1.0351,1.0396,1.0465,1.0446,1.0093,0.9409,0.9082,0.8088,0.6533,0.4868,0.4085,0.364,0.3531,0.3475,0.3531,0.3531,0.3587,0.3643,0.3643,0.3699,0.3699,0.3643,0.3699,0.3643,0.3643,0.3587,0.3587,0.3699,0.3699,0.4035,0.3923,0.4424,0.4983,0.5427,0.5594,0.5427,0.5873,0.6652,0.7207,0.754,0.8042,0.8771,0.8881,0.8771,0.8826,0.8881,0.8937,1.7589,1.7589,1.7641,1.7687,1.7687,1.774,1.7793,1.7529,1.6755,1.6264,1.6111,1.5256,1.4752,1.4304,1.3684,1.2859,1.2376,1.2257,1.24,1.2466,1.2652,1.2904,1.2922,1.2988,1.2927,1.2885,1.2758,1.2603,1.2438,1.2382,1.2405,1.2391,1.2382,1.2382,1.2382,1.2382,1.2114,1.1678,1.1568,1.1295,1.0857,1.0692,1.0692,1.0692,1.0692,1.0692,1.0692,1.0692,1.0692,1.0692,1.0692,1.0655,1.0562,1.0448,1.04,1.0363,1.0278,1.0282,1.0277,1.0245,1.0224,1.0212,1.0249,1.027,1.0347,1.0396,1.0432,1.0521,1.0562,1.0603,1.0643,1.0672,1.0629,1.0194,0.953,0.8809,0.7977,0.6589,0.4979,0.4536,0.4089,0.3643,0.3643,0.3699,0.3811,0.3867,0.3979,0.4035,0.4145,0.4035,0.3868,0.3813,0.3757,0.3643,0.3587,0.3755,0.3867,0.4648,0.4871,0.526,0.5873,0.676,0.6982,0.6707,0.6818,0.7374,0.7875,0.8208,0.8488,0.8881,0.8937,0.8937,0.8937,0.8937,0.8937,1.7799,1.7859,1.8122,1.7905,1.7575,1.8167,1.7786,1.6802,1.6722,1.6408,1.5747,1.4905,1.442,1.4143,1.3482,1.2885,1.2701,1.2719,1.2836,1.2907,1.3116,1.3235,1.3258,1.3325,1.3306,1.324,1.3117,1.2909,1.2639,1.2611,1.255,1.2396,1.2382,1.2382,1.2382,1.2382,1.2114,1.1732,1.1568,1.1295,1.0747,1.0692,1.0692,1.0692,1.0692,1.0692,1.0692,1.0692,1.0692,1.0692,1.0692,1.0692,1.0664,1.0623,1.0562,1.0542,1.0473,1.0482,1.0432,1.0436,1.0448,1.044,1.0482,1.0473,1.0538,1.0578,1.0599,1.066,1.0692,1.0692,1.0684,1.0692,1.0692,1.0637,1.0139,0.964,0.903,0.7867,0.6813,0.5648,0.459,0.4089,0.3813,0.3924,0.3979,0.4091,0.4258,0.4369,0.4536,0.4314,0.4148,0.4203,0.4203,0.4313,0.4313,0.4424,0.4646,0.526,0.5708,0.6096,0.6594,0.7371,0.7817,0.7875,0.8042,0.8097,0.8322,0.8657,0.8826,0.8937,0.8937,0.8937,0.8937,0.8937,0.8937,1.8016,1.8016,1.8331,1.7905,1.7298,1.8265,1.7767,1.6464,1.7041,1.6794,1.5768,1.4874,1.4282,1.3972,1.3556,1.3131,1.314,1.3173,1.3225,1.3258,1.3372,1.3452,1.3495,1.3566,1.3584,1.3462,1.3424,1.323,1.2895,1.2824,1.2701,1.2592,1.2517,1.241,1.2396,1.2382,1.206,1.1787,1.1568,1.1291,1.0857,1.0692,1.0692,1.0692,1.0692,1.0692,1.0692,1.0692,1.0692,1.0692,1.0692,1.0692,1.0692,1.0692,1.0692,1.0692,1.0692,1.0692,1.068,1.0668,1.0635,1.0627,1.0672,1.0684,1.068,1.0664,1.068,1.0692,1.0692,1.0692,1.0692,1.0692,1.0692,1.0692,1.0637,1.0417,0.9805,0.8975,0.8312,0.698,0.5369,0.4758,0.4758,0.4147,0.4258,0.4426,0.4538,0.4707,0.4819,0.4538,0.4428,0.4594,0.476,0.5035,0.5146,0.5371,0.5759,0.6316,0.6652,0.693,0.7374,0.7928,0.8263,0.8491,0.8602,0.8657,0.8881,0.8937,0.8937,0.8937,0.8937,0.8937,0.8937,0.8937,0.8937,1.8016,1.7911,1.7265,1.6836,1.6789,1.7014,1.6936,1.67,1.6945,1.6698,1.5788,1.488,1.4013,1.3485,1.3403,1.3343,1.3395,1.3485,1.3542,1.3547,1.3594,1.3618,1.3641,1.3665,1.3674,1.3613,1.3627,1.341,1.314,1.3055,1.2979,1.2767,1.271,1.2644,1.2498,1.2434,1.211,1.1682,1.1568,1.1295,1.0802,1.0692,1.0692,1.0692,1.0692,1.0692,1.0692,1.0692,1.0692,1.0692,1.0692,1.0692,1.0692,1.0692,1.0692,1.0692,1.0692,1.0692,1.0692,1.0692,1.0692,1.0692,1.0692,1.0692,1.0692,1.0692,1.0692,1.0692,1.0692,1.0692,1.0692,1.0692,1.0692,1.0692,1.0692,1.0692,1.0359,0.9805,0.9199,0.8699,0.7199,0.6366,0.6033,0.5146,0.4536,0.4706,0.4931,0.5154,0.5266,0.5262,0.5148,0.5369,0.5646,0.5977,0.6313,0.6482,0.6871,0.7482,0.7651,0.7817,0.8208,0.8595,0.8657,0.8881,0.8937,0.8937,0.8937,0.8937,0.8937,0.8937,0.8937,0.8937,0.8937,0.8937,0.8937,1.747,1.7463,1.7318,1.6925,1.6516,1.6427,1.6466,1.6428,1.6148,1.6045,1.572,1.4592,1.3771,1.3541,1.3528,1.3556,1.358,1.3651,1.3688,1.3688,1.3688,1.3688,1.3684,1.3688,1.3688,1.3688,1.3679,1.3627,1.341,1.3277,1.3145,1.3022,1.2923,1.2833,1.2639,1.2625,1.2325,1.1882,1.1514,1.1126,1.0802,1.0692,1.0747,1.0747,1.0747,1.0747,1.0747,1.0692,1.0692,1.0692,1.0692,1.0692,1.0692,1.0692,1.0692,1.0692,1.0692,1.0692,1.0692,1.0692,1.0692,1.0692,1.0692,1.0692,1.0692,1.0692,1.0692,1.0692,1.0692,1.0692,1.0692,1.0692,1.0692,1.0692,1.0692,1.0692,1.0637,1.0417,0.9919,0.9471,0.9082,0.8251,0.7473,0.6922,0.6369,0.6258,0.6424,0.6591,0.676,0.676,0.6589,0.6475,0.6753,0.703,0.7423,0.7706,0.8149,0.8595,0.8816,0.8985,0.9096,0.9323,0.9161,0.9051,0.8992,0.8992,0.8937,0.8937,0.8937,0.8937,0.8937,0.8937,0.8937,0.8937,0.8937,1.6702,1.6819,1.6825,1.6624,1.6314,1.6326,1.6575,1.6785,1.6606,1.6512,1.6158,1.5188,1.4381,1.4102,1.4083,1.3959,1.3684,1.3688,1.3688,1.3688,1.3688,1.3688,1.3688,1.3688,1.3688,1.3688,1.3688,1.366,1.3622,1.3523,1.3358,1.3159,1.315,1.3027,1.288,1.2762,1.2483,1.1969,1.1514,1.1185,1.1021,1.0966,1.0966,1.0966,1.0966,1.0911,1.0907,1.0857,1.0802,1.0802,1.0747,1.0692,1.0692,1.0692,1.0692,1.0692,1.0692,1.0692,1.0692,1.0692,1.0692,1.0692,1.0692,1.0692,1.0692,1.0692,1.0692,1.0692,1.0692,1.0692,1.0692,1.0692,1.0692,1.0692,1.0692,1.0692,1.0692,1.0527,1.0417,1.0194,0.986,0.9801,0.9192,0.8751,0.8364,0.7974,0.7971,0.8026,0.8029,0.7977,0.7977,0.7805,0.8247,0.8472,0.8644,0.9037,0.9427,0.9537,0.9761,0.9761,0.9596,0.9489,0.9272,0.9158,0.9103,0.8992,0.8937,0.8937,0.8937,0.8937,0.8937,0.8937,0.8937,0.8937,0.8937,1.5695,1.5914,1.5142,1.5488,1.6405,1.6575,1.7172,1.8064,1.8841,1.8422,1.7382,1.6626,1.5575,1.5051,1.4634,1.4282,1.3688,1.3688,1.3688,1.3688,1.3688,1.3688,1.3688,1.3688,1.3688,1.3688,1.3688,1.3688,1.3684,1.3655,1.3518,1.3395,1.3367,1.323,1.306,1.2895,1.2622,1.2124,1.174,1.1603,1.1485,1.1472,1.1459,1.1459,1.1514,1.1514,1.1509,1.1131,1.0966,1.0966,1.0802,1.0692,1.0692,1.0692,1.0692,1.0692,1.0692,1.0692,1.0692,1.0692,1.0692,1.0692,1.0692,1.0692,1.0692,1.0692,1.0692,1.0692,1.0692,1.0692,1.0692,1.0692,1.0692,1.0692,1.0692,1.0692,1.0692,1.0692,1.0637,1.0692,1.0578,1.0359,1.0304,0.975,0.9361,0.8968,0.8803,0.8858,0.8861,0.8865,0.914,0.9306,0.9915,1.0084,1.0029,1.0143,1.0033,0.9923,1.0033,0.9871,0.9651,0.9489,0.9544,0.9268,0.9158,0.9047,0.8937,0.8937,0.8937,0.8937,0.8937,0.8937,0.8937,0.8937,0.8937,1.6126,1.5675,1.5549,1.6375,1.759,1.6964,1.7742,1.9017,1.8288,1.7573,1.7044,1.6626,1.5989,1.517,1.4401,1.4102,1.3753,1.3688,1.3688,1.3688,1.3688,1.3688,1.3688,1.3688,1.3688,1.3688,1.3688,1.3688,1.3688,1.3688,1.366,1.3589,1.3556,1.3443,1.3263,1.3065,1.2735,1.2473,1.214,1.1975,1.1782,1.1676,1.1568,1.1568,1.135,1.1295,1.1236,1.1017,1.0911,1.0857,1.0747,1.0747,1.0692,1.0692,1.0692,1.0692,1.0692,1.0692,1.0692,1.0692,1.0692,1.0692,1.0692,1.0692,1.0692,1.0692,1.0692,1.0692,1.0692,1.0692,1.0692,1.0692,1.0692,1.0692,1.0692,1.0692,1.0692,1.0692,1.0692,1.0692,1.0692,1.0637,1.0637,1.0582,1.0245,0.9856,0.9746,0.9636,0.9636,0.964,0.986,0.9974,1.0472,1.0637,1.0527,1.0472,1.0472,1.0363,1.0308,1.0143,0.9926,0.9981,0.9981,0.9596,0.9268,0.9213,0.9103,0.8937,0.8937,0.8937,0.8937,0.8937,0.8937,0.8937,0.8937,1.6518,1.6184,1.6658,1.7497,1.8368,1.7658,1.8442,1.9717,1.8441,1.7214,1.6926,1.6868,1.6225,1.517,1.452,1.3928,1.3808,1.3688,1.3688,1.3688,1.3688,1.3688,1.3688,1.3688,1.3688,1.3688,1.3688,1.3688,1.3688,1.3688,1.3679,1.3674,1.3684,1.358,1.3476,1.3282,1.3021,1.2808,1.2606,1.2458,1.2266,1.2176,1.1926,1.1917,1.1674,1.1456,1.1316,1.1076,1.0911,1.0857,1.0798,1.0747,1.0692,1.0692,1.0692,1.0692,1.0692,1.0692,1.0692,1.0692,1.0692,1.0692,1.0692,1.0692,1.0692,1.0692,1.0692,1.0692,1.0692,1.0692,1.0692,1.0692,1.0692,1.0692,1.0692,1.0692,1.0692,1.0692,1.0692,1.0692,1.0692,1.0692,1.0692,1.0692,1.0578,1.03,1.0245,1.019,1.0245,1.0304,1.0414,1.0523,1.0637,1.0692,1.0692,1.0637,1.0582,1.0582,1.0527,1.0472,1.0417,1.0417,1.0198,0.9761,0.9489,0.9375,0.9323,0.9323,0.9158,0.8937,0.8937,0.8937,0.8937,0.8937,0.8937,1.6631,1.7582,1.8175,1.8468,1.8654,1.8737,1.9441,2.0155,1.957,1.8635,1.7572,1.7519,1.6644,1.5348,1.4759,1.4286,1.3808,1.3688,1.3688,1.3688,1.3688,1.3688,1.3688,1.3688,1.3688,1.3688,1.3688,1.3688,1.3688,1.3688,1.3688,1.3688,1.3688,1.3674,1.3655,1.3485,1.3282,1.3107,1.3093,1.3008,1.2936,1.2889,1.2594,1.2399,1.2194,1.1959,1.1555,1.1245,1.1067,1.0916,1.0747,1.0692,1.0692,1.0692,1.0692,1.0692,1.0747,1.0747,1.0747,1.0747,1.0747,1.0747,1.0692,1.0692,1.0692,1.0692,1.0692,1.0692,1.0692,1.0692,1.0692,1.0692,1.0692,1.0692,1.0692,1.0692,1.0692,1.0692,1.0692,1.0692,1.0692,1.0692,1.0692,1.0692,1.0692,1.0637,1.0692,1.0692,1.0692,1.0692,1.0692,1.0692,1.0692,1.0692,1.0692,1.0692,1.0692,1.0692,1.0692,1.0637,1.0527,1.0472,1.0202,0.9926,0.9816,0.9706,0.9761,0.9761,0.9489,0.9213,0.9051,0.8995,0.8937,0.8937,0.8937,1.8529,1.9088,1.9534,1.9687,1.9709,1.9811,2.0033,2.004,1.91,1.7929,1.6985,1.6408,1.5822,1.5056,1.452,1.4107,1.3808,1.3688,1.3688,1.3688,1.3688,1.3688,1.3688,1.3688,1.3688,1.3688,1.3688,1.3688,1.3688,1.3688,1.3688,1.3688,1.3688,1.3688,1.3674,1.3603,1.3532,1.3466,1.3377,1.3277,1.3263,1.3159,1.3051,1.2805,1.262,1.2294,1.1844,1.1488,1.1274,1.1024,1.0851,1.0843,1.078,1.078,1.0759,1.081,1.0806,1.1076,1.1185,1.1295,1.1076,1.0911,1.0747,1.0747,1.0692,1.0692,1.0692,1.0692,1.0692,1.0692,1.0692,1.0692,1.0692,1.0692,1.0692,1.0692,1.0692,1.0692,1.0692,1.0692,1.0692,1.0692,1.0692,1.0692,1.0692,1.0692,1.0692,1.0692,1.0692,1.0692,1.0692,1.0692,1.0692,1.0692,1.0692,1.0692,1.0692,1.0692,1.0692,1.0692,1.0582,1.0527,1.0417,1.0202,1.0147,1.0091,1.0036,0.9926,0.9765,0.9544,0.9379,0.9158,0.9047,0.9047,0.9047,1.9562,1.9696,2.021,2.0359,2.0314,2.027,2.0213,1.9758,1.8519,1.7519,1.6985,1.6343,1.5704,1.5229,1.4808,1.4043,1.3868,1.4102,1.3808,1.3808,1.3688,1.3688,1.3688,1.3688,1.3688,1.3688,1.3688,1.3688,1.3688,1.3688,1.3688,1.3688,1.3748,1.3688,1.3684,1.3674,1.367,1.3613,1.3537,1.3495,1.3457,1.3377,1.3205,1.3033,1.2809,1.2501,1.2082,1.1772,1.1564,1.129,1.1201,1.1201,1.1197,1.1155,1.113,1.1173,1.1215,1.1422,1.1514,1.1568,1.135,1.1131,1.0966,1.0857,1.0802,1.0743,1.0747,1.0692,1.0692,1.0692,1.0692,1.0692,1.0692,1.0692,1.0692,1.0692,1.0692,1.0692,1.0692,1.0692,1.0747,1.0747,1.0747,1.0692,1.0692,1.0692,1.0692,1.07,1.0708,1.0712,1.072,1.0724,1.072,1.0724,1.0712,1.0692,1.0692,1.0692,1.0716,1.0745,1.0692,1.0637,1.0527,1.0472,1.0421,1.0366,1.0257,1.0147,1.0091,0.9981,0.9871,0.9596,0.9265,0.9213,0.9268,1.9646,1.9595,2.0373,2.0537,2.0328,2.0097,1.9815,1.9301,1.835,1.7877,1.7753,1.7578,1.6697,1.558,1.5983,1.5451,1.4451,1.4867,1.4515,1.4102,1.3988,1.3868,1.3748,1.3688,1.3688,1.3688,1.3688,1.3688,1.3688,1.3988,1.3988,1.3928,1.4222,1.4277,1.4277,1.4282,1.4102,1.3849,1.366,1.3627,1.3599,1.3801,1.3568,1.3316,1.3138,1.2861,1.2511,1.2206,1.2131,1.21,1.2104,1.2117,1.2074,1.1968,1.1911,1.1888,1.1755,1.1729,1.183,1.1899,1.183,1.1751,1.1436,1.1224,1.1072,1.0907,1.0798,1.0747,1.0747,1.0747,1.0692,1.0692,1.0692,1.0692,1.0692,1.0692,1.0692,1.0692,1.0692,1.0747,1.0743,1.0743,1.0802,1.0802,1.0877,1.0826,1.0839,1.0777,1.0785,1.0773,1.0781,1.0781,1.0777,1.0765,1.0765,1.0818,1.0842,1.0891,1.0838,1.0842,1.0773,1.0745,1.0714,1.0718,1.0716,1.0641,1.0476,1.0472,1.0472,1.0363,1.026,0.9923,0.9596,0.9596,0.9596,2.0125,2.0094,2.0508,2.0436,1.9866,1.8984,1.846,1.8286,1.7987,1.7572,1.6921,1.6921,1.675,1.6161,1.6397,1.6096,1.5983,1.5806,1.5397,1.4992,1.452,1.4227,1.3928,1.3688,1.3688,1.3688,1.3688,1.3688,1.3868,1.4222,1.4639,1.4759,1.5165,1.5456,1.551,1.5634,1.4813,1.4162,1.3928,1.3928,1.4047,1.4282,1.398,1.3713,1.3921,1.357,1.293,1.2709,1.2606,1.2312,1.2281,1.221,1.2197,1.2148,1.2122,1.2402,1.2348,1.2382,1.2603,1.266,1.258,1.2496,1.2285,1.1899,1.1568,1.1219,1.1059,1.0982,1.0884,1.0896,1.0833,1.0765,1.0753,1.0741,1.0724,1.0692,1.0747,1.0747,1.0747,1.0798,1.0852,1.0907,1.0911,1.1059,1.108,1.1024,1.0947,1.0962,1.0943,1.0999,1.1003,1.1007,1.11,1.1172,1.1073,1.1135,1.1082,1.1082,1.1021,1.0988,1.1001,1.0972,1.0915,1.0875,1.0846,1.0769,1.0692,1.072,1.075,1.0724,1.0602,1.026,1.0036,1.0103,1.0205,1.9759,2.009,2.0033,1.9917,1.9635,1.8874,1.8525,1.8409,1.811,1.7695,1.7701,1.7701,1.7461,1.7161,1.7461,1.7285,1.645,1.6803,1.6397,1.5229,1.5116,1.4461,1.3983,1.3688,1.3688,1.3688,1.3688,1.3688,1.3988,1.4639,1.5116,1.5693,1.6338,1.645,1.6391,1.6214,1.5575,1.4927,1.4575,1.4515,1.4575,1.4759,1.4401,1.4043,1.4456,1.4015,1.3459,1.3317,1.3062,1.2858,1.279,1.2786,1.2768,1.2731,1.2653,1.2802,1.2808,1.2851,1.296,1.3032,1.3055,1.3074,1.2907,1.2541,1.2149,1.1793,1.1565,1.1401,1.1212,1.1079,1.0939,1.0854,1.083,1.081,1.0753,1.0696,1.0747,1.0802,1.0852,1.0907,1.0962,1.1072,1.1152,1.1313,1.1428,1.1479,1.1505,1.149,1.1406,1.1354,1.1354,1.1354,1.1465,1.1625,1.1528,1.1388,1.1294,1.1261,1.1159,1.1147,1.12,1.1171,1.1086,1.1033,1.0992,1.0932,1.0883,1.0967,1.1012,1.1046,1.1466,1.1792,1.1475,1.0923,1.1012,1.9036,1.9758,1.9171,1.9345,1.97,1.9417,1.9366,1.9307,1.8467,1.8532,1.9185,1.9307,1.8771,1.8233,1.859,1.8052,1.7402,1.7396,1.6638,1.5175,1.5116,1.458,1.3923,1.3688,1.3688,1.3688,1.3748,1.3808,1.4162,1.5051,1.6166,1.6562,1.6685,1.6921,1.722,1.6926,1.652,1.6349,1.6225,1.6225,1.511,1.4873,1.4813,1.4102,1.4162,1.4202,1.4088,1.3973,1.3863,1.3858,1.3789,1.382,1.352,1.3445,1.3262,1.324,1.3158,1.3216,1.3221,1.3225,1.3255,1.3231,1.3121,1.2982,1.2728,1.217,1.1842,1.1553,1.1362,1.1191,1.1057,1.1021,1.0992,1.1024,1.104,1.1003,1.1102,1.1214,1.1381,1.1432,1.1543,1.1595,1.1663,1.1785,1.1936,1.1985,1.1977,1.1976,1.1957,1.1842,1.178,1.1727,1.1807,1.1916,1.1795,1.1637,1.1529,1.1433,1.1305,1.1338,1.1411,1.1346,1.1244,1.1171,1.1098,1.1151,1.1143,1.1126,1.133,1.1785,1.2404,1.3377,1.3115,1.2316,1.2257,1.9461,1.9482,1.9301,1.9359,1.9482,1.9424,1.9424,1.9424,1.9185,1.9127,1.9366,1.9366,1.9307,1.9068,1.9185,1.8648,1.7994,1.776,1.6697,1.5758,1.5289,1.4873,1.3983,1.3983,1.3868,1.3688,1.3808,1.4282,1.511,1.6284,1.722,1.7513,1.7578,1.7812,1.8175,1.7818,1.7584,1.759,1.7766,1.6756,1.4873,1.5461,1.5752,1.5515,1.558,1.5989,1.5865,1.5688,1.5337,1.4992,1.4813,1.4391,1.3734,1.3691,1.3653,1.3547,1.3608,1.3594,1.3476,1.3466,1.3466,1.3499,1.3509,1.3528,1.3212,1.257,1.2051,1.1763,1.1537,1.1368,1.124,1.12,1.1216,1.1249,1.133,1.1366,1.1406,1.1633,1.1864,1.1977,1.209,1.2151,1.2155,1.2309,1.2402,1.244,1.2396,1.2381,1.2542,1.2497,1.2295,1.2257,1.212,1.2099,1.2061,1.1908,1.1753,1.1667,1.1633,1.1598,1.1618,1.1524,1.1415,1.1277,1.1208,1.1405,1.1429,1.1228,1.1561,1.2431,1.3083,1.4041,1.4432,1.3856,1.3927,1.9397,1.9764,1.954,1.9424,1.9424,1.9424,1.9424,1.9424,1.9424,1.9424,1.9424,1.9424,1.9424,1.9424,1.9424,1.9185,1.8532,1.859,1.7402,1.6284,1.5811,1.5461,1.4986,1.4629,1.5041,1.4986,1.4981,1.5515,1.629,1.705,1.7812,1.7987,1.8233,1.859,1.8887,1.8525,1.8532,1.8655,1.8823,1.7349,1.5105,1.6166,1.6573,1.6514,1.6514,1.6926,1.6803,1.6509,1.622,1.5871,1.5752,1.5575,1.5159,1.5144,1.4743,1.45,1.4316,1.4107,1.3868,1.3748,1.3748,1.3808,1.3688,1.3632,1.3329,1.2772,1.2582,1.2288,1.1934,1.1761,1.1547,1.1451,1.1553,1.1624,1.1639,1.1682,1.1845,1.2016,1.2188,1.2302,1.2359,1.2416,1.2513,1.2795,1.2899,1.3017,1.2926,1.284,1.2958,1.3031,1.2903,1.2733,1.2556,1.2466,1.2414,1.2166,1.1935,1.1868,1.1833,1.1744,1.1691,1.1658,1.1581,1.1652,1.1728,1.1963,1.1896,1.1991,1.2723,1.3874,1.4263,1.4639,1.4955,1.5567,1.6016,1.9285,2.0155,1.9707,1.9488,1.9424,1.9424,1.9424,1.9424,1.9424,1.9424,1.9424,1.9424,1.9424,1.9424,1.9424,1.9301,1.9127,1.8713,1.7701,1.7044,1.7103,1.6279,1.5924,1.5924,1.6042,1.6273,1.6391,1.6926,1.7578,1.811,1.835,1.8286,1.8467,1.8829,1.8525,1.859,1.8829,1.859,1.8409,1.7877,1.7461,1.7461,1.722,1.6926,1.6809,1.6868,1.6926,1.6921,1.6926,1.6568,1.645,1.6042,1.5871,1.5634,1.5219,1.4813,1.4753,1.452,1.4227,1.4047,1.4047,1.3928,1.3808,1.3569,1.332,1.3131,1.2993,1.2808,1.2449,1.2136,1.1859,1.1766,1.1866,1.1984,1.1974,1.212,1.2347,1.252,1.2636,1.2751,1.2751,1.2751,1.2936,1.3227,1.3337,1.3457,1.3459,1.3439,1.3375,1.3347,1.3329,1.315,1.2997,1.29,1.2779,1.2479,1.2122,1.2001,1.1945,1.1893,1.1824,1.1723,1.1887,1.226,1.2359,1.2797,1.3108,1.33,1.4198,1.5037,1.5568,1.5843,1.6489,1.7113,1.8122,1.9804,2.027,1.9873,1.9707,1.97,1.9482,1.9424,1.9424,1.9424,1.9424,1.9424,1.9424,1.9424,1.9424,1.9424,1.9185,1.8706,1.8532,1.7695,1.6744,1.722,1.675,1.6514,1.6809,1.6568,1.6862,1.7337,1.7753,1.8233,1.8771,1.9068,1.8952,1.8227,1.8525,1.9062,1.8946,1.8648,1.8648,1.8946,1.8713,1.8532,1.835,1.7877,1.7935,1.8415,1.8713,1.8829,1.8829,1.835,1.7695,1.6985,1.6455,1.6048,1.5817,1.5343,1.4813,1.4818,1.4813,1.452,1.4401,1.4341,1.4341,1.4102,1.3688,1.3504,1.3324,1.325,1.325,1.2886,1.2466,1.22,1.214,1.2149,1.2388,1.2493,1.2844,1.3204,1.3263,1.3322,1.3381,1.3381,1.3381,1.3391,1.357,1.357,1.3608,1.3608,1.3569,1.3569,1.3629,1.3688,1.3564,1.3384,1.3264,1.3084,1.2659,1.2359,1.2238,1.2118,1.2126,1.207,1.1837,1.2074,1.302,1.3495,1.3875,1.4202,1.4619,1.4971,1.572,1.6668,1.7237,1.7787,1.8293,1.8911]}]]